<?xml version='1.0' encoding='UTF-8'?><gpx version="1.1" creator="JPX - https://github.com/jenetics/jpx" xmlns="http://www.topografix.com/GPX/1/1"><trk><trkseg><trkpt lat="40.1272972" lon="8.8401434"><ele>290.6666666666667</ele><time>2026-04-22T08:38:12.999Z</time></trkpt><trkpt lat="40.1272222" lon="8.8401194"><ele>290.3333333333333</ele><time>2026-04-22T08:38:17Z</time></trkpt><trkpt lat="40.1272626" lon="8.8400448"><ele>290.0</ele><time>2026-04-22T08:38:40.999Z</time></trkpt><trkpt lat="40.1273103" lon="8.8399659"><ele>289.66666666666663</ele><time>2026-04-22T08:38:42.999Z</time></trkpt><trkpt lat="40.1272684" lon="8.8398904"><ele>289.3333333333333</ele><time>2026-04-22T08:38:44.999Z</time></trkpt><trkpt lat="40.1271862" lon="8.8398306"><ele>289.0</ele><time>2026-04-22T08:38:46.999Z</time></trkpt><trkpt lat="40.127119" lon="8.8397835"><ele>289.0</ele><time>2026-04-22T08:38:47.999Z</time></trkpt><trkpt lat="40.1270464" lon="8.8397429"><ele>289.0</ele><time>2026-04-22T08:38:48.999Z</time></trkpt><trkpt lat="40.1269662" lon="8.8396864"><ele>289.0</ele><time>2026-04-22T08:38:50Z</time></trkpt><trkpt lat="40.1268941" lon="8.8396381"><ele>289.0</ele><time>2026-04-22T08:38:51Z</time></trkpt><trkpt lat="40.1268356" lon="8.8395946"><ele>289.0</ele><time>2026-04-22T08:38:51.999Z</time></trkpt><trkpt lat="40.126773" lon="8.8395479"><ele>289.0</ele><time>2026-04-22T08:38:52.999Z</time></trkpt><trkpt lat="40.1267074" lon="8.8395143"><ele>289.0</ele><time>2026-04-22T08:38:53.999Z</time></trkpt><trkpt lat="40.1266279" lon="8.8394593"><ele>289.0</ele><time>2026-04-22T08:38:55.999Z</time></trkpt><trkpt lat="40.1265947" lon="8.8393885"><ele>289.0</ele><time>2026-04-22T08:38:59Z</time></trkpt><trkpt lat="40.1265343" lon="8.8393521"><ele>289.0</ele><time>2026-04-22T08:39:05.555Z</time></trkpt><trkpt lat="40.1264141" lon="8.8391595"><ele>289.0</ele><time>2026-04-22T08:39:07.999Z</time></trkpt><trkpt lat="40.1263476" lon="8.8390649"><ele>288.5</ele><time>2026-04-22T08:39:09Z</time></trkpt><trkpt lat="40.1262591" lon="8.8389773"><ele>288.0</ele><time>2026-04-22T08:39:09.999Z</time></trkpt><trkpt lat="40.1261712" lon="8.8388948"><ele>287.5</ele><time>2026-04-22T08:39:10.999Z</time></trkpt><trkpt lat="40.1260738" lon="8.83882"><ele>287.0</ele><time>2026-04-22T08:39:12Z</time></trkpt><trkpt lat="40.1259675" lon="8.838743"><ele>287.0</ele><time>2026-04-22T08:39:12.999Z</time></trkpt><trkpt lat="40.1258708" lon="8.8386662"><ele>287.0</ele><time>2026-04-22T08:39:13.999Z</time></trkpt><trkpt lat="40.1257714" lon="8.838587"><ele>287.0</ele><time>2026-04-22T08:39:14.999Z</time></trkpt><trkpt lat="40.1256655" lon="8.8385037"><ele>287.0</ele><time>2026-04-22T08:39:15.999Z</time></trkpt><trkpt lat="40.1255502" lon="8.8384048"><ele>288.5</ele><time>2026-04-22T08:39:16.999Z</time></trkpt><trkpt lat="40.1254386" lon="8.8382926"><ele>290.0</ele><time>2026-04-22T08:39:17.998Z</time></trkpt><trkpt lat="40.1253351" lon="8.8381812"><ele>291.5</ele><time>2026-04-22T08:39:18.999Z</time></trkpt><trkpt lat="40.1252436" lon="8.8380574"><ele>293.0</ele><time>2026-04-22T08:39:20Z</time></trkpt><trkpt lat="40.125159" lon="8.8379209"><ele>293.0</ele><time>2026-04-22T08:39:21Z</time></trkpt><trkpt lat="40.1250649" lon="8.8377832"><ele>293.0</ele><time>2026-04-22T08:39:21.999Z</time></trkpt><trkpt lat="40.1249652" lon="8.8376476"><ele>293.0</ele><time>2026-04-22T08:39:22.999Z</time></trkpt><trkpt lat="40.1248672" lon="8.8375068"><ele>293.0</ele><time>2026-04-22T08:39:24Z</time></trkpt><trkpt lat="40.1247671" lon="8.8373676"><ele>293.75</ele><time>2026-04-22T08:39:25Z</time></trkpt><trkpt lat="40.1246706" lon="8.8372235"><ele>294.5</ele><time>2026-04-22T08:39:26Z</time></trkpt><trkpt lat="40.1245742" lon="8.8370879"><ele>295.25</ele><time>2026-04-22T08:39:27Z</time></trkpt><trkpt lat="40.1244834" lon="8.8369589"><ele>296.0</ele><time>2026-04-22T08:39:28Z</time></trkpt><trkpt lat="40.1243926" lon="8.8368421"><ele>296.0</ele><time>2026-04-22T08:39:29Z</time></trkpt><trkpt lat="40.1243049" lon="8.8367323"><ele>296.0</ele><time>2026-04-22T08:39:30Z</time></trkpt><trkpt lat="40.1242164" lon="8.8366158"><ele>296.0</ele><time>2026-04-22T08:39:31Z</time></trkpt><trkpt lat="40.1241209" lon="8.8364973"><ele>296.0</ele><time>2026-04-22T08:39:32Z</time></trkpt><trkpt lat="40.124029" lon="8.836378"><ele>296.0</ele><time>2026-04-22T08:39:33Z</time></trkpt><trkpt lat="40.1239412" lon="8.8362683"><ele>296.0</ele><time>2026-04-22T08:39:33.999Z</time></trkpt><trkpt lat="40.1238521" lon="8.8361685"><ele>296.0</ele><time>2026-04-22T08:39:34.999Z</time></trkpt><trkpt lat="40.1237614" lon="8.8360782"><ele>296.0</ele><time>2026-04-22T08:39:35.999Z</time></trkpt><trkpt lat="40.123676" lon="8.8360013"><ele>296.33333333333337</ele><time>2026-04-22T08:39:36.999Z</time></trkpt><trkpt lat="40.1235967" lon="8.8359345"><ele>296.6666666666667</ele><time>2026-04-22T08:39:38Z</time></trkpt><trkpt lat="40.1235137" lon="8.8358807"><ele>297.0</ele><time>2026-04-22T08:39:38.999Z</time></trkpt><trkpt lat="40.1234297" lon="8.8358287"><ele>297.3333333333333</ele><time>2026-04-22T08:39:39.999Z</time></trkpt><trkpt lat="40.1233535" lon="8.8357762"><ele>297.66666666666663</ele><time>2026-04-22T08:39:40.999Z</time></trkpt><trkpt lat="40.1232823" lon="8.8357213"><ele>298.0</ele><time>2026-04-22T08:39:41.999Z</time></trkpt><trkpt lat="40.1232213" lon="8.8356662"><ele>298.0</ele><time>2026-04-22T08:39:42.999Z</time></trkpt><trkpt lat="40.1231635" lon="8.8356208"><ele>298.0</ele><time>2026-04-22T08:39:43.999Z</time></trkpt><trkpt lat="40.1230526" lon="8.8355616"><ele>298.0</ele><time>2026-04-22T08:39:45.999Z</time></trkpt><trkpt lat="40.1229874" lon="8.8355344"><ele>298.0</ele><time>2026-04-22T08:39:47Z</time></trkpt><trkpt lat="40.1229073" lon="8.835503"><ele>298.0</ele><time>2026-04-22T08:39:48Z</time></trkpt><trkpt lat="40.1228073" lon="8.8354601"><ele>298.0</ele><time>2026-04-22T08:39:49Z</time></trkpt><trkpt lat="40.1226975" lon="8.8354141"><ele>298.0</ele><time>2026-04-22T08:39:50Z</time></trkpt><trkpt lat="40.122584" lon="8.8353693"><ele>298.0</ele><time>2026-04-22T08:39:50.999Z</time></trkpt><trkpt lat="40.1224613" lon="8.8353249"><ele>298.0</ele><time>2026-04-22T08:39:51.999Z</time></trkpt><trkpt lat="40.122336" lon="8.8352783"><ele>298.0</ele><time>2026-04-22T08:39:52.999Z</time></trkpt><trkpt lat="40.1222103" lon="8.8352173"><ele>298.25</ele><time>2026-04-22T08:39:54Z</time></trkpt><trkpt lat="40.1220872" lon="8.8351448"><ele>298.5</ele><time>2026-04-22T08:39:55Z</time></trkpt><trkpt lat="40.1219649" lon="8.8350617"><ele>298.75</ele><time>2026-04-22T08:39:55.999Z</time></trkpt><trkpt lat="40.1218518" lon="8.8349767"><ele>299.0</ele><time>2026-04-22T08:39:57Z</time></trkpt><trkpt lat="40.1217442" lon="8.834898"><ele>299.0</ele><time>2026-04-22T08:39:58Z</time></trkpt><trkpt lat="40.1216434" lon="8.8348219"><ele>299.0</ele><time>2026-04-22T08:39:59Z</time></trkpt><trkpt lat="40.1215422" lon="8.8347428"><ele>299.0</ele><time>2026-04-22T08:39:59.999Z</time></trkpt><trkpt lat="40.1214485" lon="8.8346565"><ele>299.0</ele><time>2026-04-22T08:40:00.999Z</time></trkpt><trkpt lat="40.1213605" lon="8.8345655"><ele>298.8</ele><time>2026-04-22T08:40:02Z</time></trkpt><trkpt lat="40.1212782" lon="8.8344749"><ele>298.59999999999997</ele><time>2026-04-22T08:40:02.999Z</time></trkpt><trkpt lat="40.1211894" lon="8.8343927"><ele>298.4</ele><time>2026-04-22T08:40:04Z</time></trkpt><trkpt lat="40.1210997" lon="8.8343158"><ele>298.2</ele><time>2026-04-22T08:40:04.999Z</time></trkpt><trkpt lat="40.12102" lon="8.8342331"><ele>298.0</ele><time>2026-04-22T08:40:05.999Z</time></trkpt><trkpt lat="40.120946" lon="8.8341492"><ele>298.0</ele><time>2026-04-22T08:40:07Z</time></trkpt><trkpt lat="40.1208846" lon="8.8340666"><ele>298.0</ele><time>2026-04-22T08:40:08Z</time></trkpt><trkpt lat="40.1208305" lon="8.8339783"><ele>298.0</ele><time>2026-04-22T08:40:09Z</time></trkpt><trkpt lat="40.1207809" lon="8.833896"><ele>298.0</ele><time>2026-04-22T08:40:09.999Z</time></trkpt><trkpt lat="40.1207395" lon="8.8338162"><ele>298.0</ele><time>2026-04-22T08:40:10.999Z</time></trkpt><trkpt lat="40.1207036" lon="8.8337386"><ele>298.0</ele><time>2026-04-22T08:40:11.999Z</time></trkpt><trkpt lat="40.1206493" lon="8.8336419"><ele>297.8333333333333</ele><time>2026-04-22T08:40:13.999Z</time></trkpt><trkpt lat="40.1205861" lon="8.8337012"><ele>297.66666666666663</ele><time>2026-04-22T08:40:16Z</time></trkpt><trkpt lat="40.1205347" lon="8.8337681"><ele>297.5</ele><time>2026-04-22T08:40:17Z</time></trkpt><trkpt lat="40.1204727" lon="8.8338431"><ele>297.3333333333333</ele><time>2026-04-22T08:40:18Z</time></trkpt><trkpt lat="40.1204083" lon="8.8339121"><ele>297.1666666666667</ele><time>2026-04-22T08:40:18.999Z</time></trkpt><trkpt lat="40.1203294" lon="8.8339877"><ele>297.0</ele><time>2026-04-22T08:40:19.999Z</time></trkpt><trkpt lat="40.1202492" lon="8.8340578"><ele>297.0</ele><time>2026-04-22T08:40:20.999Z</time></trkpt><trkpt lat="40.1201737" lon="8.8341153"><ele>297.0</ele><time>2026-04-22T08:40:22Z</time></trkpt><trkpt lat="40.1201014" lon="8.8341781"><ele>297.0</ele><time>2026-04-22T08:40:22.999Z</time></trkpt><trkpt lat="40.120039" lon="8.8342397"><ele>297.0</ele><time>2026-04-22T08:40:23.999Z</time></trkpt><trkpt lat="40.1199856" lon="8.8342908"><ele>297.0</ele><time>2026-04-22T08:40:24.999Z</time></trkpt><trkpt lat="40.1199227" lon="8.8343722"><ele>297.0</ele><time>2026-04-22T08:40:26.999Z</time></trkpt><trkpt lat="40.1199619" lon="8.8344581"><ele>296.0</ele><time>2026-04-22T08:40:28.999Z</time></trkpt><trkpt lat="40.1199975" lon="8.8345293"><ele>295.0</ele><time>2026-04-22T08:40:31.999Z</time></trkpt><trkpt lat="40.1200227" lon="8.8346187"><ele>294.0</ele><time>2026-04-22T08:40:34Z</time></trkpt><trkpt lat="40.1200906" lon="8.8347759"><ele>293.0</ele><time>2026-04-22T08:40:34.999Z</time></trkpt><trkpt lat="40.1202468" lon="8.8349902"><ele>292.0</ele><time>2026-04-22T08:40:36Z</time></trkpt><trkpt lat="40.1203668" lon="8.8351386"><ele>291.0</ele><time>2026-04-22T08:40:36.997Z</time></trkpt><trkpt lat="40.1204486" lon="8.8352346"><ele>290.0</ele><time>2026-04-22T08:40:38Z</time></trkpt><trkpt lat="40.1204936" lon="8.8352977"><ele>289.0</ele><time>2026-04-22T08:40:38.999Z</time></trkpt><trkpt lat="40.1205314" lon="8.8353799"><ele>288.0</ele><time>2026-04-22T08:40:40.999Z</time></trkpt><trkpt lat="40.1204744" lon="8.835462"><ele>288.0</ele><time>2026-04-22T08:40:42.999Z</time></trkpt><trkpt lat="40.1204188" lon="8.8355093"><ele>288.0</ele><time>2026-04-22T08:40:43.999Z</time></trkpt><trkpt lat="40.1203488" lon="8.8355639"><ele>288.0</ele><time>2026-04-22T08:40:44.999Z</time></trkpt><trkpt lat="40.1202843" lon="8.8356133"><ele>288.0</ele><time>2026-04-22T08:40:45.999Z</time></trkpt><trkpt lat="40.1202116" lon="8.8356529"><ele>288.0</ele><time>2026-04-22T08:40:47.999Z</time></trkpt><trkpt lat="40.1200916" lon="8.8356757"><ele>288.0</ele><time>2026-04-22T08:40:50Z</time></trkpt><trkpt lat="40.1200215" lon="8.8356788"><ele>288.0</ele><time>2026-04-22T08:40:51Z</time></trkpt><trkpt lat="40.119917" lon="8.8356836"><ele>288.0</ele><time>2026-04-22T08:40:52.999Z</time></trkpt><trkpt lat="40.1198208" lon="8.8356073"><ele>288.0</ele><time>2026-04-22T08:40:56Z</time></trkpt><trkpt lat="40.1197614" lon="8.8354889"><ele>288.0</ele><time>2026-04-22T08:40:57.999Z</time></trkpt><trkpt lat="40.1197528" lon="8.835403"><ele>288.0</ele><time>2026-04-22T08:40:58.999Z</time></trkpt><trkpt lat="40.1197553" lon="8.8352925"><ele>287.3333333333333</ele><time>2026-04-22T08:41:00Z</time></trkpt><trkpt lat="40.1197578" lon="8.8351793"><ele>286.6666666666667</ele><time>2026-04-22T08:41:00.999Z</time></trkpt><trkpt lat="40.1197555" lon="8.8350769"><ele>286.0</ele><time>2026-04-22T08:41:02Z</time></trkpt><trkpt lat="40.1197412" lon="8.8349681"><ele>285.33333333333337</ele><time>2026-04-22T08:41:03Z</time></trkpt><trkpt lat="40.1197195" lon="8.8348636"><ele>284.6666666666667</ele><time>2026-04-22T08:41:03.999Z</time></trkpt><trkpt lat="40.1196975" lon="8.8347569"><ele>284.0</ele><time>2026-04-22T08:41:05Z</time></trkpt><trkpt lat="40.1196593" lon="8.8346726"><ele>286.0</ele><time>2026-04-22T08:41:05.999Z</time></trkpt><trkpt lat="40.1195868" lon="8.8346073"><ele>288.0</ele><time>2026-04-22T08:41:06.999Z</time></trkpt><trkpt lat="40.1194262" lon="8.8346055"><ele>290.0</ele><time>2026-04-22T08:41:08Z</time></trkpt><trkpt lat="40.119284" lon="8.8345676"><ele>292.0</ele><time>2026-04-22T08:41:08.999Z</time></trkpt><trkpt lat="40.1191798" lon="8.8344935"><ele>292.0</ele><time>2026-04-22T08:41:10Z</time></trkpt><trkpt lat="40.1190987" lon="8.8343796"><ele>292.0</ele><time>2026-04-22T08:41:10.999Z</time></trkpt><trkpt lat="40.1190232" lon="8.8342729"><ele>292.0</ele><time>2026-04-22T08:41:11.999Z</time></trkpt><trkpt lat="40.118957" lon="8.8341761"><ele>292.0</ele><time>2026-04-22T08:41:13Z</time></trkpt><trkpt lat="40.1189023" lon="8.8340716"><ele>292.0</ele><time>2026-04-22T08:41:14Z</time></trkpt><trkpt lat="40.1188621" lon="8.833962"><ele>291.8333333333333</ele><time>2026-04-22T08:41:14.999Z</time></trkpt><trkpt lat="40.1188221" lon="8.8338546"><ele>291.66666666666663</ele><time>2026-04-22T08:41:16Z</time></trkpt><trkpt lat="40.1187797" lon="8.833745"><ele>291.5</ele><time>2026-04-22T08:41:16.999Z</time></trkpt><trkpt lat="40.1187469" lon="8.8336535"><ele>291.3333333333333</ele><time>2026-04-22T08:41:18Z</time></trkpt><trkpt lat="40.118698" lon="8.8335426"><ele>291.1666666666667</ele><time>2026-04-22T08:41:19.999Z</time></trkpt><trkpt lat="40.1187318" lon="8.8334509"><ele>291.0</ele><time>2026-04-22T08:41:23Z</time></trkpt><trkpt lat="40.1188125" lon="8.8333829"><ele>291.3333333333333</ele><time>2026-04-22T08:41:24.999Z</time></trkpt><trkpt lat="40.1188844" lon="8.8333321"><ele>291.6666666666667</ele><time>2026-04-22T08:41:25.999Z</time></trkpt><trkpt lat="40.1189698" lon="8.8332739"><ele>292.0</ele><time>2026-04-22T08:41:26.999Z</time></trkpt><trkpt lat="40.1190533" lon="8.833224"><ele>292.33333333333337</ele><time>2026-04-22T08:41:28Z</time></trkpt><trkpt lat="40.1191188" lon="8.8331859"><ele>292.6666666666667</ele><time>2026-04-22T08:41:28.999Z</time></trkpt><trkpt lat="40.1191826" lon="8.8331111"><ele>293.0</ele><time>2026-04-22T08:41:31Z</time></trkpt><trkpt lat="40.1191448" lon="8.8329571"><ele>293.0</ele><time>2026-04-22T08:41:33.999Z</time></trkpt><trkpt lat="40.1191028" lon="8.8328291"><ele>293.0</ele><time>2026-04-22T08:41:34.999Z</time></trkpt><trkpt lat="40.1190574" lon="8.8326681"><ele>293.0</ele><time>2026-04-22T08:41:35.999Z</time></trkpt><trkpt lat="40.1190206" lon="8.832488"><ele>293.0</ele><time>2026-04-22T08:41:36.999Z</time></trkpt><trkpt lat="40.1190029" lon="8.8322944"><ele>294.6666666666667</ele><time>2026-04-22T08:41:38Z</time></trkpt><trkpt lat="40.1190084" lon="8.8320934"><ele>296.3333333333333</ele><time>2026-04-22T08:41:38.999Z</time></trkpt><trkpt lat="40.1190336" lon="8.8318978"><ele>298.0</ele><time>2026-04-22T08:41:39.999Z</time></trkpt><trkpt lat="40.1190735" lon="8.8317128"><ele>298.5</ele><time>2026-04-22T08:41:41Z</time></trkpt><trkpt lat="40.1191233" lon="8.8315389"><ele>299.0</ele><time>2026-04-22T08:41:42Z</time></trkpt><trkpt lat="40.1191752" lon="8.8313612"><ele>299.5</ele><time>2026-04-22T08:41:42.999Z</time></trkpt><trkpt lat="40.1192287" lon="8.8311707"><ele>300.0</ele><time>2026-04-22T08:41:43.999Z</time></trkpt><trkpt lat="40.1192862" lon="8.8309745"><ele>300.3333333333333</ele><time>2026-04-22T08:41:44.999Z</time></trkpt><trkpt lat="40.1193473" lon="8.8307811"><ele>300.66666666666663</ele><time>2026-04-22T08:41:46Z</time></trkpt><trkpt lat="40.1194056" lon="8.8305903"><ele>301.0</ele><time>2026-04-22T08:41:47Z</time></trkpt><trkpt lat="40.1194591" lon="8.8304017"><ele>301.0</ele><time>2026-04-22T08:41:47.999Z</time></trkpt><trkpt lat="40.1195123" lon="8.8302164"><ele>301.0</ele><time>2026-04-22T08:41:48.999Z</time></trkpt><trkpt lat="40.1195582" lon="8.830035"><ele>301.0</ele><time>2026-04-22T08:41:49.999Z</time></trkpt><trkpt lat="40.1195985" lon="8.8298584"><ele>301.0</ele><time>2026-04-22T08:41:50.999Z</time></trkpt><trkpt lat="40.1196371" lon="8.829689"><ele>301.25</ele><time>2026-04-22T08:41:51.999Z</time></trkpt><trkpt lat="40.1196722" lon="8.8295291"><ele>301.5</ele><time>2026-04-22T08:41:53Z</time></trkpt><trkpt lat="40.1197107" lon="8.8293647"><ele>301.75</ele><time>2026-04-22T08:41:53.999Z</time></trkpt><trkpt lat="40.119749" lon="8.829189"><ele>302.0</ele><time>2026-04-22T08:41:54.999Z</time></trkpt><trkpt lat="40.1197958" lon="8.8290045"><ele>302.6666666666667</ele><time>2026-04-22T08:41:55.999Z</time></trkpt><trkpt lat="40.1198528" lon="8.8288014"><ele>303.3333333333333</ele><time>2026-04-22T08:41:57Z</time></trkpt><trkpt lat="40.1199097" lon="8.8285914"><ele>304.0</ele><time>2026-04-22T08:41:57.999Z</time></trkpt><trkpt lat="40.1199655" lon="8.8283833"><ele>305.0</ele><time>2026-04-22T08:41:58.999Z</time></trkpt><trkpt lat="40.1200206" lon="8.8281772"><ele>306.0</ele><time>2026-04-22T08:41:59.999Z</time></trkpt><trkpt lat="40.1200766" lon="8.8279694"><ele>307.0</ele><time>2026-04-22T08:42:00.999Z</time></trkpt><trkpt lat="40.1201343" lon="8.8277599"><ele>307.0</ele><time>2026-04-22T08:42:01.999Z</time></trkpt><trkpt lat="40.1201915" lon="8.8275497"><ele>307.0</ele><time>2026-04-22T08:42:02.999Z</time></trkpt><trkpt lat="40.1202451" lon="8.827345"><ele>307.0</ele><time>2026-04-22T08:42:04Z</time></trkpt><trkpt lat="40.1202961" lon="8.8271533"><ele>307.0</ele><time>2026-04-22T08:42:04.999Z</time></trkpt><trkpt lat="40.1203393" lon="8.826985"><ele>307.0</ele><time>2026-04-22T08:42:05.999Z</time></trkpt><trkpt lat="40.1203763" lon="8.8268254"><ele>307.0</ele><time>2026-04-22T08:42:06.999Z</time></trkpt><trkpt lat="40.1204103" lon="8.826688"><ele>307.0</ele><time>2026-04-22T08:42:07.999Z</time></trkpt><trkpt lat="40.1204484" lon="8.8265619"><ele>307.75</ele><time>2026-04-22T08:42:08.999Z</time></trkpt><trkpt lat="40.1204871" lon="8.8264182"><ele>308.5</ele><time>2026-04-22T08:42:09.999Z</time></trkpt><trkpt lat="40.1205407" lon="8.8262715"><ele>309.25</ele><time>2026-04-22T08:42:11Z</time></trkpt><trkpt lat="40.1206199" lon="8.8261206"><ele>310.0</ele><time>2026-04-22T08:42:11.999Z</time></trkpt><trkpt lat="40.1207095" lon="8.825961"><ele>310.66666666666663</ele><time>2026-04-22T08:42:13Z</time></trkpt><trkpt lat="40.1207929" lon="8.8257996"><ele>311.3333333333333</ele><time>2026-04-22T08:42:13.999Z</time></trkpt><trkpt lat="40.1208905" lon="8.8256347"><ele>312.0</ele><time>2026-04-22T08:42:15Z</time></trkpt><trkpt lat="40.1209922" lon="8.8254755"><ele>312.0</ele><time>2026-04-22T08:42:15.999Z</time></trkpt><trkpt lat="40.1210858" lon="8.8253352"><ele>312.0</ele><time>2026-04-22T08:42:16.999Z</time></trkpt><trkpt lat="40.1211619" lon="8.8252172"><ele>312.0</ele><time>2026-04-22T08:42:17.999Z</time></trkpt><trkpt lat="40.121236" lon="8.8251157"><ele>312.0</ele><time>2026-04-22T08:42:19Z</time></trkpt><trkpt lat="40.1213215" lon="8.8250035"><ele>312.25</ele><time>2026-04-22T08:42:20Z</time></trkpt><trkpt lat="40.1214114" lon="8.8248769"><ele>312.5</ele><time>2026-04-22T08:42:20.999Z</time></trkpt><trkpt lat="40.1215075" lon="8.8247374"><ele>312.75</ele><time>2026-04-22T08:42:22Z</time></trkpt><trkpt lat="40.1216111" lon="8.8245832"><ele>313.0</ele><time>2026-04-22T08:42:23Z</time></trkpt><trkpt lat="40.1217223" lon="8.8244287"><ele>313.5</ele><time>2026-04-22T08:42:23.999Z</time></trkpt><trkpt lat="40.1218322" lon="8.8242754"><ele>314.0</ele><time>2026-04-22T08:42:24.999Z</time></trkpt><trkpt lat="40.1219309" lon="8.8241313"><ele>314.5</ele><time>2026-04-22T08:42:26Z</time></trkpt><trkpt lat="40.1220179" lon="8.8239975"><ele>315.0</ele><time>2026-04-22T08:42:26.999Z</time></trkpt><trkpt lat="40.1221078" lon="8.8238862"><ele>315.0</ele><time>2026-04-22T08:42:28Z</time></trkpt><trkpt lat="40.1222042" lon="8.8237893"><ele>315.0</ele><time>2026-04-22T08:42:28.999Z</time></trkpt><trkpt lat="40.1223019" lon="8.8237106"><ele>315.0</ele><time>2026-04-22T08:42:30Z</time></trkpt><trkpt lat="40.1223958" lon="8.8236487"><ele>315.0</ele><time>2026-04-22T08:42:30.999Z</time></trkpt><trkpt lat="40.1224792" lon="8.8236008"><ele>315.0</ele><time>2026-04-22T08:42:31.999Z</time></trkpt><trkpt lat="40.1225492" lon="8.8235647"><ele>315.4</ele><time>2026-04-22T08:42:33Z</time></trkpt><trkpt lat="40.1226104" lon="8.8235243"><ele>315.8</ele><time>2026-04-22T08:42:33.999Z</time></trkpt><trkpt lat="40.1227208" lon="8.8234634"><ele>316.2</ele><time>2026-04-22T08:42:35.999Z</time></trkpt><trkpt lat="40.12279" lon="8.823448"><ele>316.6</ele><time>2026-04-22T08:42:37.999Z</time></trkpt><trkpt lat="40.1229009" lon="8.8233906"><ele>317.0</ele><time>2026-04-22T08:42:52.999Z</time></trkpt><trkpt lat="40.1229714" lon="8.823363"><ele>317.4</ele><time>2026-04-22T08:42:53.999Z</time></trkpt><trkpt lat="40.1230502" lon="8.8233208"><ele>317.79999999999995</ele><time>2026-04-22T08:42:55Z</time></trkpt><trkpt lat="40.1231332" lon="8.8232648"><ele>318.2</ele><time>2026-04-22T08:42:55.999Z</time></trkpt><trkpt lat="40.1232182" lon="8.8231985"><ele>318.59999999999997</ele><time>2026-04-22T08:42:56.999Z</time></trkpt><trkpt lat="40.1233069" lon="8.8231145"><ele>319.0</ele><time>2026-04-22T08:42:57.999Z</time></trkpt><trkpt lat="40.1233824" lon="8.8230099"><ele>319.25</ele><time>2026-04-22T08:42:58.999Z</time></trkpt><trkpt lat="40.1234714" lon="8.8228982"><ele>319.5</ele><time>2026-04-22T08:43:00Z</time></trkpt><trkpt lat="40.1235687" lon="8.8227761"><ele>319.75</ele><time>2026-04-22T08:43:00.999Z</time></trkpt><trkpt lat="40.123662" lon="8.8226512"><ele>320.0</ele><time>2026-04-22T08:43:01.999Z</time></trkpt><trkpt lat="40.1237543" lon="8.8225316"><ele>320.0</ele><time>2026-04-22T08:43:03Z</time></trkpt><trkpt lat="40.1238428" lon="8.8224156"><ele>320.0</ele><time>2026-04-22T08:43:04Z</time></trkpt><trkpt lat="40.1239273" lon="8.8223043"><ele>320.0</ele><time>2026-04-22T08:43:04.999Z</time></trkpt><trkpt lat="40.1240013" lon="8.8221965"><ele>320.0</ele><time>2026-04-22T08:43:05.999Z</time></trkpt><trkpt lat="40.1240632" lon="8.8221112"><ele>320.0</ele><time>2026-04-22T08:43:06.999Z</time></trkpt><trkpt lat="40.1241156" lon="8.8220292"><ele>318.4</ele><time>2026-04-22T08:43:07.999Z</time></trkpt><trkpt lat="40.1241886" lon="8.821963"><ele>316.8</ele><time>2026-04-22T08:43:10Z</time></trkpt><trkpt lat="40.1242969" lon="8.8219661"><ele>315.2</ele><time>2026-04-22T08:43:12Z</time></trkpt><trkpt lat="40.1243742" lon="8.8219601"><ele>313.6</ele><time>2026-04-22T08:43:12.999Z</time></trkpt><trkpt lat="40.1244673" lon="8.8219461"><ele>312.0</ele><time>2026-04-22T08:43:13.999Z</time></trkpt><trkpt lat="40.1245719" lon="8.8219536"><ele>312.0</ele><time>2026-04-22T08:43:14.999Z</time></trkpt><trkpt lat="40.1246753" lon="8.8219701"><ele>312.0</ele><time>2026-04-22T08:43:16Z</time></trkpt><trkpt lat="40.1247704" lon="8.8219913"><ele>312.0</ele><time>2026-04-22T08:43:16.999Z</time></trkpt><trkpt lat="40.1248615" lon="8.8220027"><ele>312.0</ele><time>2026-04-22T08:43:17.999Z</time></trkpt><trkpt lat="40.1249486" lon="8.822006"><ele>312.0</ele><time>2026-04-22T08:43:18.999Z</time></trkpt><trkpt lat="40.1250345" lon="8.8220119"><ele>311.6666666666667</ele><time>2026-04-22T08:43:20Z</time></trkpt><trkpt lat="40.1251165" lon="8.8220082"><ele>311.3333333333333</ele><time>2026-04-22T08:43:21Z</time></trkpt><trkpt lat="40.1251944" lon="8.8219925"><ele>311.0</ele><time>2026-04-22T08:43:22Z</time></trkpt><trkpt lat="40.1252716" lon="8.8219465"><ele>310.66666666666663</ele><time>2026-04-22T08:43:22.999Z</time></trkpt><trkpt lat="40.1253561" lon="8.8218798"><ele>310.3333333333333</ele><time>2026-04-22T08:43:23.999Z</time></trkpt><trkpt lat="40.1254511" lon="8.8218231"><ele>310.0</ele><time>2026-04-22T08:43:25Z</time></trkpt><trkpt lat="40.1255501" lon="8.8217791"><ele>310.8333333333333</ele><time>2026-04-22T08:43:26Z</time></trkpt><trkpt lat="40.1256412" lon="8.8217429"><ele>311.66666666666663</ele><time>2026-04-22T08:43:26.999Z</time></trkpt><trkpt lat="40.1257222" lon="8.8216932"><ele>312.5</ele><time>2026-04-22T08:43:28Z</time></trkpt><trkpt lat="40.12579" lon="8.821621"><ele>313.3333333333333</ele><time>2026-04-22T08:43:28.999Z</time></trkpt><trkpt lat="40.1258454" lon="8.8215325"><ele>314.1666666666667</ele><time>2026-04-22T08:43:29.999Z</time></trkpt><trkpt lat="40.1258928" lon="8.8214562"><ele>315.0</ele><time>2026-04-22T08:43:30.999Z</time></trkpt><trkpt lat="40.1259701" lon="8.8213786"><ele>315.0</ele><time>2026-04-22T08:43:32.999Z</time></trkpt><trkpt lat="40.1260168" lon="8.8213029"><ele>315.0</ele><time>2026-04-22T08:43:58.999Z</time></trkpt><trkpt lat="40.1260471" lon="8.8211272"><ele>315.0</ele><time>2026-04-22T08:44:00.999Z</time></trkpt><trkpt lat="40.1260832" lon="8.8210295"><ele>315.0</ele><time>2026-04-22T08:44:01.999Z</time></trkpt><trkpt lat="40.1261458" lon="8.8209383"><ele>315.0</ele><time>2026-04-22T08:44:03Z</time></trkpt><trkpt lat="40.1262325" lon="8.8208409"><ele>315.25</ele><time>2026-04-22T08:44:03.999Z</time></trkpt><trkpt lat="40.1263198" lon="8.8207361"><ele>315.5</ele><time>2026-04-22T08:44:05Z</time></trkpt><trkpt lat="40.126401" lon="8.8206196"><ele>315.75</ele><time>2026-04-22T08:44:05.999Z</time></trkpt><trkpt lat="40.1264791" lon="8.8204896"><ele>316.0</ele><time>2026-04-22T08:44:06.999Z</time></trkpt><trkpt lat="40.1265583" lon="8.8203515"><ele>316.0</ele><time>2026-04-22T08:44:07.999Z</time></trkpt><trkpt lat="40.1266385" lon="8.8202185"><ele>316.0</ele><time>2026-04-22T08:44:08.999Z</time></trkpt><trkpt lat="40.1267073" lon="8.8200988"><ele>316.0</ele><time>2026-04-22T08:44:09.999Z</time></trkpt><trkpt lat="40.1267732" lon="8.8199951"><ele>316.0</ele><time>2026-04-22T08:44:11Z</time></trkpt><trkpt lat="40.1268358" lon="8.819892"><ele>316.0</ele><time>2026-04-22T08:44:11.999Z</time></trkpt><trkpt lat="40.1268791" lon="8.8198079"><ele>315.8333333333333</ele><time>2026-04-22T08:44:13Z</time></trkpt><trkpt lat="40.1269149" lon="8.8197374"><ele>315.66666666666663</ele><time>2026-04-22T08:44:14Z</time></trkpt><trkpt lat="40.1269513" lon="8.8196693"><ele>315.5</ele><time>2026-04-22T08:44:14.999Z</time></trkpt><trkpt lat="40.1269907" lon="8.8195827"><ele>315.3333333333333</ele><time>2026-04-22T08:44:15.999Z</time></trkpt><trkpt lat="40.1270332" lon="8.8194755"><ele>315.1666666666667</ele><time>2026-04-22T08:44:16.999Z</time></trkpt><trkpt lat="40.1270745" lon="8.8193561"><ele>315.0</ele><time>2026-04-22T08:44:17.999Z</time></trkpt><trkpt lat="40.1271095" lon="8.8192378"><ele>315.0</ele><time>2026-04-22T08:44:19Z</time></trkpt><trkpt lat="40.1271369" lon="8.8190944"><ele>315.0</ele><time>2026-04-22T08:44:19.999Z</time></trkpt><trkpt lat="40.1271586" lon="8.8189384"><ele>315.0</ele><time>2026-04-22T08:44:20.999Z</time></trkpt><trkpt lat="40.1271829" lon="8.8187782"><ele>315.0</ele><time>2026-04-22T08:44:22Z</time></trkpt><trkpt lat="40.12721" lon="8.8186063"><ele>315.25</ele><time>2026-04-22T08:44:23Z</time></trkpt><trkpt lat="40.127236" lon="8.8184322"><ele>315.5</ele><time>2026-04-22T08:44:24Z</time></trkpt><trkpt lat="40.1272611" lon="8.8182653"><ele>315.75</ele><time>2026-04-22T08:44:24.999Z</time></trkpt><trkpt lat="40.1272861" lon="8.8181002"><ele>316.0</ele><time>2026-04-22T08:44:25.999Z</time></trkpt><trkpt lat="40.1273029" lon="8.8179436"><ele>316.0</ele><time>2026-04-22T08:44:26.999Z</time></trkpt><trkpt lat="40.1273188" lon="8.8177928"><ele>316.0</ele><time>2026-04-22T08:44:28Z</time></trkpt><trkpt lat="40.1273299" lon="8.8176537"><ele>316.0</ele><time>2026-04-22T08:44:29Z</time></trkpt><trkpt lat="40.1273523" lon="8.8175275"><ele>316.0</ele><time>2026-04-22T08:44:29.999Z</time></trkpt><trkpt lat="40.1273775" lon="8.817426"><ele>316.0</ele><time>2026-04-22T08:44:30.999Z</time></trkpt><trkpt lat="40.1274148" lon="8.8173114"><ele>316.16666666666663</ele><time>2026-04-22T08:44:33Z</time></trkpt><trkpt lat="40.1274809" lon="8.8171988"><ele>316.3333333333333</ele><time>2026-04-22T08:44:35Z</time></trkpt><trkpt lat="40.1275456" lon="8.8170755"><ele>316.5</ele><time>2026-04-22T08:44:36.999Z</time></trkpt><trkpt lat="40.1275817" lon="8.8169997"><ele>316.6666666666667</ele><time>2026-04-22T08:44:37.999Z</time></trkpt><trkpt lat="40.1276201" lon="8.8169133"><ele>316.83333333333337</ele><time>2026-04-22T08:44:38.999Z</time></trkpt><trkpt lat="40.1276607" lon="8.816825"><ele>317.0</ele><time>2026-04-22T08:44:40Z</time></trkpt><trkpt lat="40.1276967" lon="8.8167381"><ele>317.1666666666667</ele><time>2026-04-22T08:44:40.999Z</time></trkpt><trkpt lat="40.127724" lon="8.8166545"><ele>317.33333333333337</ele><time>2026-04-22T08:44:41.999Z</time></trkpt><trkpt lat="40.1277275" lon="8.8165667"><ele>317.5</ele><time>2026-04-22T08:44:42.999Z</time></trkpt><trkpt lat="40.1277173" lon="8.8164789"><ele>317.6666666666667</ele><time>2026-04-22T08:44:43.999Z</time></trkpt><trkpt lat="40.1276677" lon="8.8163849"><ele>317.8333333333333</ele><time>2026-04-22T08:44:44.999Z</time></trkpt><trkpt lat="40.1275858" lon="8.8162937"><ele>318.0</ele><time>2026-04-22T08:44:46Z</time></trkpt><trkpt lat="40.1274847" lon="8.8162223"><ele>318.0</ele><time>2026-04-22T08:44:47Z</time></trkpt><trkpt lat="40.127386" lon="8.81617"><ele>318.0</ele><time>2026-04-22T08:44:47.999Z</time></trkpt><trkpt lat="40.127305" lon="8.8161097"><ele>318.0</ele><time>2026-04-22T08:44:48.999Z</time></trkpt><trkpt lat="40.1272553" lon="8.8160245"><ele>318.0</ele><time>2026-04-22T08:44:49.999Z</time></trkpt><trkpt lat="40.1272379" lon="8.8159136"><ele>318.0</ele><time>2026-04-22T08:44:51Z</time></trkpt><trkpt lat="40.12724" lon="8.8157963"><ele>318.0</ele><time>2026-04-22T08:44:52Z</time></trkpt><trkpt lat="40.1272518" lon="8.8156787"><ele>318.0</ele><time>2026-04-22T08:44:53Z</time></trkpt><trkpt lat="40.1272917" lon="8.8155529"><ele>318.0</ele><time>2026-04-22T08:44:53.999Z</time></trkpt><trkpt lat="40.1274032" lon="8.8154009"><ele>318.0</ele><time>2026-04-22T08:44:54.999Z</time></trkpt><trkpt lat="40.1275286" lon="8.8152453"><ele>318.3333333333333</ele><time>2026-04-22T08:44:56Z</time></trkpt><trkpt lat="40.1276455" lon="8.8150787"><ele>318.66666666666663</ele><time>2026-04-22T08:44:56.999Z</time></trkpt><trkpt lat="40.1277509" lon="8.8149064"><ele>319.0</ele><time>2026-04-22T08:44:57.999Z</time></trkpt><trkpt lat="40.1278516" lon="8.8147346"><ele>319.0</ele><time>2026-04-22T08:44:59Z</time></trkpt><trkpt lat="40.1279516" lon="8.8145648"><ele>319.0</ele><time>2026-04-22T08:45:00Z</time></trkpt><trkpt lat="40.1280475" lon="8.8143904"><ele>319.0</ele><time>2026-04-22T08:45:00.999Z</time></trkpt><trkpt lat="40.1281443" lon="8.8142274"><ele>319.25</ele><time>2026-04-22T08:45:02Z</time></trkpt><trkpt lat="40.1282379" lon="8.8140728"><ele>319.5</ele><time>2026-04-22T08:45:03Z</time></trkpt><trkpt lat="40.1283283" lon="8.8139297"><ele>319.75</ele><time>2026-04-22T08:45:04Z</time></trkpt><trkpt lat="40.1284101" lon="8.8137955"><ele>320.0</ele><time>2026-04-22T08:45:04.999Z</time></trkpt><trkpt lat="40.1284844" lon="8.8136578"><ele>320.0</ele><time>2026-04-22T08:45:05.999Z</time></trkpt><trkpt lat="40.1285676" lon="8.8135071"><ele>320.0</ele><time>2026-04-22T08:45:06.999Z</time></trkpt><trkpt lat="40.1286598" lon="8.8133455"><ele>320.0</ele><time>2026-04-22T08:45:08Z</time></trkpt><trkpt lat="40.1287541" lon="8.8131741"><ele>319.33333333333337</ele><time>2026-04-22T08:45:08.999Z</time></trkpt><trkpt lat="40.1288452" lon="8.8129927"><ele>318.6666666666667</ele><time>2026-04-22T08:45:09.999Z</time></trkpt><trkpt lat="40.1289311" lon="8.8128053"><ele>318.0</ele><time>2026-04-22T08:45:10.999Z</time></trkpt><trkpt lat="40.1290138" lon="8.812611"><ele>319.3333333333333</ele><time>2026-04-22T08:45:12Z</time></trkpt><trkpt lat="40.1290925" lon="8.8124104"><ele>320.66666666666663</ele><time>2026-04-22T08:45:13Z</time></trkpt><trkpt lat="40.129166" lon="8.8122075"><ele>322.0</ele><time>2026-04-22T08:45:14Z</time></trkpt><trkpt lat="40.1292411" lon="8.8120072"><ele>321.66666666666663</ele><time>2026-04-22T08:45:14.999Z</time></trkpt><trkpt lat="40.1293209" lon="8.8118078"><ele>321.3333333333333</ele><time>2026-04-22T08:45:16Z</time></trkpt><trkpt lat="40.1294007" lon="8.8115974"><ele>321.0</ele><time>2026-04-22T08:45:16.999Z</time></trkpt><trkpt lat="40.1294796" lon="8.8113846"><ele>321.0</ele><time>2026-04-22T08:45:18Z</time></trkpt><trkpt lat="40.1295611" lon="8.8111712"><ele>321.0</ele><time>2026-04-22T08:45:19Z</time></trkpt><trkpt lat="40.1296418" lon="8.8109575"><ele>321.0</ele><time>2026-04-22T08:45:20Z</time></trkpt><trkpt lat="40.1297223" lon="8.8107443"><ele>321.0</ele><time>2026-04-22T08:45:21Z</time></trkpt><trkpt lat="40.1298069" lon="8.8105254"><ele>321.0</ele><time>2026-04-22T08:45:21.999Z</time></trkpt><trkpt lat="40.1298955" lon="8.810306"><ele>321.0</ele><time>2026-04-22T08:45:22.999Z</time></trkpt><trkpt lat="40.1299838" lon="8.8100862"><ele>322.0</ele><time>2026-04-22T08:45:23.999Z</time></trkpt><trkpt lat="40.1300701" lon="8.8098666"><ele>323.0</ele><time>2026-04-22T08:45:25Z</time></trkpt><trkpt lat="40.1301597" lon="8.8096431"><ele>324.0</ele><time>2026-04-22T08:45:25.999Z</time></trkpt><trkpt lat="40.1302478" lon="8.8094182"><ele>323.6666666666667</ele><time>2026-04-22T08:45:27Z</time></trkpt><trkpt lat="40.1303357" lon="8.8091867"><ele>323.33333333333337</ele><time>2026-04-22T08:45:28Z</time></trkpt><trkpt lat="40.1304255" lon="8.8089488"><ele>323.0</ele><time>2026-04-22T08:45:29Z</time></trkpt><trkpt lat="40.1305194" lon="8.8087079"><ele>323.0</ele><time>2026-04-22T08:45:29.999Z</time></trkpt><trkpt lat="40.1306147" lon="8.8084682"><ele>323.0</ele><time>2026-04-22T08:45:30.999Z</time></trkpt><trkpt lat="40.1307089" lon="8.8082357"><ele>323.0</ele><time>2026-04-22T08:45:31.999Z</time></trkpt><trkpt lat="40.1308056" lon="8.8079996"><ele>323.0</ele><time>2026-04-22T08:45:32.999Z</time></trkpt><trkpt lat="40.1309063" lon="8.8077639"><ele>323.0</ele><time>2026-04-22T08:45:34Z</time></trkpt><trkpt lat="40.1310145" lon="8.8075426"><ele>323.0</ele><time>2026-04-22T08:45:34.999Z</time></trkpt><trkpt lat="40.1311186" lon="8.8073173"><ele>322.6666666666667</ele><time>2026-04-22T08:45:36Z</time></trkpt><trkpt lat="40.1312136" lon="8.8070901"><ele>322.3333333333333</ele><time>2026-04-22T08:45:36.999Z</time></trkpt><trkpt lat="40.1313077" lon="8.8068732"><ele>322.0</ele><time>2026-04-22T08:45:37.999Z</time></trkpt><trkpt lat="40.1313987" lon="8.8066646"><ele>321.66666666666663</ele><time>2026-04-22T08:45:39Z</time></trkpt><trkpt lat="40.1314922" lon="8.8064546"><ele>321.3333333333333</ele><time>2026-04-22T08:45:40Z</time></trkpt><trkpt lat="40.1315848" lon="8.8062481"><ele>321.0</ele><time>2026-04-22T08:45:41Z</time></trkpt><trkpt lat="40.1316755" lon="8.8060393"><ele>322.0</ele><time>2026-04-22T08:45:41.999Z</time></trkpt><trkpt lat="40.1317666" lon="8.8058256"><ele>323.0</ele><time>2026-04-22T08:45:42.999Z</time></trkpt><trkpt lat="40.131857" lon="8.8056174"><ele>324.0</ele><time>2026-04-22T08:45:43.999Z</time></trkpt><trkpt lat="40.1319494" lon="8.8054168"><ele>324.0</ele><time>2026-04-22T08:45:44.999Z</time></trkpt><trkpt lat="40.1320432" lon="8.8052181"><ele>324.0</ele><time>2026-04-22T08:45:46Z</time></trkpt><trkpt lat="40.1321374" lon="8.8050066"><ele>324.0</ele><time>2026-04-22T08:45:46.999Z</time></trkpt><trkpt lat="40.1322238" lon="8.8047954"><ele>324.0</ele><time>2026-04-22T08:45:47.999Z</time></trkpt><trkpt lat="40.1322978" lon="8.8045813"><ele>324.0</ele><time>2026-04-22T08:45:49Z</time></trkpt><trkpt lat="40.1323611" lon="8.8043527"><ele>324.0</ele><time>2026-04-22T08:45:49.999Z</time></trkpt><trkpt lat="40.1324181" lon="8.8041171"><ele>324.6666666666667</ele><time>2026-04-22T08:45:50.999Z</time></trkpt><trkpt lat="40.132472" lon="8.8038759"><ele>325.33333333333337</ele><time>2026-04-22T08:45:52Z</time></trkpt><trkpt lat="40.1325265" lon="8.8036306"><ele>326.0</ele><time>2026-04-22T08:45:52.999Z</time></trkpt><trkpt lat="40.1325834" lon="8.8033857"><ele>326.33333333333337</ele><time>2026-04-22T08:45:53.999Z</time></trkpt><trkpt lat="40.132638" lon="8.8031398"><ele>326.6666666666667</ele><time>2026-04-22T08:45:54.999Z</time></trkpt><trkpt lat="40.1326896" lon="8.8028896"><ele>327.0</ele><time>2026-04-22T08:45:55.999Z</time></trkpt><trkpt lat="40.1327416" lon="8.8026421"><ele>327.0</ele><time>2026-04-22T08:45:57Z</time></trkpt><trkpt lat="40.1327989" lon="8.8024148"><ele>327.0</ele><time>2026-04-22T08:45:57.999Z</time></trkpt><trkpt lat="40.1328521" lon="8.8021792"><ele>327.0</ele><time>2026-04-22T08:45:58.999Z</time></trkpt><trkpt lat="40.132902" lon="8.8019386"><ele>327.0</ele><time>2026-04-22T08:45:59.999Z</time></trkpt><trkpt lat="40.1329526" lon="8.801693"><ele>327.0</ele><time>2026-04-22T08:46:01Z</time></trkpt><trkpt lat="40.1330157" lon="8.8014474"><ele>327.0</ele><time>2026-04-22T08:46:02Z</time></trkpt><trkpt lat="40.1330769" lon="8.8012119"><ele>327.0</ele><time>2026-04-22T08:46:02.999Z</time></trkpt><trkpt lat="40.1331322" lon="8.8009793"><ele>327.0</ele><time>2026-04-22T08:46:03.999Z</time></trkpt><trkpt lat="40.1331905" lon="8.8007385"><ele>327.0</ele><time>2026-04-22T08:46:05Z</time></trkpt><trkpt lat="40.133241" lon="8.8005101"><ele>327.0</ele><time>2026-04-22T08:46:05.999Z</time></trkpt><trkpt lat="40.1332849" lon="8.8003094"><ele>327.0</ele><time>2026-04-22T08:46:06.999Z</time></trkpt><trkpt lat="40.1333259" lon="8.8001132"><ele>327.0</ele><time>2026-04-22T08:46:07.999Z</time></trkpt><trkpt lat="40.1333754" lon="8.7999304"><ele>327.3333333333333</ele><time>2026-04-22T08:46:08.999Z</time></trkpt><trkpt lat="40.1333986" lon="8.7998167"><ele>327.6666666666667</ele><time>2026-04-22T08:46:10Z</time></trkpt><trkpt lat="40.1334164" lon="8.7997064"><ele>328.0</ele><time>2026-04-22T08:46:11Z</time></trkpt><trkpt lat="40.133434" lon="8.7996101"><ele>328.33333333333337</ele><time>2026-04-22T08:46:12Z</time></trkpt><trkpt lat="40.1334729" lon="8.7994877"><ele>328.6666666666667</ele><time>2026-04-22T08:46:13.999Z</time></trkpt><trkpt lat="40.1334293" lon="8.7994258"><ele>329.0</ele><time>2026-04-22T08:46:18.999Z</time></trkpt><trkpt lat="40.1333891" lon="8.7995142"><ele>329.0</ele><time>2026-04-22T08:46:22.999Z</time></trkpt><trkpt lat="40.1333858" lon="8.7997093"><ele>329.0</ele><time>2026-04-22T08:46:24.999Z</time></trkpt><trkpt lat="40.1333493" lon="8.7999165"><ele>329.0</ele><time>2026-04-22T08:46:25.999Z</time></trkpt><trkpt lat="40.1333621" lon="8.8000176"><ele>329.0</ele><time>2026-04-22T08:46:26.992Z</time></trkpt><trkpt lat="40.1334297" lon="8.800143"><ele>329.0</ele><time>2026-04-22T08:46:28.999Z</time></trkpt><trkpt lat="40.133476" lon="8.8002036"><ele>329.0</ele><time>2026-04-22T08:46:29.999Z</time></trkpt><trkpt lat="40.1335754" lon="8.800256"><ele>329.0</ele><time>2026-04-22T08:46:32Z</time></trkpt><trkpt lat="40.133678" lon="8.8001851"><ele>329.0</ele><time>2026-04-22T08:46:34Z</time></trkpt><trkpt lat="40.1337297" lon="8.8001298"><ele>329.0</ele><time>2026-04-22T08:46:35Z</time></trkpt><trkpt lat="40.1337849" lon="8.8000584"><ele>329.0</ele><time>2026-04-22T08:46:35.999Z</time></trkpt><trkpt lat="40.1338523" lon="8.7999858"><ele>329.0</ele><time>2026-04-22T08:46:36.999Z</time></trkpt><trkpt lat="40.1339209" lon="8.7999048"><ele>329.0</ele><time>2026-04-22T08:46:37.999Z</time></trkpt><trkpt lat="40.1339837" lon="8.7998331"><ele>329.0</ele><time>2026-04-22T08:46:38.999Z</time></trkpt><trkpt lat="40.1340503" lon="8.7997694"><ele>329.0</ele><time>2026-04-22T08:46:40Z</time></trkpt><trkpt lat="40.1341132" lon="8.7997037"><ele>329.0</ele><time>2026-04-22T08:46:40.999Z</time></trkpt><trkpt lat="40.1341757" lon="8.7996382"><ele>329.0</ele><time>2026-04-22T08:46:42Z</time></trkpt><trkpt lat="40.1342345" lon="8.7995738"><ele>329.1666666666667</ele><time>2026-04-22T08:46:42.999Z</time></trkpt><trkpt lat="40.1342877" lon="8.79951"><ele>329.33333333333337</ele><time>2026-04-22T08:46:43.999Z</time></trkpt><trkpt lat="40.1343377" lon="8.7994585"><ele>329.5</ele><time>2026-04-22T08:46:44.999Z</time></trkpt><trkpt lat="40.134429" lon="8.7994132"><ele>329.6666666666667</ele><time>2026-04-22T08:46:46.999Z</time></trkpt><trkpt lat="40.1345057" lon="8.799421"><ele>329.8333333333333</ele><time>2026-04-22T08:46:49Z</time></trkpt><trkpt lat="40.1345812" lon="8.7994101"><ele>330.0</ele><time>2026-04-22T08:47:13Z</time></trkpt><trkpt lat="40.1344855" lon="8.7994022"><ele>330.0</ele><time>2026-04-22T08:47:26.999Z</time></trkpt><trkpt lat="40.1344043" lon="8.7994182"><ele>330.0</ele><time>2026-04-22T08:47:28.999Z</time></trkpt><trkpt lat="40.1343257" lon="8.7994687"><ele>330.0</ele><time>2026-04-22T08:47:30.999Z</time></trkpt><trkpt lat="40.1342714" lon="8.7995309"><ele>330.0</ele><time>2026-04-22T08:47:33Z</time></trkpt><trkpt lat="40.1342029" lon="8.7996055"><ele>330.0</ele><time>2026-04-22T08:47:35.999Z</time></trkpt><trkpt lat="40.134131" lon="8.7996777"><ele>330.0</ele><time>2026-04-22T08:47:37.999Z</time></trkpt><trkpt lat="40.1340254" lon="8.7997813"><ele>329.8333333333333</ele><time>2026-04-22T08:47:39.999Z</time></trkpt><trkpt lat="40.1339651" lon="8.7998416"><ele>329.6666666666667</ele><time>2026-04-22T08:47:40.999Z</time></trkpt><trkpt lat="40.133905" lon="8.7998997"><ele>329.5</ele><time>2026-04-22T08:47:41.999Z</time></trkpt><trkpt lat="40.1338488" lon="8.7999523"><ele>329.33333333333337</ele><time>2026-04-22T08:47:42.999Z</time></trkpt><trkpt lat="40.1337953" lon="8.8000069"><ele>329.1666666666667</ele><time>2026-04-22T08:47:44Z</time></trkpt><trkpt lat="40.133704" lon="8.8001117"><ele>329.0</ele><time>2026-04-22T08:47:45.999Z</time></trkpt><trkpt lat="40.1336335" lon="8.8001817"><ele>329.0</ele><time>2026-04-22T08:48:18Z</time></trkpt><trkpt lat="40.13354" lon="8.8001766"><ele>329.0</ele><time>2026-04-22T08:48:19.999Z</time></trkpt><trkpt lat="40.1334704" lon="8.8001331"><ele>329.0</ele><time>2026-04-22T08:48:21.999Z</time></trkpt><trkpt lat="40.1334273" lon="8.8000711"><ele>329.0</ele><time>2026-04-22T08:48:24.999Z</time></trkpt><trkpt lat="40.1333866" lon="8.7999912"><ele>329.0</ele><time>2026-04-22T08:48:28Z</time></trkpt><trkpt lat="40.1333516" lon="8.7998961"><ele>329.0</ele><time>2026-04-22T08:48:31.999Z</time></trkpt><trkpt lat="40.1333738" lon="8.7997215"><ele>329.0</ele><time>2026-04-22T08:48:33.999Z</time></trkpt><trkpt lat="40.1334056" lon="8.7995631"><ele>329.0</ele><time>2026-04-22T08:48:34.999Z</time></trkpt><trkpt lat="40.1334401" lon="8.7993944"><ele>329.0</ele><time>2026-04-22T08:48:35.999Z</time></trkpt><trkpt lat="40.1334751" lon="8.7992268"><ele>329.0</ele><time>2026-04-22T08:48:37Z</time></trkpt><trkpt lat="40.133509" lon="8.7990713"><ele>329.0</ele><time>2026-04-22T08:48:37.993Z</time></trkpt><trkpt lat="40.1335392" lon="8.7989241"><ele>329.0</ele><time>2026-04-22T08:48:38.998Z</time></trkpt><trkpt lat="40.133571" lon="8.7987705"><ele>329.0</ele><time>2026-04-22T08:48:40Z</time></trkpt><trkpt lat="40.1336101" lon="8.7986118"><ele>329.0</ele><time>2026-04-22T08:48:40.999Z</time></trkpt><trkpt lat="40.1336486" lon="8.7984529"><ele>329.0</ele><time>2026-04-22T08:48:41.999Z</time></trkpt><trkpt lat="40.133686" lon="8.7982884"><ele>329.0</ele><time>2026-04-22T08:48:42.999Z</time></trkpt><trkpt lat="40.1337246" lon="8.7981165"><ele>329.0</ele><time>2026-04-22T08:48:44Z</time></trkpt><trkpt lat="40.1337658" lon="8.7979375"><ele>329.0</ele><time>2026-04-22T08:48:45Z</time></trkpt><trkpt lat="40.1338036" lon="8.7977623"><ele>328.75</ele><time>2026-04-22T08:48:45.999Z</time></trkpt><trkpt lat="40.1338372" lon="8.7975964"><ele>328.5</ele><time>2026-04-22T08:48:47Z</time></trkpt><trkpt lat="40.1338694" lon="8.7974419"><ele>328.25</ele><time>2026-04-22T08:48:48Z</time></trkpt><trkpt lat="40.1338994" lon="8.7972988"><ele>328.0</ele><time>2026-04-22T08:48:49Z</time></trkpt><trkpt lat="40.1339277" lon="8.7971639"><ele>328.0</ele><time>2026-04-22T08:48:49.999Z</time></trkpt><trkpt lat="40.1339576" lon="8.7970399"><ele>328.0</ele><time>2026-04-22T08:48:50.999Z</time></trkpt><trkpt lat="40.1339877" lon="8.7969153"><ele>328.0</ele><time>2026-04-22T08:48:51.999Z</time></trkpt><trkpt lat="40.1340109" lon="8.7967954"><ele>328.0</ele><time>2026-04-22T08:48:53Z</time></trkpt><trkpt lat="40.1340332" lon="8.7966875"><ele>328.0</ele><time>2026-04-22T08:48:53.999Z</time></trkpt><trkpt lat="40.134054" lon="8.7965922"><ele>328.0</ele><time>2026-04-22T08:48:54.999Z</time></trkpt><trkpt lat="40.1340974" lon="8.7964815"><ele>328.0</ele><time>2026-04-22T08:48:56.999Z</time></trkpt><trkpt lat="40.1342027" lon="8.7964449"><ele>328.0</ele><time>2026-04-22T08:48:59Z</time></trkpt><trkpt lat="40.1342831" lon="8.7964306"><ele>328.0</ele><time>2026-04-22T08:48:59.999Z</time></trkpt><trkpt lat="40.134366" lon="8.7964107"><ele>328.0</ele><time>2026-04-22T08:49:01Z</time></trkpt><trkpt lat="40.1344557" lon="8.7963844"><ele>327.99999999999994</ele><time>2026-04-22T08:49:01.999Z</time></trkpt><trkpt lat="40.1345394" lon="8.7963573"><ele>328.0</ele><time>2026-04-22T08:49:03Z</time></trkpt><trkpt lat="40.1346206" lon="8.7963446"><ele>328.0</ele><time>2026-04-22T08:49:04Z</time></trkpt><trkpt lat="40.1346974" lon="8.7963343"><ele>328.0</ele><time>2026-04-22T08:49:05Z</time></trkpt><trkpt lat="40.1347628" lon="8.7963282"><ele>328.0</ele><time>2026-04-22T08:49:06Z</time></trkpt><trkpt lat="40.1348282" lon="8.7963204"><ele>327.99999999999994</ele><time>2026-04-22T08:49:06.999Z</time></trkpt><trkpt lat="40.1348951" lon="8.7963301"><ele>328.0</ele><time>2026-04-22T08:49:07.999Z</time></trkpt><trkpt lat="40.1349603" lon="8.7963475"><ele>328.16666666666663</ele><time>2026-04-22T08:49:09Z</time></trkpt><trkpt lat="40.1350238" lon="8.7963739"><ele>328.3333333333333</ele><time>2026-04-22T08:49:09.999Z</time></trkpt><trkpt lat="40.135085" lon="8.7964091"><ele>328.5</ele><time>2026-04-22T08:49:10.999Z</time></trkpt><trkpt lat="40.1351868" lon="8.7964722"><ele>328.6666666666667</ele><time>2026-04-22T08:49:13Z</time></trkpt><trkpt lat="40.1352992" lon="8.7964958"><ele>328.83333333333337</ele><time>2026-04-22T08:49:14.999Z</time></trkpt><trkpt lat="40.1353623" lon="8.7964771"><ele>329.0</ele><time>2026-04-22T08:49:16Z</time></trkpt><trkpt lat="40.1354149" lon="8.7964045"><ele>329.0</ele><time>2026-04-22T08:49:16.999Z</time></trkpt><trkpt lat="40.1354606" lon="8.796296"><ele>329.0</ele><time>2026-04-22T08:49:18Z</time></trkpt><trkpt lat="40.1355012" lon="8.796171"><ele>329.0</ele><time>2026-04-22T08:49:18.999Z</time></trkpt><trkpt lat="40.1355404" lon="8.7960406"><ele>329.0</ele><time>2026-04-22T08:49:20Z</time></trkpt><trkpt lat="40.1355833" lon="8.7959126"><ele>329.0</ele><time>2026-04-22T08:49:21Z</time></trkpt><trkpt lat="40.1356218" lon="8.795784"><ele>328.75</ele><time>2026-04-22T08:49:21.999Z</time></trkpt><trkpt lat="40.1356637" lon="8.795652"><ele>328.5</ele><time>2026-04-22T08:49:22.999Z</time></trkpt><trkpt lat="40.1357073" lon="8.7955176"><ele>328.25</ele><time>2026-04-22T08:49:23.999Z</time></trkpt><trkpt lat="40.1357505" lon="8.7953746"><ele>328.0</ele><time>2026-04-22T08:49:25Z</time></trkpt><trkpt lat="40.1357995" lon="8.7952353"><ele>327.75</ele><time>2026-04-22T08:49:25.999Z</time></trkpt><trkpt lat="40.1358502" lon="8.7950882"><ele>327.5</ele><time>2026-04-22T08:49:26.999Z</time></trkpt><trkpt lat="40.1358968" lon="8.7949454"><ele>327.25</ele><time>2026-04-22T08:49:28Z</time></trkpt><trkpt lat="40.1359422" lon="8.7948186"><ele>327.0</ele><time>2026-04-22T08:49:29Z</time></trkpt><trkpt lat="40.1359942" lon="8.7946957"><ele>327.0</ele><time>2026-04-22T08:49:30Z</time></trkpt><trkpt lat="40.1360402" lon="8.7945754"><ele>327.0</ele><time>2026-04-22T08:49:30.999Z</time></trkpt><trkpt lat="40.1360696" lon="8.7944773"><ele>327.0</ele><time>2026-04-22T08:49:31.999Z</time></trkpt><trkpt lat="40.1360917" lon="8.7943786"><ele>327.0</ele><time>2026-04-22T08:49:32.999Z</time></trkpt><trkpt lat="40.1361099" lon="8.7942804"><ele>327.0</ele><time>2026-04-22T08:49:33.999Z</time></trkpt><trkpt lat="40.1361217" lon="8.7941757"><ele>327.0</ele><time>2026-04-22T08:49:35Z</time></trkpt><trkpt lat="40.1361368" lon="8.7940603"><ele>327.20000000000005</ele><time>2026-04-22T08:49:36Z</time></trkpt><trkpt lat="40.1361636" lon="8.7939416"><ele>327.4</ele><time>2026-04-22T08:49:37Z</time></trkpt><trkpt lat="40.1361909" lon="8.7938183"><ele>327.6</ele><time>2026-04-22T08:49:37.998Z</time></trkpt><trkpt lat="40.1362106" lon="8.7937009"><ele>327.79999999999995</ele><time>2026-04-22T08:49:38.999Z</time></trkpt><trkpt lat="40.1362368" lon="8.7935915"><ele>328.0</ele><time>2026-04-22T08:49:40Z</time></trkpt><trkpt lat="40.1362635" lon="8.793479"><ele>328.0</ele><time>2026-04-22T08:49:41Z</time></trkpt><trkpt lat="40.1362868" lon="8.7933702"><ele>328.0</ele><time>2026-04-22T08:49:41.999Z</time></trkpt><trkpt lat="40.1363129" lon="8.7932698"><ele>328.0</ele><time>2026-04-22T08:49:43Z</time></trkpt><trkpt lat="40.1363399" lon="8.7931703"><ele>328.0</ele><time>2026-04-22T08:49:44Z</time></trkpt><trkpt lat="40.1363633" lon="8.7930702"><ele>328.0</ele><time>2026-04-22T08:49:45Z</time></trkpt><trkpt lat="40.136373" lon="8.7929654"><ele>328.0</ele><time>2026-04-22T08:49:45.999Z</time></trkpt><trkpt lat="40.1363865" lon="8.7928631"><ele>328.0</ele><time>2026-04-22T08:49:47Z</time></trkpt><trkpt lat="40.1363972" lon="8.7927642"><ele>328.0</ele><time>2026-04-22T08:49:48Z</time></trkpt><trkpt lat="40.1364039" lon="8.7926202"><ele>328.0</ele><time>2026-04-22T08:49:49.999Z</time></trkpt><trkpt lat="40.1364228" lon="8.7924823"><ele>328.0</ele><time>2026-04-22T08:49:52.999Z</time></trkpt><trkpt lat="40.136452" lon="8.7923364"><ele>328.0</ele><time>2026-04-22T08:49:54.999Z</time></trkpt><trkpt lat="40.1364783" lon="8.7922107"><ele>328.0</ele><time>2026-04-22T08:49:56.999Z</time></trkpt><trkpt lat="40.1364736" lon="8.7921267"><ele>328.0</ele><time>2026-04-22T08:49:59.627Z</time></trkpt><trkpt lat="40.1365183" lon="8.7920271"><ele>328.0</ele><time>2026-04-22T08:50:01.735Z</time></trkpt><trkpt lat="40.1365506" lon="8.7919285"><ele>328.0</ele><time>2026-04-22T08:50:05.784Z</time></trkpt><trkpt lat="40.136574" lon="8.7918332"><ele>328.0</ele><time>2026-04-22T08:50:06.791Z</time></trkpt><trkpt lat="40.1366623" lon="8.7915232"><ele>328.3333333333333</ele><time>2026-04-22T08:50:07.995Z</time></trkpt><trkpt lat="40.1366935" lon="8.7914119"><ele>328.66666666666663</ele><time>2026-04-22T08:50:08.996Z</time></trkpt><trkpt lat="40.1367179" lon="8.7913177"><ele>329.0</ele><time>2026-04-22T08:50:10Z</time></trkpt><trkpt lat="40.136739" lon="8.791229"><ele>329.3333333333333</ele><time>2026-04-22T08:50:10.999Z</time></trkpt><trkpt lat="40.1367618" lon="8.7911364"><ele>329.6666666666667</ele><time>2026-04-22T08:50:11.999Z</time></trkpt><trkpt lat="40.1367868" lon="8.7910479"><ele>330.0</ele><time>2026-04-22T08:50:12.999Z</time></trkpt><trkpt lat="40.1368146" lon="8.7909639"><ele>330.0</ele><time>2026-04-22T08:50:14Z</time></trkpt><trkpt lat="40.1368393" lon="8.790882"><ele>330.0</ele><time>2026-04-22T08:50:15Z</time></trkpt><trkpt lat="40.1368773" lon="8.7907333"><ele>330.0</ele><time>2026-04-22T08:50:17Z</time></trkpt><trkpt lat="40.1369299" lon="8.7905756"><ele>330.0</ele><time>2026-04-22T08:50:19Z</time></trkpt><trkpt lat="40.1369533" lon="8.7904839"><ele>330.0</ele><time>2026-04-22T08:50:19.999Z</time></trkpt><trkpt lat="40.1369776" lon="8.7903933"><ele>330.0</ele><time>2026-04-22T08:50:20.999Z</time></trkpt><trkpt lat="40.1370195" lon="8.7902455"><ele>330.0</ele><time>2026-04-22T08:50:22.998Z</time></trkpt><trkpt lat="40.1370354" lon="8.7900983"><ele>330.0</ele><time>2026-04-22T08:50:24.999Z</time></trkpt><trkpt lat="40.1370247" lon="8.7899331"><ele>330.0</ele><time>2026-04-22T08:50:26.999Z</time></trkpt><trkpt lat="40.1370183" lon="8.7898504"><ele>330.0</ele><time>2026-04-22T08:50:27.998Z</time></trkpt><trkpt lat="40.1370211" lon="8.7897114"><ele>330.2</ele><time>2026-04-22T08:50:29.999Z</time></trkpt><trkpt lat="40.1370115" lon="8.7895792"><ele>330.4</ele><time>2026-04-22T08:50:31.999Z</time></trkpt><trkpt lat="40.1369578" lon="8.789434"><ele>330.6</ele><time>2026-04-22T08:50:34Z</time></trkpt><trkpt lat="40.1369093" lon="8.7893349"><ele>330.8</ele><time>2026-04-22T08:50:35Z</time></trkpt><trkpt lat="40.1368634" lon="8.7892389"><ele>331.0</ele><time>2026-04-22T08:50:35.999Z</time></trkpt><trkpt lat="40.1368114" lon="8.7891198"><ele>331.20000000000005</ele><time>2026-04-22T08:50:36.999Z</time></trkpt><trkpt lat="40.1367658" lon="8.7890014"><ele>331.40000000000003</ele><time>2026-04-22T08:50:37.999Z</time></trkpt><trkpt lat="40.1367252" lon="8.7888897"><ele>331.6</ele><time>2026-04-22T08:50:39Z</time></trkpt><trkpt lat="40.1366961" lon="8.7887806"><ele>331.8</ele><time>2026-04-22T08:50:39.999Z</time></trkpt><trkpt lat="40.1366778" lon="8.7886644"><ele>332.0</ele><time>2026-04-22T08:50:40.999Z</time></trkpt><trkpt lat="40.1366554" lon="8.7885478"><ele>332.20000000000005</ele><time>2026-04-22T08:50:41.999Z</time></trkpt><trkpt lat="40.1366289" lon="8.788432"><ele>332.4</ele><time>2026-04-22T08:50:42.999Z</time></trkpt><trkpt lat="40.1366037" lon="8.7883201"><ele>332.6</ele><time>2026-04-22T08:50:43.999Z</time></trkpt><trkpt lat="40.1365823" lon="8.7882009"><ele>332.79999999999995</ele><time>2026-04-22T08:50:44.999Z</time></trkpt><trkpt lat="40.1365484" lon="8.7880792"><ele>333.0</ele><time>2026-04-22T08:50:46Z</time></trkpt><trkpt lat="40.1365208" lon="8.787959"><ele>333.0</ele><time>2026-04-22T08:50:46.999Z</time></trkpt><trkpt lat="40.136494" lon="8.7878325"><ele>333.0</ele><time>2026-04-22T08:50:47.999Z</time></trkpt><trkpt lat="40.1364854" lon="8.7877054"><ele>333.0</ele><time>2026-04-22T08:50:48.999Z</time></trkpt><trkpt lat="40.136472" lon="8.7875894"><ele>333.0</ele><time>2026-04-22T08:50:50Z</time></trkpt><trkpt lat="40.1364536" lon="8.7874763"><ele>333.0</ele><time>2026-04-22T08:50:50.999Z</time></trkpt><trkpt lat="40.1364415" lon="8.7873667"><ele>333.0</ele><time>2026-04-22T08:50:52Z</time></trkpt><trkpt lat="40.1364401" lon="8.7872632"><ele>333.0</ele><time>2026-04-22T08:50:52.999Z</time></trkpt><trkpt lat="40.1364434" lon="8.7871735"><ele>333.0</ele><time>2026-04-22T08:50:53.999Z</time></trkpt><trkpt lat="40.1364456" lon="8.787082"><ele>333.0</ele><time>2026-04-22T08:50:54.997Z</time></trkpt><trkpt lat="40.1364405" lon="8.7869997"><ele>333.0</ele><time>2026-04-22T08:50:55.999Z</time></trkpt><trkpt lat="40.1364375" lon="8.786901"><ele>333.0</ele><time>2026-04-22T08:50:57.999Z</time></trkpt><trkpt lat="40.1365868" lon="8.7868606"><ele>333.0</ele><time>2026-04-22T08:51:16.999Z</time></trkpt><trkpt lat="40.1366782" lon="8.7868381"><ele>333.0</ele><time>2026-04-22T08:51:18Z</time></trkpt><trkpt lat="40.1367747" lon="8.7868004"><ele>333.0</ele><time>2026-04-22T08:51:18.999Z</time></trkpt><trkpt lat="40.1368707" lon="8.7867689"><ele>333.0</ele><time>2026-04-22T08:51:19.999Z</time></trkpt><trkpt lat="40.1369649" lon="8.7867402"><ele>333.0</ele><time>2026-04-22T08:51:20.999Z</time></trkpt><trkpt lat="40.1370598" lon="8.786716"><ele>333.0</ele><time>2026-04-22T08:51:21.999Z</time></trkpt><trkpt lat="40.1371526" lon="8.7866931"><ele>333.0</ele><time>2026-04-22T08:51:22.999Z</time></trkpt><trkpt lat="40.1372437" lon="8.7866773"><ele>333.0</ele><time>2026-04-22T08:51:23.999Z</time></trkpt><trkpt lat="40.1373238" lon="8.7866589"><ele>333.0</ele><time>2026-04-22T08:51:25Z</time></trkpt><trkpt lat="40.1374027" lon="8.786638"><ele>333.0</ele><time>2026-04-22T08:51:26Z</time></trkpt><trkpt lat="40.1374873" lon="8.7866097"><ele>333.0</ele><time>2026-04-22T08:51:26.999Z</time></trkpt><trkpt lat="40.1375705" lon="8.7865739"><ele>333.2</ele><time>2026-04-22T08:51:28Z</time></trkpt><trkpt lat="40.1376536" lon="8.7865292"><ele>333.4</ele><time>2026-04-22T08:51:28.999Z</time></trkpt><trkpt lat="40.1377384" lon="8.786471"><ele>333.59999999999997</ele><time>2026-04-22T08:51:29.999Z</time></trkpt><trkpt lat="40.1378296" lon="8.7864077"><ele>333.79999999999995</ele><time>2026-04-22T08:51:30.999Z</time></trkpt><trkpt lat="40.1379219" lon="8.7863408"><ele>334.0</ele><time>2026-04-22T08:51:31.999Z</time></trkpt><trkpt lat="40.138018" lon="8.7862701"><ele>334.0</ele><time>2026-04-22T08:51:32.999Z</time></trkpt><trkpt lat="40.1381193" lon="8.7862017"><ele>334.0</ele><time>2026-04-22T08:51:33.999Z</time></trkpt><trkpt lat="40.1382182" lon="8.7861478"><ele>334.0</ele><time>2026-04-22T08:51:35Z</time></trkpt><trkpt lat="40.1383094" lon="8.7860952"><ele>334.0</ele><time>2026-04-22T08:51:36Z</time></trkpt><trkpt lat="40.1384023" lon="8.7860343"><ele>334.0</ele><time>2026-04-22T08:51:37Z</time></trkpt><trkpt lat="40.1385074" lon="8.78596"><ele>334.4</ele><time>2026-04-22T08:51:37.999Z</time></trkpt><trkpt lat="40.1386042" lon="8.7858931"><ele>334.79999999999995</ele><time>2026-04-22T08:51:38.999Z</time></trkpt><trkpt lat="40.138694" lon="8.7858315"><ele>335.20000000000005</ele><time>2026-04-22T08:51:39.999Z</time></trkpt><trkpt lat="40.1387844" lon="8.7857686"><ele>335.6</ele><time>2026-04-22T08:51:41Z</time></trkpt><trkpt lat="40.1388778" lon="8.7857145"><ele>336.0</ele><time>2026-04-22T08:51:41.999Z</time></trkpt><trkpt lat="40.1389687" lon="8.7856662"><ele>336.0</ele><time>2026-04-22T08:51:42.999Z</time></trkpt><trkpt lat="40.1390593" lon="8.7856265"><ele>336.0</ele><time>2026-04-22T08:51:43.999Z</time></trkpt><trkpt lat="40.1391546" lon="8.7855847"><ele>336.0</ele><time>2026-04-22T08:51:44.999Z</time></trkpt><trkpt lat="40.1392537" lon="8.7855467"><ele>336.0</ele><time>2026-04-22T08:51:46Z</time></trkpt><trkpt lat="40.1393489" lon="8.7855055"><ele>336.0</ele><time>2026-04-22T08:51:46.999Z</time></trkpt><trkpt lat="40.1394406" lon="8.7854544"><ele>336.0</ele><time>2026-04-22T08:51:48Z</time></trkpt><trkpt lat="40.1395164" lon="8.7854181"><ele>336.0</ele><time>2026-04-22T08:51:48.999Z</time></trkpt><trkpt lat="40.1396029" lon="8.7853818"><ele>336.0</ele><time>2026-04-22T08:51:50Z</time></trkpt><trkpt lat="40.1396886" lon="8.785348"><ele>336.0</ele><time>2026-04-22T08:51:50.998Z</time></trkpt><trkpt lat="40.1397811" lon="8.7853186"><ele>336.0</ele><time>2026-04-22T08:51:51.999Z</time></trkpt><trkpt lat="40.1398736" lon="8.7852828"><ele>336.20000000000005</ele><time>2026-04-22T08:51:53Z</time></trkpt><trkpt lat="40.1399735" lon="8.7852579"><ele>336.40000000000003</ele><time>2026-04-22T08:51:53.999Z</time></trkpt><trkpt lat="40.1400748" lon="8.7852314"><ele>336.6</ele><time>2026-04-22T08:51:54.999Z</time></trkpt><trkpt lat="40.1401746" lon="8.785204"><ele>336.8</ele><time>2026-04-22T08:51:55.999Z</time></trkpt><trkpt lat="40.1402708" lon="8.7851697"><ele>337.0</ele><time>2026-04-22T08:51:56.995Z</time></trkpt><trkpt lat="40.1403801" lon="8.7851098"><ele>337.20000000000005</ele><time>2026-04-22T08:51:57.999Z</time></trkpt><trkpt lat="40.1404868" lon="8.7850477"><ele>337.4</ele><time>2026-04-22T08:51:59Z</time></trkpt><trkpt lat="40.1405828" lon="8.7849863"><ele>337.6</ele><time>2026-04-22T08:51:59.999Z</time></trkpt><trkpt lat="40.1406794" lon="8.7849219"><ele>337.79999999999995</ele><time>2026-04-22T08:52:00.997Z</time></trkpt><trkpt lat="40.1407808" lon="8.7848523"><ele>338.0</ele><time>2026-04-22T08:52:01.999Z</time></trkpt><trkpt lat="40.1408864" lon="8.7847796"><ele>338.0</ele><time>2026-04-22T08:52:03Z</time></trkpt><trkpt lat="40.1409889" lon="8.7847007"><ele>338.0</ele><time>2026-04-22T08:52:04Z</time></trkpt><trkpt lat="40.1410838" lon="8.7846223"><ele>338.0</ele><time>2026-04-22T08:52:05Z</time></trkpt><trkpt lat="40.1411838" lon="8.7845311"><ele>338.0</ele><time>2026-04-22T08:52:06Z</time></trkpt><trkpt lat="40.1412845" lon="8.7844354"><ele>338.25</ele><time>2026-04-22T08:52:06.999Z</time></trkpt><trkpt lat="40.1413813" lon="8.7843417"><ele>338.5</ele><time>2026-04-22T08:52:07.999Z</time></trkpt><trkpt lat="40.1414684" lon="8.7842479"><ele>338.75</ele><time>2026-04-22T08:52:09Z</time></trkpt><trkpt lat="40.1415558" lon="8.7841518"><ele>339.0</ele><time>2026-04-22T08:52:09.999Z</time></trkpt><trkpt lat="40.1416363" lon="8.7840525"><ele>339.0</ele><time>2026-04-22T08:52:11Z</time></trkpt><trkpt lat="40.1417105" lon="8.7839571"><ele>339.0</ele><time>2026-04-22T08:52:12Z</time></trkpt><trkpt lat="40.141792" lon="8.7838687"><ele>339.0</ele><time>2026-04-22T08:52:12.999Z</time></trkpt><trkpt lat="40.1418735" lon="8.7837726"><ele>339.0</ele><time>2026-04-22T08:52:13.999Z</time></trkpt><trkpt lat="40.1419516" lon="8.7836915"><ele>339.0</ele><time>2026-04-22T08:52:14.999Z</time></trkpt><trkpt lat="40.1420316" lon="8.7836133"><ele>339.0</ele><time>2026-04-22T08:52:16Z</time></trkpt><trkpt lat="40.1421081" lon="8.783531"><ele>339.0</ele><time>2026-04-22T08:52:16.999Z</time></trkpt><trkpt lat="40.1421848" lon="8.7834422"><ele>339.0</ele><time>2026-04-22T08:52:18Z</time></trkpt><trkpt lat="40.1422617" lon="8.7833528"><ele>339.0</ele><time>2026-04-22T08:52:19Z</time></trkpt><trkpt lat="40.1423389" lon="8.7832604"><ele>339.0</ele><time>2026-04-22T08:52:19.999Z</time></trkpt><trkpt lat="40.1424158" lon="8.7831669"><ele>339.0</ele><time>2026-04-22T08:52:20.998Z</time></trkpt><trkpt lat="40.1424893" lon="8.7830741"><ele>339.0</ele><time>2026-04-22T08:52:21.999Z</time></trkpt><trkpt lat="40.1425544" lon="8.7829589"><ele>339.0</ele><time>2026-04-22T08:52:22.999Z</time></trkpt><trkpt lat="40.1426245" lon="8.7828322"><ele>339.0</ele><time>2026-04-22T08:52:23.999Z</time></trkpt><trkpt lat="40.1426942" lon="8.7827085"><ele>339.0</ele><time>2026-04-22T08:52:25Z</time></trkpt><trkpt lat="40.1427533" lon="8.7825936"><ele>339.2</ele><time>2026-04-22T08:52:26Z</time></trkpt><trkpt lat="40.142811" lon="8.7824786"><ele>339.4</ele><time>2026-04-22T08:52:26.995Z</time></trkpt><trkpt lat="40.142862" lon="8.7823596"><ele>339.6</ele><time>2026-04-22T08:52:27.999Z</time></trkpt><trkpt lat="40.142916" lon="8.7822282"><ele>339.8</ele><time>2026-04-22T08:52:29Z</time></trkpt><trkpt lat="40.1429701" lon="8.7820959"><ele>340.0</ele><time>2026-04-22T08:52:29.999Z</time></trkpt><trkpt lat="40.1430195" lon="8.7819607"><ele>340.0</ele><time>2026-04-22T08:52:30.999Z</time></trkpt><trkpt lat="40.143065" lon="8.7818333"><ele>340.0</ele><time>2026-04-22T08:52:32Z</time></trkpt><trkpt lat="40.1431087" lon="8.7817085"><ele>340.0</ele><time>2026-04-22T08:52:32.999Z</time></trkpt><trkpt lat="40.1431558" lon="8.7815765"><ele>340.0</ele><time>2026-04-22T08:52:34Z</time></trkpt><trkpt lat="40.1431972" lon="8.7814513"><ele>340.0</ele><time>2026-04-22T08:52:34.999Z</time></trkpt><trkpt lat="40.1432359" lon="8.7813115"><ele>340.0</ele><time>2026-04-22T08:52:35.999Z</time></trkpt><trkpt lat="40.1432705" lon="8.7811735"><ele>340.0</ele><time>2026-04-22T08:52:37Z</time></trkpt><trkpt lat="40.1432963" lon="8.7810435"><ele>340.0</ele><time>2026-04-22T08:52:38Z</time></trkpt><trkpt lat="40.1433372" lon="8.7809015"><ele>340.0</ele><time>2026-04-22T08:52:38.999Z</time></trkpt><trkpt lat="40.1433688" lon="8.7807604"><ele>340.0</ele><time>2026-04-22T08:52:39.999Z</time></trkpt><trkpt lat="40.1433926" lon="8.7806184"><ele>340.0</ele><time>2026-04-22T08:52:40.999Z</time></trkpt><trkpt lat="40.143417" lon="8.7804766"><ele>340.0</ele><time>2026-04-22T08:52:42Z</time></trkpt><trkpt lat="40.1434419" lon="8.7803285"><ele>340.0</ele><time>2026-04-22T08:52:42.999Z</time></trkpt><trkpt lat="40.1434665" lon="8.780188"><ele>340.0</ele><time>2026-04-22T08:52:44Z</time></trkpt><trkpt lat="40.1434922" lon="8.7800506"><ele>340.0</ele><time>2026-04-22T08:52:45Z</time></trkpt><trkpt lat="40.1435178" lon="8.7799251"><ele>340.0</ele><time>2026-04-22T08:52:45.999Z</time></trkpt><trkpt lat="40.1435424" lon="8.7798146"><ele>340.0</ele><time>2026-04-22T08:52:46.999Z</time></trkpt><trkpt lat="40.143568" lon="8.7797076"><ele>340.0</ele><time>2026-04-22T08:52:47.999Z</time></trkpt><trkpt lat="40.1436046" lon="8.779617"><ele>340.0</ele><time>2026-04-22T08:52:49Z</time></trkpt><trkpt lat="40.1436503" lon="8.7795307"><ele>340.0</ele><time>2026-04-22T08:52:49.999Z</time></trkpt><trkpt lat="40.1437025" lon="8.7794506"><ele>340.0</ele><time>2026-04-22T08:52:50.999Z</time></trkpt><trkpt lat="40.1437485" lon="8.7793754"><ele>340.16666666666663</ele><time>2026-04-22T08:52:51.999Z</time></trkpt><trkpt lat="40.1437901" lon="8.7793058"><ele>340.3333333333333</ele><time>2026-04-22T08:52:53Z</time></trkpt><trkpt lat="40.1438365" lon="8.7792371"><ele>340.5</ele><time>2026-04-22T08:52:53.999Z</time></trkpt><trkpt lat="40.1438944" lon="8.7791672"><ele>340.6666666666667</ele><time>2026-04-22T08:52:55Z</time></trkpt><trkpt lat="40.1439527" lon="8.7791114"><ele>340.83333333333337</ele><time>2026-04-22T08:52:56Z</time></trkpt><trkpt lat="40.1440489" lon="8.7790318"><ele>341.0</ele><time>2026-04-22T08:52:58Z</time></trkpt><trkpt lat="40.1441351" lon="8.7789522"><ele>341.1666666666667</ele><time>2026-04-22T08:53:00Z</time></trkpt><trkpt lat="40.1442113" lon="8.7788577"><ele>341.33333333333337</ele><time>2026-04-22T08:53:02Z</time></trkpt><trkpt lat="40.1443025" lon="8.7787594"><ele>341.5</ele><time>2026-04-22T08:53:03.999Z</time></trkpt><trkpt lat="40.1443579" lon="8.7787006"><ele>341.6666666666667</ele><time>2026-04-22T08:53:04.999Z</time></trkpt><trkpt lat="40.1444109" lon="8.7786436"><ele>341.8333333333333</ele><time>2026-04-22T08:53:05.999Z</time></trkpt><trkpt lat="40.1444731" lon="8.778597"><ele>342.0</ele><time>2026-04-22T08:53:07Z</time></trkpt><trkpt lat="40.1445249" lon="8.7785488"><ele>342.3333333333333</ele><time>2026-04-22T08:53:08Z</time></trkpt><trkpt lat="40.1445864" lon="8.7784988"><ele>342.6666666666667</ele><time>2026-04-22T08:53:09Z</time></trkpt><trkpt lat="40.1446527" lon="8.7784463"><ele>343.0</ele><time>2026-04-22T08:53:09.999Z</time></trkpt><trkpt lat="40.1447146" lon="8.778397"><ele>343.33333333333337</ele><time>2026-04-22T08:53:11Z</time></trkpt><trkpt lat="40.1447677" lon="8.7783374"><ele>343.6666666666667</ele><time>2026-04-22T08:53:12Z</time></trkpt><trkpt lat="40.1448159" lon="8.7782772"><ele>344.0</ele><time>2026-04-22T08:53:12.999Z</time></trkpt><trkpt lat="40.1448972" lon="8.7781812"><ele>344.1666666666667</ele><time>2026-04-22T08:53:14.999Z</time></trkpt><trkpt lat="40.1449666" lon="8.7781103"><ele>344.33333333333337</ele><time>2026-04-22T08:53:16.999Z</time></trkpt><trkpt lat="40.1450289" lon="8.7780769"><ele>344.5</ele><time>2026-04-22T08:53:19Z</time></trkpt><trkpt lat="40.1450848" lon="8.7780213"><ele>344.6666666666667</ele><time>2026-04-22T08:53:22.999Z</time></trkpt><trkpt lat="40.1451226" lon="8.7779036"><ele>344.8333333333333</ele><time>2026-04-22T08:53:24.999Z</time></trkpt><trkpt lat="40.1451714" lon="8.7778051"><ele>345.0</ele><time>2026-04-22T08:53:25.988Z</time></trkpt><trkpt lat="40.1451834" lon="8.7776981"><ele>345.25</ele><time>2026-04-22T08:53:26.993Z</time></trkpt><trkpt lat="40.1451531" lon="8.7775523"><ele>345.5</ele><time>2026-04-22T08:53:29Z</time></trkpt><trkpt lat="40.1451096" lon="8.7774167"><ele>345.75</ele><time>2026-04-22T08:53:30.999Z</time></trkpt><trkpt lat="40.14509" lon="8.7772702"><ele>346.0</ele><time>2026-04-22T08:53:32.999Z</time></trkpt><trkpt lat="40.1451088" lon="8.7771162"><ele>346.0</ele><time>2026-04-22T08:53:35Z</time></trkpt><trkpt lat="40.1451382" lon="8.7769773"><ele>346.0</ele><time>2026-04-22T08:53:36.999Z</time></trkpt><trkpt lat="40.1451661" lon="8.7769004"><ele>346.0</ele><time>2026-04-22T08:53:37.999Z</time></trkpt><trkpt lat="40.1451943" lon="8.7768191"><ele>346.0</ele><time>2026-04-22T08:53:38.998Z</time></trkpt><trkpt lat="40.1452382" lon="8.7767064"><ele>346.0</ele><time>2026-04-22T08:53:41Z</time></trkpt><trkpt lat="40.1452712" lon="8.7765899"><ele>346.0</ele><time>2026-04-22T08:53:42.999Z</time></trkpt><trkpt lat="40.1453063" lon="8.7765168"><ele>346.5</ele><time>2026-04-22T08:53:43.999Z</time></trkpt><trkpt lat="40.1453736" lon="8.7764021"><ele>347.0</ele><time>2026-04-22T08:53:45.999Z</time></trkpt><trkpt lat="40.1454501" lon="8.7762925"><ele>347.5</ele><time>2026-04-22T08:53:47.999Z</time></trkpt><trkpt lat="40.1455139" lon="8.7761769"><ele>348.0</ele><time>2026-04-22T08:53:49.999Z</time></trkpt><trkpt lat="40.1455733" lon="8.7760297"><ele>348.0</ele><time>2026-04-22T08:53:52Z</time></trkpt><trkpt lat="40.145613" lon="8.7759548"><ele>348.0</ele><time>2026-04-22T08:53:52.999Z</time></trkpt><trkpt lat="40.145676" lon="8.7758358"><ele>348.0</ele><time>2026-04-22T08:53:54.999Z</time></trkpt><trkpt lat="40.145719" lon="8.7756917"><ele>348.0</ele><time>2026-04-22T08:53:57Z</time></trkpt><trkpt lat="40.1457491" lon="8.7755551"><ele>348.0</ele><time>2026-04-22T08:53:58.999Z</time></trkpt><trkpt lat="40.1457724" lon="8.7754217"><ele>348.59999999999997</ele><time>2026-04-22T08:54:00.999Z</time></trkpt><trkpt lat="40.1458021" lon="8.7752588"><ele>349.2</ele><time>2026-04-22T08:54:03Z</time></trkpt><trkpt lat="40.1458209" lon="8.7751149"><ele>349.8</ele><time>2026-04-22T08:54:05Z</time></trkpt><trkpt lat="40.1458425" lon="8.7749857"><ele>350.4</ele><time>2026-04-22T08:54:06.999Z</time></trkpt><trkpt lat="40.1458703" lon="8.7748743"><ele>351.0</ele><time>2026-04-22T08:54:09.999Z</time></trkpt><trkpt lat="40.1459" lon="8.774776"><ele>351.1666666666667</ele><time>2026-04-22T08:54:13Z</time></trkpt><trkpt lat="40.1459563" lon="8.7746506"><ele>351.3333333333333</ele><time>2026-04-22T08:54:18.631Z</time></trkpt><trkpt lat="40.1459937" lon="8.7745628"><ele>351.5</ele><time>2026-04-22T08:54:20.645Z</time></trkpt><trkpt lat="40.146021" lon="8.7744734"><ele>351.66666666666663</ele><time>2026-04-22T08:54:22.681Z</time></trkpt><trkpt lat="40.146034" lon="8.7743811"><ele>351.8333333333333</ele><time>2026-04-22T08:54:24.734Z</time></trkpt><trkpt lat="40.1460443" lon="8.7742903"><ele>352.0</ele><time>2026-04-22T08:54:26.748Z</time></trkpt><trkpt lat="40.1460488" lon="8.7741634"><ele>352.16666666666663</ele><time>2026-04-22T08:54:29.771Z</time></trkpt><trkpt lat="40.1460626" lon="8.77408"><ele>352.3333333333333</ele><time>2026-04-22T08:54:31.837Z</time></trkpt><trkpt lat="40.1460716" lon="8.7739769"><ele>352.5</ele><time>2026-04-22T08:54:33.85Z</time></trkpt><trkpt lat="40.1460924" lon="8.7738728"><ele>352.6666666666667</ele><time>2026-04-22T08:54:35.864Z</time></trkpt><trkpt lat="40.1461314" lon="8.7737641"><ele>352.83333333333337</ele><time>2026-04-22T08:54:37.899Z</time></trkpt><trkpt lat="40.1461688" lon="8.7736777"><ele>353.0</ele><time>2026-04-22T08:54:39.954Z</time></trkpt><trkpt lat="40.1462328" lon="8.7735747"><ele>352.79999999999995</ele><time>2026-04-22T08:54:41.966Z</time></trkpt><trkpt lat="40.1462886" lon="8.7734655"><ele>352.6</ele><time>2026-04-22T08:54:44Z</time></trkpt><trkpt lat="40.1463402" lon="8.7733974"><ele>352.4</ele><time>2026-04-22T08:54:45.027Z</time></trkpt><trkpt lat="40.1464099" lon="8.7732955"><ele>352.20000000000005</ele><time>2026-04-22T08:54:47.041Z</time></trkpt><trkpt lat="40.1464355" lon="8.7731596"><ele>352.0</ele><time>2026-04-22T08:54:49.055Z</time></trkpt><trkpt lat="40.1464301" lon="8.7730698"><ele>352.0</ele><time>2026-04-22T08:54:51.09Z</time></trkpt><trkpt lat="40.1463863" lon="8.7729164"><ele>352.0</ele><time>2026-04-22T08:54:53.104Z</time></trkpt><trkpt lat="40.1463542" lon="8.7728428"><ele>352.0</ele><time>2026-04-22T08:54:54.111Z</time></trkpt><trkpt lat="40.1463046" lon="8.772732"><ele>352.0</ele><time>2026-04-22T08:54:55.999Z</time></trkpt><trkpt lat="40.1462805" lon="8.7726558"><ele>352.0</ele><time>2026-04-22T08:54:56.999Z</time></trkpt><trkpt lat="40.1462673" lon="8.7725131"><ele>352.0</ele><time>2026-04-22T08:54:58.999Z</time></trkpt><trkpt lat="40.146288" lon="8.7723674"><ele>352.0</ele><time>2026-04-22T08:55:01Z</time></trkpt><trkpt lat="40.1462956" lon="8.772215"><ele>352.0</ele><time>2026-04-22T08:55:03Z</time></trkpt><trkpt lat="40.1462665" lon="8.7721146"><ele>352.0</ele><time>2026-04-22T08:55:05.079Z</time></trkpt><trkpt lat="40.1463063" lon="8.7720353"><ele>352.0</ele><time>2026-04-22T08:55:07.112Z</time></trkpt><trkpt lat="40.1463965" lon="8.771981"><ele>352.0</ele><time>2026-04-22T08:55:09.63Z</time></trkpt><trkpt lat="40.1465421" lon="8.7719565"><ele>352.0</ele><time>2026-04-22T08:55:11.999Z</time></trkpt><trkpt lat="40.1466149" lon="8.7719237"><ele>352.0</ele><time>2026-04-22T08:55:13Z</time></trkpt><trkpt lat="40.1466846" lon="8.7718858"><ele>352.0</ele><time>2026-04-22T08:55:13.999Z</time></trkpt><trkpt lat="40.1467457" lon="8.7718438"><ele>352.0</ele><time>2026-04-22T08:55:14.999Z</time></trkpt><trkpt lat="40.1468056" lon="8.7717968"><ele>352.0</ele><time>2026-04-22T08:55:16Z</time></trkpt><trkpt lat="40.1468658" lon="8.7717476"><ele>352.6</ele><time>2026-04-22T08:55:16.999Z</time></trkpt><trkpt lat="40.1469215" lon="8.7716988"><ele>353.20000000000005</ele><time>2026-04-22T08:55:18Z</time></trkpt><trkpt lat="40.1470098" lon="8.7715996"><ele>353.8</ele><time>2026-04-22T08:55:19.999Z</time></trkpt><trkpt lat="40.1470753" lon="8.7714904"><ele>354.4</ele><time>2026-04-22T08:55:21.999Z</time></trkpt><trkpt lat="40.1471255" lon="8.7713923"><ele>355.0</ele><time>2026-04-22T08:55:24Z</time></trkpt><trkpt lat="40.1471872" lon="8.7713291"><ele>355.0</ele><time>2026-04-22T08:55:26.999Z</time></trkpt><trkpt lat="40.1472395" lon="8.7712419"><ele>355.0</ele><time>2026-04-22T08:55:31.081Z</time></trkpt><trkpt lat="40.147172" lon="8.7713215"><ele>355.0</ele><time>2026-04-22T08:55:49.832Z</time></trkpt><trkpt lat="40.1471108" lon="8.7713864"><ele>355.0</ele><time>2026-04-22T08:55:52.854Z</time></trkpt><trkpt lat="40.1470716" lon="8.7714743"><ele>355.0</ele><time>2026-04-22T08:55:56.922Z</time></trkpt><trkpt lat="40.1470259" lon="8.7715549"><ele>355.0</ele><time>2026-04-22T08:55:59.943Z</time></trkpt><trkpt lat="40.1469646" lon="8.7716213"><ele>355.0</ele><time>2026-04-22T08:56:02.058Z</time></trkpt><trkpt lat="40.1468858" lon="8.7716911"><ele>355.0</ele><time>2026-04-22T08:56:04.577Z</time></trkpt><trkpt lat="40.1467553" lon="8.7717907"><ele>355.0</ele><time>2026-04-22T08:56:06.999Z</time></trkpt><trkpt lat="40.1466782" lon="8.7718384"><ele>355.0</ele><time>2026-04-22T08:56:08Z</time></trkpt><trkpt lat="40.1465809" lon="8.7718967"><ele>355.0</ele><time>2026-04-22T08:56:08.999Z</time></trkpt><trkpt lat="40.1464938" lon="8.7719495"><ele>354.5</ele><time>2026-04-22T08:56:09.999Z</time></trkpt><trkpt lat="40.1463896" lon="8.7720082"><ele>354.0</ele><time>2026-04-22T08:56:12.049Z</time></trkpt><trkpt lat="40.146322" lon="8.7719795"><ele>353.5</ele><time>2026-04-22T08:56:14.065Z</time></trkpt><trkpt lat="40.1462431" lon="8.7719314"><ele>353.0</ele><time>2026-04-22T08:56:16.581Z</time></trkpt><trkpt lat="40.1461751" lon="8.7718929"><ele>352.5</ele><time>2026-04-22T08:56:20.61Z</time></trkpt><trkpt lat="40.1460855" lon="8.7718645"><ele>352.0</ele><time>2026-04-22T08:56:24.164Z</time></trkpt><trkpt lat="40.1459977" lon="8.7718279"><ele>352.0</ele><time>2026-04-22T08:56:26.873Z</time></trkpt><trkpt lat="40.1459251" lon="8.7718111"><ele>352.0</ele><time>2026-04-22T08:56:29.894Z</time></trkpt><trkpt lat="40.1458567" lon="8.7718065"><ele>352.0</ele><time>2026-04-22T08:56:32.918Z</time></trkpt><trkpt lat="40.1457659" lon="8.7717851"><ele>352.0</ele><time>2026-04-22T08:56:35.937Z</time></trkpt><trkpt lat="40.1456444" lon="8.771753"><ele>352.0</ele><time>2026-04-22T08:56:37.971Z</time></trkpt><trkpt lat="40.1455545" lon="8.7717123"><ele>351.7142857142857</ele><time>2026-04-22T08:56:39.986Z</time></trkpt><trkpt lat="40.1454873" lon="8.7716774"><ele>351.42857142857144</ele><time>2026-04-22T08:56:42.009Z</time></trkpt><trkpt lat="40.1454087" lon="8.7716591"><ele>351.1428571428571</ele><time>2026-04-22T08:56:45.061Z</time></trkpt><trkpt lat="40.1453276" lon="8.771646"><ele>350.8571428571429</ele><time>2026-04-22T08:56:49.614Z</time></trkpt><trkpt lat="40.1452615" lon="8.7716585"><ele>350.57142857142856</ele><time>2026-04-22T08:57:15.516Z</time></trkpt><trkpt lat="40.145183" lon="8.7716672"><ele>350.2857142857143</ele><time>2026-04-22T08:57:21.577Z</time></trkpt><trkpt lat="40.1451431" lon="8.7715948"><ele>350.0</ele><time>2026-04-22T08:57:27.66Z</time></trkpt><trkpt lat="40.1451378" lon="8.7715105"><ele>350.0</ele><time>2026-04-22T08:57:31.71Z</time></trkpt><trkpt lat="40.1451398" lon="8.7714246"><ele>350.0</ele><time>2026-04-22T08:57:34.831Z</time></trkpt><trkpt lat="40.1451519" lon="8.7712973"><ele>350.0</ele><time>2026-04-22T08:57:36.846Z</time></trkpt><trkpt lat="40.1451558" lon="8.7712119"><ele>350.0</ele><time>2026-04-22T08:57:37.852Z</time></trkpt><trkpt lat="40.1451608" lon="8.7711058"><ele>350.0</ele><time>2026-04-22T08:57:39.906Z</time></trkpt><trkpt lat="40.1451716" lon="8.771005"><ele>350.0</ele><time>2026-04-22T08:57:42.971Z</time></trkpt><trkpt lat="40.1451594" lon="8.7708968"><ele>350.0</ele><time>2026-04-22T08:57:46.111Z</time></trkpt><trkpt lat="40.1451612" lon="8.7707527"><ele>350.0</ele><time>2026-04-22T08:57:48.627Z</time></trkpt><trkpt lat="40.1451577" lon="8.7705579"><ele>350.0</ele><time>2026-04-22T08:57:57.712Z</time></trkpt><trkpt lat="40.1451662" lon="8.7704651"><ele>350.0</ele><time>2026-04-22T08:58:00.774Z</time></trkpt><trkpt lat="40.1451774" lon="8.7703576"><ele>350.0</ele><time>2026-04-22T08:58:03.815Z</time></trkpt><trkpt lat="40.145189" lon="8.7702706"><ele>349.83333333333337</ele><time>2026-04-22T08:58:05.828Z</time></trkpt><trkpt lat="40.1452292" lon="8.7701643"><ele>349.6666666666667</ele><time>2026-04-22T08:58:08.871Z</time></trkpt><trkpt lat="40.1452692" lon="8.7700389"><ele>349.5</ele><time>2026-04-22T08:58:12.546Z</time></trkpt><trkpt lat="40.1452732" lon="8.7699465"><ele>349.3333333333333</ele><time>2026-04-22T08:58:15.568Z</time></trkpt><trkpt lat="40.145317" lon="8.76987"><ele>349.16666666666663</ele><time>2026-04-22T08:58:24.783Z</time></trkpt><trkpt lat="40.1453321" lon="8.7697863"><ele>349.0</ele><time>2026-04-22T08:58:30.999Z</time></trkpt><trkpt lat="40.1453524" lon="8.7697011"><ele>348.99999999999994</ele><time>2026-04-22T08:58:41.843Z</time></trkpt><trkpt lat="40.1453656" lon="8.7696194"><ele>349.0</ele><time>2026-04-22T08:58:45.041Z</time></trkpt><trkpt lat="40.1453593" lon="8.7695373"><ele>349.0</ele><time>2026-04-22T08:58:51.672Z</time></trkpt><trkpt lat="40.1453915" lon="8.7696139"><ele>349.0</ele><time>2026-04-22T09:01:16.63Z</time></trkpt><trkpt lat="40.1453646" lon="8.769698"><ele>349.0</ele><time>2026-04-22T09:07:32.574Z</time></trkpt><trkpt lat="40.1453298" lon="8.7698111"><ele>348.99999999999994</ele><time>2026-04-22T09:07:40.73Z</time></trkpt><trkpt lat="40.1453009" lon="8.7698972"><ele>349.0</ele><time>2026-04-22T09:07:45.866Z</time></trkpt><trkpt lat="40.1452715" lon="8.7700026"><ele>349.0</ele><time>2026-04-22T09:07:51.909Z</time></trkpt><trkpt lat="40.1452361" lon="8.7701375"><ele>349.0</ele><time>2026-04-22T09:07:55.948Z</time></trkpt><trkpt lat="40.1451997" lon="8.7702165"><ele>349.0</ele><time>2026-04-22T09:07:59.975Z</time></trkpt><trkpt lat="40.1451744" lon="8.7702965"><ele>349.0</ele><time>2026-04-22T09:08:04.004Z</time></trkpt><trkpt lat="40.1451645" lon="8.7703984"><ele>349.0</ele><time>2026-04-22T09:08:08.133Z</time></trkpt><trkpt lat="40.1451609" lon="8.7704957"><ele>349.0</ele><time>2026-04-22T09:08:11.759Z</time></trkpt><trkpt lat="40.1451685" lon="8.7706346"><ele>349.2</ele><time>2026-04-22T09:08:15.787Z</time></trkpt><trkpt lat="40.1451685" lon="8.7707575"><ele>349.4</ele><time>2026-04-22T09:08:19.816Z</time></trkpt><trkpt lat="40.1451619" lon="8.7709034"><ele>349.6</ele><time>2026-04-22T09:08:23.843Z</time></trkpt><trkpt lat="40.1451575" lon="8.7709964"><ele>349.8</ele><time>2026-04-22T09:08:25.857Z</time></trkpt><trkpt lat="40.145149" lon="8.7711581"><ele>350.0</ele><time>2026-04-22T09:08:27.873Z</time></trkpt><trkpt lat="40.1451489" lon="8.7712469"><ele>350.0</ele><time>2026-04-22T09:08:30.894Z</time></trkpt><trkpt lat="40.1451458" lon="8.7713473"><ele>350.0</ele><time>2026-04-22T09:08:33.934Z</time></trkpt><trkpt lat="40.1451503" lon="8.771448"><ele>350.0</ele><time>2026-04-22T09:08:36.955Z</time></trkpt><trkpt lat="40.14513" lon="8.7715962"><ele>350.0</ele><time>2026-04-22T09:08:41.185Z</time></trkpt><trkpt lat="40.1451274" lon="8.7716842"><ele>350.0</ele><time>2026-04-22T09:08:45.214Z</time></trkpt><trkpt lat="40.1451953" lon="8.7717192"><ele>350.0</ele><time>2026-04-22T09:08:49.745Z</time></trkpt><trkpt lat="40.14526" lon="8.7717136"><ele>350.0</ele><time>2026-04-22T09:08:52.808Z</time></trkpt><trkpt lat="40.1453453" lon="8.7716672"><ele>350.0</ele><time>2026-04-22T09:09:00.884Z</time></trkpt><trkpt lat="40.1454129" lon="8.7716892"><ele>350.0</ele><time>2026-04-22T09:09:06.946Z</time></trkpt><trkpt lat="40.1454873" lon="8.771695"><ele>350.0</ele><time>2026-04-22T09:09:11.005Z</time></trkpt><trkpt lat="40.1455619" lon="8.7717179"><ele>350.0</ele><time>2026-04-22T09:09:14.047Z</time></trkpt><trkpt lat="40.1456376" lon="8.7717528"><ele>350.0</ele><time>2026-04-22T09:09:17.068Z</time></trkpt><trkpt lat="40.145748" lon="8.771796"><ele>350.33333333333337</ele><time>2026-04-22T09:09:21.096Z</time></trkpt><trkpt lat="40.1458118" lon="8.7718095"><ele>350.6666666666667</ele><time>2026-04-22T09:09:23.11Z</time></trkpt><trkpt lat="40.145876" lon="8.7718137"><ele>351.0</ele><time>2026-04-22T09:09:25.125Z</time></trkpt><trkpt lat="40.1459505" lon="8.7718293"><ele>351.3333333333333</ele><time>2026-04-22T09:09:27.642Z</time></trkpt><trkpt lat="40.1460511" lon="8.7718837"><ele>351.66666666666663</ele><time>2026-04-22T09:09:30.663Z</time></trkpt><trkpt lat="40.1461467" lon="8.7719022"><ele>352.0</ele><time>2026-04-22T09:09:34.724Z</time></trkpt><trkpt lat="40.1462233" lon="8.7719321"><ele>352.0</ele><time>2026-04-22T09:09:38.84Z</time></trkpt><trkpt lat="40.1463234" lon="8.7719755"><ele>352.0</ele><time>2026-04-22T09:09:42.869Z</time></trkpt><trkpt lat="40.1463387" lon="8.7720781"><ele>352.0</ele><time>2026-04-22T09:09:46.917Z</time></trkpt><trkpt lat="40.1463127" lon="8.7722011"><ele>352.0</ele><time>2026-04-22T09:09:49.938Z</time></trkpt><trkpt lat="40.1463119" lon="8.772295"><ele>352.0</ele><time>2026-04-22T09:09:51.953Z</time></trkpt><trkpt lat="40.146322" lon="8.7724226"><ele>352.0</ele><time>2026-04-22T09:09:55.014Z</time></trkpt><trkpt lat="40.1462921" lon="8.7725548"><ele>352.0</ele><time>2026-04-22T09:09:58.54Z</time></trkpt><trkpt lat="40.1462952" lon="8.7726615"><ele>352.0</ele><time>2026-04-22T09:10:00.555Z</time></trkpt><trkpt lat="40.1463268" lon="8.7727705"><ele>352.0</ele><time>2026-04-22T09:10:02.568Z</time></trkpt><trkpt lat="40.146359" lon="8.7728547"><ele>352.0</ele><time>2026-04-22T09:10:04.582Z</time></trkpt><trkpt lat="40.1464319" lon="8.7729868"><ele>352.0</ele><time>2026-04-22T09:10:06.999Z</time></trkpt><trkpt lat="40.1464784" lon="8.7730622"><ele>352.0</ele><time>2026-04-22T09:10:09.083Z</time></trkpt><trkpt lat="40.1465176" lon="8.7731682"><ele>352.0</ele><time>2026-04-22T09:10:11.097Z</time></trkpt><trkpt lat="40.1464919" lon="8.7732702"><ele>352.0</ele><time>2026-04-22T09:10:13.112Z</time></trkpt><trkpt lat="40.1464116" lon="8.7733826"><ele>352.0</ele><time>2026-04-22T09:10:15.73Z</time></trkpt><trkpt lat="40.1463494" lon="8.773466"><ele>352.20000000000005</ele><time>2026-04-22T09:10:17.745Z</time></trkpt><trkpt lat="40.1462938" lon="8.7735518"><ele>352.4</ele><time>2026-04-22T09:10:19.759Z</time></trkpt><trkpt lat="40.1462345" lon="8.773635"><ele>352.6</ele><time>2026-04-22T09:10:21.773Z</time></trkpt><trkpt lat="40.1461682" lon="8.7737553"><ele>352.79999999999995</ele><time>2026-04-22T09:10:23.999Z</time></trkpt><trkpt lat="40.1461618" lon="8.7738531"><ele>353.0</ele><time>2026-04-22T09:10:26.084Z</time></trkpt><trkpt lat="40.146132" lon="8.7739818"><ele>353.0</ele><time>2026-04-22T09:10:28.621Z</time></trkpt><trkpt lat="40.1461" lon="8.7740654"><ele>353.0</ele><time>2026-04-22T09:10:33.658Z</time></trkpt><trkpt lat="40.1460849" lon="8.7741792"><ele>353.0</ele><time>2026-04-22T09:10:37.685Z</time></trkpt><trkpt lat="40.1460108" lon="8.7743616"><ele>353.0</ele><time>2026-04-22T09:10:40.705Z</time></trkpt><trkpt lat="40.1459589" lon="8.774486"><ele>353.0</ele><time>2026-04-22T09:10:42.72Z</time></trkpt><trkpt lat="40.1459182" lon="8.7745786"><ele>352.83333333333337</ele><time>2026-04-22T09:10:44.735Z</time></trkpt><trkpt lat="40.1458766" lon="8.7746615"><ele>352.6666666666667</ele><time>2026-04-22T09:10:47.856Z</time></trkpt><trkpt lat="40.1458446" lon="8.7747732"><ele>352.5</ele><time>2026-04-22T09:10:51.887Z</time></trkpt><trkpt lat="40.1458119" lon="8.7748877"><ele>352.3333333333333</ele><time>2026-04-22T09:10:53.904Z</time></trkpt><trkpt lat="40.1457842" lon="8.7749822"><ele>352.16666666666663</ele><time>2026-04-22T09:10:55.509Z</time></trkpt><trkpt lat="40.1457709" lon="8.7750637"><ele>352.0</ele><time>2026-04-22T09:10:57.526Z</time></trkpt><trkpt lat="40.1457644" lon="8.7751654"><ele>351.8333333333333</ele><time>2026-04-22T09:11:01.552Z</time></trkpt><trkpt lat="40.1457601" lon="8.7752513"><ele>351.66666666666663</ele><time>2026-04-22T09:11:03.566Z</time></trkpt><trkpt lat="40.1457451" lon="8.7753525"><ele>351.5</ele><time>2026-04-22T09:11:05.58Z</time></trkpt><trkpt lat="40.1457264" lon="8.7754634"><ele>351.3333333333333</ele><time>2026-04-22T09:11:07.593Z</time></trkpt><trkpt lat="40.1457127" lon="8.775565"><ele>351.1666666666667</ele><time>2026-04-22T09:11:08.602Z</time></trkpt><trkpt lat="40.1457006" lon="8.7756884"><ele>351.0</ele><time>2026-04-22T09:11:09.993Z</time></trkpt><trkpt lat="40.145672" lon="8.7758173"><ele>350.4</ele><time>2026-04-22T09:11:11.999Z</time></trkpt><trkpt lat="40.1456298" lon="8.7759269"><ele>349.8</ele><time>2026-04-22T09:11:14Z</time></trkpt><trkpt lat="40.1455788" lon="8.7760389"><ele>349.2</ele><time>2026-04-22T09:11:15.999Z</time></trkpt><trkpt lat="40.145519" lon="8.7761634"><ele>348.59999999999997</ele><time>2026-04-22T09:11:17.999Z</time></trkpt><trkpt lat="40.1454522" lon="8.776275"><ele>348.0</ele><time>2026-04-22T09:11:20Z</time></trkpt><trkpt lat="40.1453846" lon="8.7763765"><ele>348.0</ele><time>2026-04-22T09:11:21.999Z</time></trkpt><trkpt lat="40.1453251" lon="8.7764695"><ele>348.0</ele><time>2026-04-22T09:11:23.999Z</time></trkpt><trkpt lat="40.1452686" lon="8.7765981"><ele>348.0</ele><time>2026-04-22T09:11:25.997Z</time></trkpt><trkpt lat="40.1452365" lon="8.7766695"><ele>348.0</ele><time>2026-04-22T09:11:28.999Z</time></trkpt><trkpt lat="40.1451957" lon="8.7767877"><ele>348.0</ele><time>2026-04-22T09:11:31.999Z</time></trkpt><trkpt lat="40.1451512" lon="8.7769096"><ele>347.59999999999997</ele><time>2026-04-22T09:11:32.994Z</time></trkpt><trkpt lat="40.1451051" lon="8.7770564"><ele>347.2</ele><time>2026-04-22T09:11:33.992Z</time></trkpt><trkpt lat="40.1450962" lon="8.7771382"><ele>346.8</ele><time>2026-04-22T09:11:34.99Z</time></trkpt><trkpt lat="40.145092" lon="8.7772731"><ele>346.4</ele><time>2026-04-22T09:11:36.999Z</time></trkpt><trkpt lat="40.1451009" lon="8.7774056"><ele>346.0</ele><time>2026-04-22T09:11:39Z</time></trkpt><trkpt lat="40.14514" lon="8.7775136"><ele>346.0</ele><time>2026-04-22T09:11:40.999Z</time></trkpt><trkpt lat="40.145168" lon="8.7776148"><ele>346.0</ele><time>2026-04-22T09:11:42.999Z</time></trkpt><trkpt lat="40.1451955" lon="8.7777191"><ele>346.0</ele><time>2026-04-22T09:11:47.102Z</time></trkpt><trkpt lat="40.1451697" lon="8.7778382"><ele>346.0</ele><time>2026-04-22T09:11:50.146Z</time></trkpt><trkpt lat="40.1451299" lon="8.7779177"><ele>346.0</ele><time>2026-04-22T09:11:52.178Z</time></trkpt><trkpt lat="40.1450583" lon="8.7779758"><ele>346.0</ele><time>2026-04-22T09:11:54.758Z</time></trkpt><trkpt lat="40.1449977" lon="8.7780317"><ele>345.8</ele><time>2026-04-22T09:11:55.764Z</time></trkpt><trkpt lat="40.1449101" lon="8.7781285"><ele>345.6</ele><time>2026-04-22T09:11:57.777Z</time></trkpt><trkpt lat="40.1448321" lon="8.7782318"><ele>345.4</ele><time>2026-04-22T09:11:59.792Z</time></trkpt><trkpt lat="40.1447406" lon="8.7783329"><ele>345.2</ele><time>2026-04-22T09:12:01.808Z</time></trkpt><trkpt lat="40.1446845" lon="8.778391"><ele>345.0</ele><time>2026-04-22T09:12:02.833Z</time></trkpt><trkpt lat="40.144582" lon="8.7784932"><ele>344.25</ele><time>2026-04-22T09:12:04.848Z</time></trkpt><trkpt lat="40.1444828" lon="8.7785879"><ele>343.5</ele><time>2026-04-22T09:12:06.861Z</time></trkpt><trkpt lat="40.1443718" lon="8.7786951"><ele>342.75</ele><time>2026-04-22T09:12:08.999Z</time></trkpt><trkpt lat="40.144281" lon="8.7787859"><ele>342.0</ele><time>2026-04-22T09:12:10.999Z</time></trkpt><trkpt lat="40.1441941" lon="8.7788771"><ele>342.0</ele><time>2026-04-22T09:12:12.999Z</time></trkpt><trkpt lat="40.1441128" lon="8.7789719"><ele>342.0</ele><time>2026-04-22T09:12:15Z</time></trkpt><trkpt lat="40.1440269" lon="8.7790564"><ele>342.0</ele><time>2026-04-22T09:12:16.999Z</time></trkpt><trkpt lat="40.1439391" lon="8.7791475"><ele>342.0</ele><time>2026-04-22T09:12:18Z</time></trkpt><trkpt lat="40.143859" lon="8.7792323"><ele>342.0</ele><time>2026-04-22T09:12:18.993Z</time></trkpt><trkpt lat="40.1437992" lon="8.7793103"><ele>341.6666666666667</ele><time>2026-04-22T09:12:19.994Z</time></trkpt><trkpt lat="40.1437527" lon="8.7793842"><ele>341.3333333333333</ele><time>2026-04-22T09:12:20.994Z</time></trkpt><trkpt lat="40.1437125" lon="8.779456"><ele>341.0</ele><time>2026-04-22T09:12:21.999Z</time></trkpt><trkpt lat="40.1436729" lon="8.7795285"><ele>340.66666666666663</ele><time>2026-04-22T09:12:22.999Z</time></trkpt><trkpt lat="40.1436319" lon="8.7796107"><ele>340.3333333333333</ele><time>2026-04-22T09:12:23.999Z</time></trkpt><trkpt lat="40.1435923" lon="8.7797027"><ele>340.0</ele><time>2026-04-22T09:12:25Z</time></trkpt><trkpt lat="40.1435573" lon="8.7798174"><ele>340.0</ele><time>2026-04-22T09:12:25.998Z</time></trkpt><trkpt lat="40.1435242" lon="8.779944"><ele>340.0</ele><time>2026-04-22T09:12:26.998Z</time></trkpt><trkpt lat="40.1434972" lon="8.7800739"><ele>340.0</ele><time>2026-04-22T09:12:27.999Z</time></trkpt><trkpt lat="40.1434785" lon="8.7802091"><ele>340.0</ele><time>2026-04-22T09:12:28.999Z</time></trkpt><trkpt lat="40.1434523" lon="8.7803466"><ele>340.0</ele><time>2026-04-22T09:12:29.999Z</time></trkpt><trkpt lat="40.1434334" lon="8.780476"><ele>340.0</ele><time>2026-04-22T09:12:30.999Z</time></trkpt><trkpt lat="40.1434068" lon="8.7805987"><ele>340.0</ele><time>2026-04-22T09:12:31.999Z</time></trkpt><trkpt lat="40.1433746" lon="8.7807259"><ele>340.0</ele><time>2026-04-22T09:12:33Z</time></trkpt><trkpt lat="40.1433393" lon="8.7808517"><ele>340.0</ele><time>2026-04-22T09:12:33.995Z</time></trkpt><trkpt lat="40.1433003" lon="8.7809828"><ele>340.0</ele><time>2026-04-22T09:12:34.999Z</time></trkpt><trkpt lat="40.1432669" lon="8.7811049"><ele>340.0</ele><time>2026-04-22T09:12:35.999Z</time></trkpt><trkpt lat="40.1432338" lon="8.7812236"><ele>340.0</ele><time>2026-04-22T09:12:37Z</time></trkpt><trkpt lat="40.1432007" lon="8.7813431"><ele>340.0</ele><time>2026-04-22T09:12:37.999Z</time></trkpt><trkpt lat="40.1431652" lon="8.7814674"><ele>340.0</ele><time>2026-04-22T09:12:38.999Z</time></trkpt><trkpt lat="40.1431182" lon="8.7815958"><ele>340.0</ele><time>2026-04-22T09:12:39.999Z</time></trkpt><trkpt lat="40.1430717" lon="8.7817144"><ele>340.0</ele><time>2026-04-22T09:12:41Z</time></trkpt><trkpt lat="40.1430321" lon="8.7818309"><ele>340.0</ele><time>2026-04-22T09:12:42Z</time></trkpt><trkpt lat="40.142993" lon="8.7819388"><ele>340.0</ele><time>2026-04-22T09:12:42.999Z</time></trkpt><trkpt lat="40.1429504" lon="8.7820463"><ele>340.0</ele><time>2026-04-22T09:12:43.999Z</time></trkpt><trkpt lat="40.1429085" lon="8.7821547"><ele>340.0</ele><time>2026-04-22T09:12:45Z</time></trkpt><trkpt lat="40.1428683" lon="8.7822604"><ele>340.0</ele><time>2026-04-22T09:12:46Z</time></trkpt><trkpt lat="40.1428214" lon="8.7823616"><ele>340.0</ele><time>2026-04-22T09:12:47Z</time></trkpt><trkpt lat="40.1427766" lon="8.7824602"><ele>340.0</ele><time>2026-04-22T09:12:48Z</time></trkpt><trkpt lat="40.1427271" lon="8.7825619"><ele>340.0</ele><time>2026-04-22T09:12:48.999Z</time></trkpt><trkpt lat="40.1426705" lon="8.7826636"><ele>340.0</ele><time>2026-04-22T09:12:50Z</time></trkpt><trkpt lat="40.1426105" lon="8.7827698"><ele>339.8</ele><time>2026-04-22T09:12:51Z</time></trkpt><trkpt lat="40.1425472" lon="8.7828712"><ele>339.6</ele><time>2026-04-22T09:12:51.999Z</time></trkpt><trkpt lat="40.1424838" lon="8.7829666"><ele>339.4</ele><time>2026-04-22T09:12:53Z</time></trkpt><trkpt lat="40.1424206" lon="8.7830596"><ele>339.2</ele><time>2026-04-22T09:12:53.995Z</time></trkpt><trkpt lat="40.1423401" lon="8.7831684"><ele>339.0</ele><time>2026-04-22T09:12:54.996Z</time></trkpt><trkpt lat="40.1422669" lon="8.7832685"><ele>339.0</ele><time>2026-04-22T09:12:55.999Z</time></trkpt><trkpt lat="40.1421955" lon="8.783368"><ele>339.0</ele><time>2026-04-22T09:12:56.999Z</time></trkpt><trkpt lat="40.1421223" lon="8.7834599"><ele>339.0</ele><time>2026-04-22T09:12:57.995Z</time></trkpt><trkpt lat="40.1420507" lon="8.783545"><ele>339.0</ele><time>2026-04-22T09:12:59Z</time></trkpt><trkpt lat="40.1419783" lon="8.7836241"><ele>339.0</ele><time>2026-04-22T09:12:59.999Z</time></trkpt><trkpt lat="40.1419069" lon="8.7837012"><ele>339.0</ele><time>2026-04-22T09:13:00.999Z</time></trkpt><trkpt lat="40.1418398" lon="8.7837785"><ele>339.0</ele><time>2026-04-22T09:13:01.999Z</time></trkpt><trkpt lat="40.1417696" lon="8.7838591"><ele>339.0</ele><time>2026-04-22T09:13:02.999Z</time></trkpt><trkpt lat="40.1417025" lon="8.7839441"><ele>339.0</ele><time>2026-04-22T09:13:03.999Z</time></trkpt><trkpt lat="40.1416318" lon="8.7840266"><ele>339.0</ele><time>2026-04-22T09:13:04.994Z</time></trkpt><trkpt lat="40.1415663" lon="8.7841092"><ele>339.0</ele><time>2026-04-22T09:13:05.999Z</time></trkpt><trkpt lat="40.1414931" lon="8.7841903"><ele>339.0</ele><time>2026-04-22T09:13:06.999Z</time></trkpt><trkpt lat="40.1414173" lon="8.7842688"><ele>339.0</ele><time>2026-04-22T09:13:07.999Z</time></trkpt><trkpt lat="40.14134" lon="8.7843483"><ele>339.0</ele><time>2026-04-22T09:13:08.999Z</time></trkpt><trkpt lat="40.141268" lon="8.7844237"><ele>339.0</ele><time>2026-04-22T09:13:09.996Z</time></trkpt><trkpt lat="40.1411917" lon="8.7845028"><ele>338.79999999999995</ele><time>2026-04-22T09:13:11Z</time></trkpt><trkpt lat="40.1411109" lon="8.7845607"><ele>338.59999999999997</ele><time>2026-04-22T09:13:11.999Z</time></trkpt><trkpt lat="40.1410195" lon="8.7846288"><ele>338.4</ele><time>2026-04-22T09:13:13Z</time></trkpt><trkpt lat="40.1409257" lon="8.784698"><ele>338.2</ele><time>2026-04-22T09:13:13.999Z</time></trkpt><trkpt lat="40.1408293" lon="8.7847553"><ele>338.0</ele><time>2026-04-22T09:13:15Z</time></trkpt><trkpt lat="40.1407378" lon="8.7848109"><ele>338.2</ele><time>2026-04-22T09:13:15.999Z</time></trkpt><trkpt lat="40.1406481" lon="8.784866"><ele>338.4</ele><time>2026-04-22T09:13:17Z</time></trkpt><trkpt lat="40.1405615" lon="8.7849153"><ele>338.59999999999997</ele><time>2026-04-22T09:13:17.999Z</time></trkpt><trkpt lat="40.1404732" lon="8.7849725"><ele>338.79999999999995</ele><time>2026-04-22T09:13:18.999Z</time></trkpt><trkpt lat="40.1403838" lon="8.7850311"><ele>339.0</ele><time>2026-04-22T09:13:20Z</time></trkpt><trkpt lat="40.1402935" lon="8.7850773"><ele>339.0</ele><time>2026-04-22T09:13:20.999Z</time></trkpt><trkpt lat="40.1402053" lon="8.7851115"><ele>339.0</ele><time>2026-04-22T09:13:21.999Z</time></trkpt><trkpt lat="40.1401142" lon="8.7851418"><ele>339.0</ele><time>2026-04-22T09:13:22.999Z</time></trkpt><trkpt lat="40.1400274" lon="8.7851782"><ele>339.0</ele><time>2026-04-22T09:13:23.999Z</time></trkpt><trkpt lat="40.1399375" lon="8.7852099"><ele>339.0</ele><time>2026-04-22T09:13:24.999Z</time></trkpt><trkpt lat="40.1398507" lon="8.785236"><ele>338.4</ele><time>2026-04-22T09:13:25.999Z</time></trkpt><trkpt lat="40.1397648" lon="8.7852661"><ele>337.79999999999995</ele><time>2026-04-22T09:13:27Z</time></trkpt><trkpt lat="40.1396797" lon="8.7852913"><ele>337.20000000000005</ele><time>2026-04-22T09:13:28Z</time></trkpt><trkpt lat="40.13959" lon="8.7853205"><ele>336.6</ele><time>2026-04-22T09:13:28.999Z</time></trkpt><trkpt lat="40.1394873" lon="8.7853588"><ele>336.0</ele><time>2026-04-22T09:13:30Z</time></trkpt><trkpt lat="40.1393759" lon="8.7853894"><ele>336.0</ele><time>2026-04-22T09:13:31Z</time></trkpt><trkpt lat="40.1392716" lon="8.7854248"><ele>336.0</ele><time>2026-04-22T09:13:32Z</time></trkpt><trkpt lat="40.1391793" lon="8.7854635"><ele>336.0</ele><time>2026-04-22T09:13:32.999Z</time></trkpt><trkpt lat="40.1390871" lon="8.785514"><ele>336.0</ele><time>2026-04-22T09:13:34Z</time></trkpt><trkpt lat="40.1389869" lon="8.7855658"><ele>336.0</ele><time>2026-04-22T09:13:35Z</time></trkpt><trkpt lat="40.1388794" lon="8.7856061"><ele>336.0</ele><time>2026-04-22T09:13:35.999Z</time></trkpt><trkpt lat="40.1387771" lon="8.7856535"><ele>336.0</ele><time>2026-04-22T09:13:36.999Z</time></trkpt><trkpt lat="40.1386827" lon="8.7857141"><ele>336.0</ele><time>2026-04-22T09:13:37.999Z</time></trkpt><trkpt lat="40.1385899" lon="8.7857796"><ele>336.0</ele><time>2026-04-22T09:13:38.999Z</time></trkpt><trkpt lat="40.1384982" lon="8.7858507"><ele>336.0</ele><time>2026-04-22T09:13:39.999Z</time></trkpt><trkpt lat="40.1384006" lon="8.7859242"><ele>336.0</ele><time>2026-04-22T09:13:40.999Z</time></trkpt><trkpt lat="40.1382963" lon="8.7860079"><ele>336.0</ele><time>2026-04-22T09:13:41.999Z</time></trkpt><trkpt lat="40.1381895" lon="8.7860865"><ele>336.0</ele><time>2026-04-22T09:13:42.999Z</time></trkpt><trkpt lat="40.1380841" lon="8.7861591"><ele>336.0</ele><time>2026-04-22T09:13:43.996Z</time></trkpt><trkpt lat="40.1379892" lon="8.786239"><ele>335.6</ele><time>2026-04-22T09:13:44.999Z</time></trkpt><trkpt lat="40.1378978" lon="8.7863067"><ele>335.20000000000005</ele><time>2026-04-22T09:13:45.999Z</time></trkpt><trkpt lat="40.1378084" lon="8.7863674"><ele>334.79999999999995</ele><time>2026-04-22T09:13:47Z</time></trkpt><trkpt lat="40.1377236" lon="8.7864292"><ele>334.4</ele><time>2026-04-22T09:13:48Z</time></trkpt><trkpt lat="40.1376413" lon="8.7864873"><ele>334.0</ele><time>2026-04-22T09:13:49Z</time></trkpt><trkpt lat="40.1375624" lon="8.7865376"><ele>334.0</ele><time>2026-04-22T09:13:49.999Z</time></trkpt><trkpt lat="40.1374759" lon="8.7865829"><ele>334.0</ele><time>2026-04-22T09:13:50.999Z</time></trkpt><trkpt lat="40.1373917" lon="8.7866228"><ele>334.0</ele><time>2026-04-22T09:13:51.994Z</time></trkpt><trkpt lat="40.137294" lon="8.7866517"><ele>334.0</ele><time>2026-04-22T09:13:53Z</time></trkpt><trkpt lat="40.1372076" lon="8.7866701"><ele>334.0</ele><time>2026-04-22T09:13:53.999Z</time></trkpt><trkpt lat="40.1371054" lon="8.7866791"><ele>333.8333333333333</ele><time>2026-04-22T09:13:55Z</time></trkpt><trkpt lat="40.1370121" lon="8.7866903"><ele>333.66666666666663</ele><time>2026-04-22T09:13:56Z</time></trkpt><trkpt lat="40.1369207" lon="8.786708"><ele>333.5</ele><time>2026-04-22T09:13:56.996Z</time></trkpt><trkpt lat="40.1368381" lon="8.7867373"><ele>333.3333333333333</ele><time>2026-04-22T09:13:57.999Z</time></trkpt><trkpt lat="40.1367589" lon="8.7867563"><ele>333.1666666666667</ele><time>2026-04-22T09:13:59Z</time></trkpt><trkpt lat="40.1366748" lon="8.7867757"><ele>333.0</ele><time>2026-04-22T09:13:59.993Z</time></trkpt><trkpt lat="40.1365995" lon="8.7867762"><ele>333.5</ele><time>2026-04-22T09:14:00.999Z</time></trkpt><trkpt lat="40.1365287" lon="8.7867897"><ele>334.0</ele><time>2026-04-22T09:14:01.999Z</time></trkpt><trkpt lat="40.1364581" lon="8.7868024"><ele>334.5</ele><time>2026-04-22T09:14:02.999Z</time></trkpt><trkpt lat="40.1363828" lon="8.7868103"><ele>335.0</ele><time>2026-04-22T09:14:03.999Z</time></trkpt><trkpt lat="40.1362857" lon="8.7868232"><ele>335.5</ele><time>2026-04-22T09:14:06Z</time></trkpt><trkpt lat="40.1362187" lon="8.7868273"><ele>336.0</ele><time>2026-04-22T09:14:08.999Z</time></trkpt><trkpt lat="40.1361911" lon="8.7867119"><ele>336.0</ele><time>2026-04-22T09:14:12.996Z</time></trkpt><trkpt lat="40.136204" lon="8.7865994"><ele>336.0</ele><time>2026-04-22T09:14:15.999Z</time></trkpt><trkpt lat="40.1362508" lon="8.7864582"><ele>336.0</ele><time>2026-04-22T09:14:17Z</time></trkpt><trkpt lat="40.1363048" lon="8.7863382"><ele>336.0</ele><time>2026-04-22T09:14:17.993Z</time></trkpt><trkpt lat="40.1363664" lon="8.7862571"><ele>336.0</ele><time>2026-04-22T09:14:18.987Z</time></trkpt><trkpt lat="40.1364258" lon="8.7861933"><ele>336.0</ele><time>2026-04-22T09:14:19.996Z</time></trkpt><trkpt lat="40.1364771" lon="8.78613"><ele>336.0</ele><time>2026-04-22T09:14:20.999Z</time></trkpt><trkpt lat="40.1365258" lon="8.7860599"><ele>336.0</ele><time>2026-04-22T09:14:21.999Z</time></trkpt><trkpt lat="40.1365709" lon="8.7859874"><ele>336.0</ele><time>2026-04-22T09:14:23Z</time></trkpt><trkpt lat="40.1366104" lon="8.785913"><ele>336.0</ele><time>2026-04-22T09:14:23.997Z</time></trkpt><trkpt lat="40.136658" lon="8.7858485"><ele>336.0</ele><time>2026-04-22T09:14:25Z</time></trkpt><trkpt lat="40.1367093" lon="8.7857803"><ele>336.0</ele><time>2026-04-22T09:14:25.999Z</time></trkpt><trkpt lat="40.1367598" lon="8.7856945"><ele>335.6</ele><time>2026-04-22T09:14:26.999Z</time></trkpt><trkpt lat="40.1368176" lon="8.7856039"><ele>335.20000000000005</ele><time>2026-04-22T09:14:28Z</time></trkpt><trkpt lat="40.1368739" lon="8.7855183"><ele>334.79999999999995</ele><time>2026-04-22T09:14:29Z</time></trkpt><trkpt lat="40.13692" lon="8.7854403"><ele>334.4</ele><time>2026-04-22T09:14:29.997Z</time></trkpt><trkpt lat="40.1370025" lon="8.7853005"><ele>334.0</ele><time>2026-04-22T09:14:31.999Z</time></trkpt><trkpt lat="40.1370477" lon="8.7852377"><ele>334.16666666666663</ele><time>2026-04-22T09:14:32.999Z</time></trkpt><trkpt lat="40.1370909" lon="8.7851692"><ele>334.3333333333333</ele><time>2026-04-22T09:14:33.999Z</time></trkpt><trkpt lat="40.1371317" lon="8.7851056"><ele>334.5</ele><time>2026-04-22T09:14:34.999Z</time></trkpt><trkpt lat="40.1371847" lon="8.7850011"><ele>334.6666666666667</ele><time>2026-04-22T09:14:37Z</time></trkpt><trkpt lat="40.1372275" lon="8.7849398"><ele>334.83333333333337</ele><time>2026-04-22T09:14:38Z</time></trkpt><trkpt lat="40.1372912" lon="8.7848496"><ele>335.0</ele><time>2026-04-22T09:14:39.999Z</time></trkpt><trkpt lat="40.1373545" lon="8.7847545"><ele>335.4</ele><time>2026-04-22T09:14:42Z</time></trkpt><trkpt lat="40.1374303" lon="8.7846486"><ele>335.8</ele><time>2026-04-22T09:14:43.996Z</time></trkpt><trkpt lat="40.1374839" lon="8.7845845"><ele>336.20000000000005</ele><time>2026-04-22T09:14:45.996Z</time></trkpt><trkpt lat="40.1375314" lon="8.7845087"><ele>336.6</ele><time>2026-04-22T09:14:49.999Z</time></trkpt><trkpt lat="40.137599" lon="8.7843791"><ele>337.0</ele><time>2026-04-22T09:14:51.99Z</time></trkpt><trkpt lat="40.1376615" lon="8.7842605"><ele>337.0</ele><time>2026-04-22T09:14:52.993Z</time></trkpt><trkpt lat="40.1377312" lon="8.7841409"><ele>337.0</ele><time>2026-04-22T09:14:54.999Z</time></trkpt><trkpt lat="40.1377859" lon="8.7840211"><ele>337.0</ele><time>2026-04-22T09:14:56.998Z</time></trkpt><trkpt lat="40.1378156" lon="8.7839107"><ele>337.0</ele><time>2026-04-22T09:15:00.05Z</time></trkpt><trkpt lat="40.1378495" lon="8.7838193"><ele>337.0</ele><time>2026-04-22T09:15:02.667Z</time></trkpt><trkpt lat="40.137846" lon="8.7837216"><ele>337.00000000000006</ele><time>2026-04-22T09:15:05.789Z</time></trkpt><trkpt lat="40.1378752" lon="8.7836401"><ele>337.0</ele><time>2026-04-22T09:15:07.926Z</time></trkpt><trkpt lat="40.1378919" lon="8.7835517"><ele>337.0</ele><time>2026-04-22T09:15:10.02Z</time></trkpt><trkpt lat="40.1378984" lon="8.7834644"><ele>337.0</ele><time>2026-04-22T09:15:14.672Z</time></trkpt><trkpt lat="40.1379224" lon="8.783378"><ele>337.0</ele><time>2026-04-22T09:16:25.999Z</time></trkpt><trkpt lat="40.1379215" lon="8.7832804"><ele>337.00000000000006</ele><time>2026-04-22T09:16:29.998Z</time></trkpt><trkpt lat="40.1379262" lon="8.7831895"><ele>337.0</ele><time>2026-04-22T09:16:33Z</time></trkpt><trkpt lat="40.1379398" lon="8.7831001"><ele>337.16666666666663</ele><time>2026-04-22T09:16:35.999Z</time></trkpt><trkpt lat="40.1379771" lon="8.7829667"><ele>337.3333333333333</ele><time>2026-04-22T09:16:38.989Z</time></trkpt><trkpt lat="40.1379982" lon="8.7828889"><ele>337.5</ele><time>2026-04-22T09:16:40.998Z</time></trkpt><trkpt lat="40.1380183" lon="8.7828039"><ele>337.6666666666667</ele><time>2026-04-22T09:16:44Z</time></trkpt><trkpt lat="40.1380435" lon="8.7826966"><ele>337.83333333333337</ele><time>2026-04-22T09:16:47.999Z</time></trkpt><trkpt lat="40.1380606" lon="8.7826049"><ele>338.0</ele><time>2026-04-22T09:16:48.995Z</time></trkpt><trkpt lat="40.1380822" lon="8.7824934"><ele>338.0</ele><time>2026-04-22T09:16:49.987Z</time></trkpt><trkpt lat="40.1381036" lon="8.7824123"><ele>338.0</ele><time>2026-04-22T09:16:50.991Z</time></trkpt><trkpt lat="40.1381331" lon="8.7823283"><ele>338.0</ele><time>2026-04-22T09:16:52Z</time></trkpt><trkpt lat="40.1381766" lon="8.7822387"><ele>338.0</ele><time>2026-04-22T09:16:52.999Z</time></trkpt><trkpt lat="40.1382259" lon="8.7821627"><ele>338.0</ele><time>2026-04-22T09:16:53.999Z</time></trkpt><trkpt lat="40.1382778" lon="8.7820965"><ele>338.0</ele><time>2026-04-22T09:16:54.999Z</time></trkpt><trkpt lat="40.138339" lon="8.7820237"><ele>338.0</ele><time>2026-04-22T09:16:55.999Z</time></trkpt><trkpt lat="40.1384015" lon="8.7819519"><ele>338.0</ele><time>2026-04-22T09:16:57Z</time></trkpt><trkpt lat="40.1384607" lon="8.7818777"><ele>338.0</ele><time>2026-04-22T09:16:58Z</time></trkpt><trkpt lat="40.1385191" lon="8.7817935"><ele>338.0</ele><time>2026-04-22T09:16:59Z</time></trkpt><trkpt lat="40.1385804" lon="8.781695"><ele>338.0</ele><time>2026-04-22T09:17:00Z</time></trkpt><trkpt lat="40.1386327" lon="8.7815899"><ele>338.0</ele><time>2026-04-22T09:17:01Z</time></trkpt><trkpt lat="40.1386826" lon="8.7814834"><ele>338.1666666666667</ele><time>2026-04-22T09:17:01.999Z</time></trkpt><trkpt lat="40.1387288" lon="8.7813829"><ele>338.33333333333337</ele><time>2026-04-22T09:17:02.999Z</time></trkpt><trkpt lat="40.1387717" lon="8.7812904"><ele>338.5</ele><time>2026-04-22T09:17:04Z</time></trkpt><trkpt lat="40.1388134" lon="8.781215"><ele>338.6666666666667</ele><time>2026-04-22T09:17:04.999Z</time></trkpt><trkpt lat="40.1388575" lon="8.7811464"><ele>338.8333333333333</ele><time>2026-04-22T09:17:06Z</time></trkpt><trkpt lat="40.1389003" lon="8.7810785"><ele>339.0</ele><time>2026-04-22T09:17:06.999Z</time></trkpt><trkpt lat="40.1389708" lon="8.7809552"><ele>339.1666666666667</ele><time>2026-04-22T09:17:08.999Z</time></trkpt><trkpt lat="40.1390049" lon="8.7808801"><ele>339.3333333333333</ele><time>2026-04-22T09:17:10Z</time></trkpt><trkpt lat="40.1390428" lon="8.7808047"><ele>339.5</ele><time>2026-04-22T09:17:10.994Z</time></trkpt><trkpt lat="40.139086" lon="8.7807141"><ele>339.66666666666663</ele><time>2026-04-22T09:17:11.999Z</time></trkpt><trkpt lat="40.1391231" lon="8.7806179"><ele>339.8333333333333</ele><time>2026-04-22T09:17:12.999Z</time></trkpt><trkpt lat="40.1391578" lon="8.7805217"><ele>340.0</ele><time>2026-04-22T09:17:13.994Z</time></trkpt><trkpt lat="40.1391963" lon="8.780435"><ele>339.8333333333333</ele><time>2026-04-22T09:17:15Z</time></trkpt><trkpt lat="40.1392353" lon="8.7803583"><ele>339.66666666666663</ele><time>2026-04-22T09:17:15.997Z</time></trkpt><trkpt lat="40.139271" lon="8.7802754"><ele>339.5</ele><time>2026-04-22T09:17:16.999Z</time></trkpt><trkpt lat="40.1392966" lon="8.7801989"><ele>339.3333333333333</ele><time>2026-04-22T09:17:17.999Z</time></trkpt><trkpt lat="40.1393566" lon="8.7800527"><ele>339.1666666666667</ele><time>2026-04-22T09:17:20Z</time></trkpt><trkpt lat="40.1393847" lon="8.7799704"><ele>339.0</ele><time>2026-04-22T09:17:21Z</time></trkpt><trkpt lat="40.1394126" lon="8.7798773"><ele>339.0</ele><time>2026-04-22T09:17:21.999Z</time></trkpt><trkpt lat="40.1394383" lon="8.7797915"><ele>339.0</ele><time>2026-04-22T09:17:22.999Z</time></trkpt><trkpt lat="40.1394725" lon="8.7796996"><ele>339.0</ele><time>2026-04-22T09:17:23.999Z</time></trkpt><trkpt lat="40.1395047" lon="8.7796153"><ele>339.0</ele><time>2026-04-22T09:17:24.996Z</time></trkpt><trkpt lat="40.1395401" lon="8.7795321"><ele>339.0</ele><time>2026-04-22T09:17:26Z</time></trkpt><trkpt lat="40.1395722" lon="8.7794509"><ele>339.0</ele><time>2026-04-22T09:17:26.999Z</time></trkpt><trkpt lat="40.1396178" lon="8.7793777"><ele>339.0</ele><time>2026-04-22T09:17:27.999Z</time></trkpt><trkpt lat="40.1396598" lon="8.779302"><ele>339.1666666666667</ele><time>2026-04-22T09:17:28.998Z</time></trkpt><trkpt lat="40.1397028" lon="8.7792271"><ele>339.3333333333333</ele><time>2026-04-22T09:17:30Z</time></trkpt><trkpt lat="40.1397391" lon="8.7791557"><ele>339.5</ele><time>2026-04-22T09:17:30.999Z</time></trkpt><trkpt lat="40.1397728" lon="8.7790821"><ele>339.66666666666663</ele><time>2026-04-22T09:17:32Z</time></trkpt><trkpt lat="40.139818" lon="8.778962"><ele>339.8333333333333</ele><time>2026-04-22T09:17:33.999Z</time></trkpt><trkpt lat="40.1398518" lon="8.7788392"><ele>340.0</ele><time>2026-04-22T09:17:36Z</time></trkpt><trkpt lat="40.1398908" lon="8.7787156"><ele>340.0</ele><time>2026-04-22T09:17:37.994Z</time></trkpt><trkpt lat="40.1399588" lon="8.7786306"><ele>340.0</ele><time>2026-04-22T09:17:39.999Z</time></trkpt><trkpt lat="40.1400478" lon="8.7785505"><ele>340.0</ele><time>2026-04-22T09:17:41.994Z</time></trkpt><trkpt lat="40.1401009" lon="8.7784649"><ele>340.0</ele><time>2026-04-22T09:17:43.999Z</time></trkpt><trkpt lat="40.1401497" lon="8.7783652"><ele>340.0</ele><time>2026-04-22T09:17:45.999Z</time></trkpt><trkpt lat="40.140195" lon="8.7782821"><ele>340.2</ele><time>2026-04-22T09:17:48Z</time></trkpt><trkpt lat="40.1402388" lon="8.7781993"><ele>340.4</ele><time>2026-04-22T09:17:49.998Z</time></trkpt><trkpt lat="40.1402837" lon="8.7781094"><ele>340.6</ele><time>2026-04-22T09:17:52.997Z</time></trkpt><trkpt lat="40.1403599" lon="8.7780482"><ele>340.8</ele><time>2026-04-22T09:17:56.238Z</time></trkpt><trkpt lat="40.1404298" lon="8.7780385"><ele>341.0</ele><time>2026-04-22T09:17:57.325Z</time></trkpt><trkpt lat="40.1405665" lon="8.7781037"><ele>341.0</ele><time>2026-04-22T09:18:00Z</time></trkpt><trkpt lat="40.1406663" lon="8.778139"><ele>341.0</ele><time>2026-04-22T09:18:01.997Z</time></trkpt><trkpt lat="40.1407619" lon="8.7781645"><ele>341.0</ele><time>2026-04-22T09:18:03.998Z</time></trkpt><trkpt lat="40.1408463" lon="8.7782253"><ele>341.0</ele><time>2026-04-22T09:18:05.998Z</time></trkpt><trkpt lat="40.1408963" lon="8.7782844"><ele>341.0</ele><time>2026-04-22T09:18:07Z</time></trkpt><trkpt lat="40.1409793" lon="8.7783573"><ele>341.0</ele><time>2026-04-22T09:18:09Z</time></trkpt><trkpt lat="40.1410646" lon="8.778431"><ele>341.0</ele><time>2026-04-22T09:18:10.999Z</time></trkpt><trkpt lat="40.1411586" lon="8.7784949"><ele>341.0</ele><time>2026-04-22T09:18:12.999Z</time></trkpt><trkpt lat="40.141236" lon="8.7785449"><ele>341.0</ele><time>2026-04-22T09:18:15Z</time></trkpt><trkpt lat="40.1413336" lon="8.7785638"><ele>341.0</ele><time>2026-04-22T09:18:17Z</time></trkpt><trkpt lat="40.1414489" lon="8.7785633"><ele>340.6666666666667</ele><time>2026-04-22T09:18:18.999Z</time></trkpt><trkpt lat="40.1415898" lon="8.7785595"><ele>340.33333333333337</ele><time>2026-04-22T09:18:20.999Z</time></trkpt><trkpt lat="40.1416764" lon="8.7785543"><ele>340.0</ele><time>2026-04-22T09:18:21.999Z</time></trkpt><trkpt lat="40.1417502" lon="8.7785489"><ele>339.6666666666667</ele><time>2026-04-22T09:18:22.999Z</time></trkpt><trkpt lat="40.1418222" lon="8.7785437"><ele>339.3333333333333</ele><time>2026-04-22T09:18:24Z</time></trkpt><trkpt lat="40.1418925" lon="8.7785452"><ele>339.0</ele><time>2026-04-22T09:18:24.993Z</time></trkpt><trkpt lat="40.1419612" lon="8.7785527"><ele>339.0</ele><time>2026-04-22T09:18:26Z</time></trkpt><trkpt lat="40.1420314" lon="8.7785624"><ele>339.0</ele><time>2026-04-22T09:18:27Z</time></trkpt><trkpt lat="40.1420995" lon="8.7785653"><ele>339.0</ele><time>2026-04-22T09:18:27.999Z</time></trkpt><trkpt lat="40.1421656" lon="8.7785677"><ele>339.0</ele><time>2026-04-22T09:18:28.993Z</time></trkpt><trkpt lat="40.1422327" lon="8.7785852"><ele>339.0</ele><time>2026-04-22T09:18:29.999Z</time></trkpt><trkpt lat="40.1423353" lon="8.7786191"><ele>339.0</ele><time>2026-04-22T09:18:32Z</time></trkpt><trkpt lat="40.1424367" lon="8.7786436"><ele>339.2</ele><time>2026-04-22T09:18:33.994Z</time></trkpt><trkpt lat="40.1425019" lon="8.7786653"><ele>339.4</ele><time>2026-04-22T09:18:35.999Z</time></trkpt><trkpt lat="40.1425815" lon="8.7786714"><ele>339.6</ele><time>2026-04-22T09:18:37.996Z</time></trkpt><trkpt lat="40.1426579" lon="8.7786681"><ele>339.8</ele><time>2026-04-22T09:18:41.996Z</time></trkpt><trkpt lat="40.1428148" lon="8.7786296"><ele>340.0</ele><time>2026-04-22T09:18:44.683Z</time></trkpt><trkpt lat="40.1429063" lon="8.7786057"><ele>340.0</ele><time>2026-04-22T09:18:45.991Z</time></trkpt><trkpt lat="40.1429757" lon="8.778621"><ele>340.0</ele><time>2026-04-22T09:18:48.052Z</time></trkpt><trkpt lat="40.1430962" lon="8.778653"><ele>340.0</ele><time>2026-04-22T09:18:50.583Z</time></trkpt><trkpt lat="40.1431628" lon="8.7786913"><ele>340.0</ele><time>2026-04-22T09:18:52Z</time></trkpt><trkpt lat="40.1432573" lon="8.7787515"><ele>340.0</ele><time>2026-04-22T09:18:53.999Z</time></trkpt><trkpt lat="40.1433243" lon="8.7788016"><ele>340.0</ele><time>2026-04-22T09:18:56Z</time></trkpt><trkpt lat="40.1434046" lon="8.7788447"><ele>340.16666666666663</ele><time>2026-04-22T09:18:58Z</time></trkpt><trkpt lat="40.1434672" lon="8.7789113"><ele>340.3333333333333</ele><time>2026-04-22T09:19:00.046Z</time></trkpt><trkpt lat="40.1435237" lon="8.7789996"><ele>340.5</ele><time>2026-04-22T09:19:02.564Z</time></trkpt><trkpt lat="40.1435681" lon="8.779105"><ele>340.6666666666667</ele><time>2026-04-22T09:19:16.716Z</time></trkpt><trkpt lat="40.1435747" lon="8.7791983"><ele>340.83333333333337</ele><time>2026-04-22T09:19:19.735Z</time></trkpt><trkpt lat="40.1436435" lon="8.7791632"><ele>341.0</ele><time>2026-04-22T09:19:22.757Z</time></trkpt><trkpt lat="40.1436362" lon="8.7790535"><ele>341.0</ele><time>2026-04-22T09:19:25.878Z</time></trkpt><trkpt lat="40.1436122" lon="8.778947"><ele>341.0</ele><time>2026-04-22T09:19:27Z</time></trkpt><trkpt lat="40.1436111" lon="8.7788631"><ele>341.0</ele><time>2026-04-22T09:19:29.051Z</time></trkpt><trkpt lat="40.143613" lon="8.7787725"><ele>341.0</ele><time>2026-04-22T09:19:30.078Z</time></trkpt><trkpt lat="40.1436274" lon="8.7786573"><ele>341.0</ele><time>2026-04-22T09:19:30.985Z</time></trkpt><trkpt lat="40.1436405" lon="8.7785718"><ele>341.0</ele><time>2026-04-22T09:19:31.996Z</time></trkpt><trkpt lat="40.1436501" lon="8.7784317"><ele>341.20000000000005</ele><time>2026-04-22T09:19:33.999Z</time></trkpt><trkpt lat="40.1436769" lon="8.7782903"><ele>341.40000000000003</ele><time>2026-04-22T09:19:36Z</time></trkpt><trkpt lat="40.143704" lon="8.7781593"><ele>341.6</ele><time>2026-04-22T09:19:37.999Z</time></trkpt><trkpt lat="40.1437417" lon="8.7780213"><ele>341.8</ele><time>2026-04-22T09:19:40Z</time></trkpt><trkpt lat="40.1437742" lon="8.7779033"><ele>342.0</ele><time>2026-04-22T09:19:41.999Z</time></trkpt><trkpt lat="40.1438052" lon="8.7777817"><ele>342.0</ele><time>2026-04-22T09:19:43.999Z</time></trkpt><trkpt lat="40.1438617" lon="8.7776456"><ele>342.0</ele><time>2026-04-22T09:19:46Z</time></trkpt><trkpt lat="40.1439141" lon="8.7775375"><ele>342.0</ele><time>2026-04-22T09:19:47.999Z</time></trkpt><trkpt lat="40.1439548" lon="8.7774088"><ele>342.0</ele><time>2026-04-22T09:19:50.999Z</time></trkpt><trkpt lat="40.1439821" lon="8.7773057"><ele>342.0</ele><time>2026-04-22T09:19:53Z</time></trkpt><trkpt lat="40.144019" lon="8.777193"><ele>342.3333333333333</ele><time>2026-04-22T09:19:54.999Z</time></trkpt><trkpt lat="40.144054" lon="8.7771123"><ele>342.6666666666667</ele><time>2026-04-22T09:19:57.762Z</time></trkpt><trkpt lat="40.1440944" lon="8.7769918"><ele>343.0</ele><time>2026-04-22T09:19:59.777Z</time></trkpt><trkpt lat="40.1441105" lon="8.7769078"><ele>343.33333333333337</ele><time>2026-04-22T09:20:00.783Z</time></trkpt><trkpt lat="40.1441458" lon="8.7767408"><ele>343.6666666666667</ele><time>2026-04-22T09:20:02.995Z</time></trkpt><trkpt lat="40.1441702" lon="8.7766612"><ele>344.0</ele><time>2026-04-22T09:20:04Z</time></trkpt><trkpt lat="40.1441852" lon="8.776581"><ele>344.1666666666667</ele><time>2026-04-22T09:20:04.999Z</time></trkpt><trkpt lat="40.1441862" lon="8.7764968"><ele>344.33333333333337</ele><time>2026-04-22T09:20:05.999Z</time></trkpt><trkpt lat="40.1441928" lon="8.7764072"><ele>344.5</ele><time>2026-04-22T09:20:06.999Z</time></trkpt><trkpt lat="40.1442057" lon="8.7763248"><ele>344.6666666666667</ele><time>2026-04-22T09:20:07.996Z</time></trkpt><trkpt lat="40.1442421" lon="8.7762348"><ele>344.8333333333333</ele><time>2026-04-22T09:20:08.994Z</time></trkpt><trkpt lat="40.1442686" lon="8.7761562"><ele>345.0</ele><time>2026-04-22T09:20:09.999Z</time></trkpt><trkpt lat="40.1443079" lon="8.7760014"><ele>345.0</ele><time>2026-04-22T09:20:11.999Z</time></trkpt><trkpt lat="40.1443254" lon="8.7759127"><ele>345.0</ele><time>2026-04-22T09:20:12.999Z</time></trkpt><trkpt lat="40.1443372" lon="8.77581"><ele>345.0</ele><time>2026-04-22T09:20:14Z</time></trkpt><trkpt lat="40.1443483" lon="8.7757102"><ele>345.0</ele><time>2026-04-22T09:20:15Z</time></trkpt><trkpt lat="40.1443614" lon="8.7756218"><ele>345.0</ele><time>2026-04-22T09:20:15.999Z</time></trkpt><trkpt lat="40.1443782" lon="8.7754715"><ele>345.0</ele><time>2026-04-22T09:20:17.994Z</time></trkpt><trkpt lat="40.1443742" lon="8.7753162"><ele>345.1666666666667</ele><time>2026-04-22T09:20:19.999Z</time></trkpt><trkpt lat="40.1443952" lon="8.7751747"><ele>345.3333333333333</ele><time>2026-04-22T09:20:21.997Z</time></trkpt><trkpt lat="40.1444251" lon="8.7750779"><ele>345.5</ele><time>2026-04-22T09:20:23.999Z</time></trkpt><trkpt lat="40.1444273" lon="8.7749745"><ele>345.66666666666663</ele><time>2026-04-22T09:20:25.999Z</time></trkpt><trkpt lat="40.1443938" lon="8.7748956"><ele>345.8333333333333</ele><time>2026-04-22T09:20:29.997Z</time></trkpt><trkpt lat="40.1443961" lon="8.7747977"><ele>346.0</ele><time>2026-04-22T09:25:33.574Z</time></trkpt><trkpt lat="40.1444208" lon="8.7746739"><ele>346.0</ele><time>2026-04-22T09:25:36.594Z</time></trkpt><trkpt lat="40.1444454" lon="8.7745758"><ele>346.0</ele><time>2026-04-22T09:25:38.61Z</time></trkpt><trkpt lat="40.1444785" lon="8.7744446"><ele>346.0</ele><time>2026-04-22T09:25:40.623Z</time></trkpt><trkpt lat="40.1445101" lon="8.7743354"><ele>346.0</ele><time>2026-04-22T09:25:41.63Z</time></trkpt><trkpt lat="40.1445524" lon="8.7742159"><ele>346.0</ele><time>2026-04-22T09:25:42.637Z</time></trkpt><trkpt lat="40.1446052" lon="8.7740734"><ele>346.0</ele><time>2026-04-22T09:25:43.643Z</time></trkpt><trkpt lat="40.1446412" lon="8.773959"><ele>346.0</ele><time>2026-04-22T09:25:44.727Z</time></trkpt><trkpt lat="40.1446853" lon="8.7738272"><ele>346.0</ele><time>2026-04-22T09:25:45.987Z</time></trkpt><trkpt lat="40.1447282" lon="8.7737109"><ele>346.0</ele><time>2026-04-22T09:25:47.999Z</time></trkpt><trkpt lat="40.1447445" lon="8.7736269"><ele>346.0</ele><time>2026-04-22T09:25:52.589Z</time></trkpt><trkpt lat="40.1448151" lon="8.7736204"><ele>346.0</ele><time>2026-04-22T09:25:58.65Z</time></trkpt><trkpt lat="40.1448889" lon="8.7736011"><ele>346.0</ele><time>2026-04-22T09:26:10.835Z</time></trkpt><trkpt lat="40.1448044" lon="8.773603"><ele>346.0</ele><time>2026-04-22T09:26:18.893Z</time></trkpt><trkpt lat="40.1447383" lon="8.7736576"><ele>346.0</ele><time>2026-04-22T09:26:20.905Z</time></trkpt><trkpt lat="40.1446935" lon="8.7737656"><ele>346.0</ele><time>2026-04-22T09:26:22.919Z</time></trkpt><trkpt lat="40.1446427" lon="8.7739252"><ele>346.0</ele><time>2026-04-22T09:26:25Z</time></trkpt><trkpt lat="40.1446115" lon="8.7740103"><ele>346.0</ele><time>2026-04-22T09:26:25.991Z</time></trkpt><trkpt lat="40.1445834" lon="8.774103"><ele>346.0</ele><time>2026-04-22T09:26:27Z</time></trkpt><trkpt lat="40.1445551" lon="8.7741879"><ele>346.0</ele><time>2026-04-22T09:26:28Z</time></trkpt><trkpt lat="40.1445294" lon="8.7742672"><ele>346.0</ele><time>2026-04-22T09:26:28.992Z</time></trkpt><trkpt lat="40.14448" lon="8.7744075"><ele>346.0</ele><time>2026-04-22T09:26:30.999Z</time></trkpt><trkpt lat="40.1444658" lon="8.7744891"><ele>346.0</ele><time>2026-04-22T09:26:31.999Z</time></trkpt><trkpt lat="40.1444432" lon="8.7746401"><ele>346.0</ele><time>2026-04-22T09:26:34Z</time></trkpt><trkpt lat="40.1444238" lon="8.7747559"><ele>346.0</ele><time>2026-04-22T09:26:35.999Z</time></trkpt><trkpt lat="40.1443665" lon="8.7748288"><ele>346.0</ele><time>2026-04-22T09:26:38.988Z</time></trkpt><trkpt lat="40.1442951" lon="8.7748434"><ele>346.0</ele><time>2026-04-22T09:26:46.022Z</time></trkpt><trkpt lat="40.1442363" lon="8.774806"><ele>346.0</ele><time>2026-04-22T09:26:48.561Z</time></trkpt><trkpt lat="40.144167" lon="8.7747122"><ele>346.0</ele><time>2026-04-22T09:26:50.574Z</time></trkpt><trkpt lat="40.1441349" lon="8.77464"><ele>346.0</ele><time>2026-04-22T09:26:53.64Z</time></trkpt><trkpt lat="40.1440927" lon="8.7745786"><ele>346.0</ele><time>2026-04-22T09:26:54.704Z</time></trkpt><trkpt lat="40.1440219" lon="8.7744958"><ele>346.0</ele><time>2026-04-22T09:26:56.818Z</time></trkpt><trkpt lat="40.1439784" lon="8.7744283"><ele>346.0</ele><time>2026-04-22T09:26:58.832Z</time></trkpt><trkpt lat="40.1439169" lon="8.7743015"><ele>346.0</ele><time>2026-04-22T09:27:00.999Z</time></trkpt><trkpt lat="40.1438555" lon="8.7741846"><ele>346.0</ele><time>2026-04-22T09:27:02.996Z</time></trkpt><trkpt lat="40.1437922" lon="8.7740856"><ele>345.4</ele><time>2026-04-22T09:27:05Z</time></trkpt><trkpt lat="40.1437287" lon="8.773999"><ele>344.8</ele><time>2026-04-22T09:27:06.996Z</time></trkpt><trkpt lat="40.1436381" lon="8.7739372"><ele>344.2</ele><time>2026-04-22T09:27:10.091Z</time></trkpt><trkpt lat="40.1435534" lon="8.773926"><ele>343.59999999999997</ele><time>2026-04-22T09:27:13.616Z</time></trkpt><trkpt lat="40.1434613" lon="8.7739142"><ele>343.0</ele><time>2026-04-22T09:27:15.63Z</time></trkpt><trkpt lat="40.1433794" lon="8.7737901"><ele>343.0</ele><time>2026-04-22T09:27:17.645Z</time></trkpt><trkpt lat="40.1432982" lon="8.7736821"><ele>343.0</ele><time>2026-04-22T09:27:20Z</time></trkpt><trkpt lat="40.1431897" lon="8.7736309"><ele>343.0</ele><time>2026-04-22T09:27:21.997Z</time></trkpt><trkpt lat="40.1430742" lon="8.7736334"><ele>343.0</ele><time>2026-04-22T09:27:23.999Z</time></trkpt><trkpt lat="40.1429646" lon="8.7736383"><ele>342.79999999999995</ele><time>2026-04-22T09:27:25.999Z</time></trkpt><trkpt lat="40.1428781" lon="8.7736047"><ele>342.6</ele><time>2026-04-22T09:27:27.999Z</time></trkpt><trkpt lat="40.1427993" lon="8.7735154"><ele>342.4</ele><time>2026-04-22T09:27:29.999Z</time></trkpt><trkpt lat="40.1427374" lon="8.7734097"><ele>342.20000000000005</ele><time>2026-04-22T09:27:31.993Z</time></trkpt><trkpt lat="40.1426655" lon="8.7733592"><ele>342.0</ele><time>2026-04-22T09:27:34Z</time></trkpt><trkpt lat="40.1425773" lon="8.773358"><ele>342.0</ele><time>2026-04-22T09:27:35.999Z</time></trkpt><trkpt lat="40.1424875" lon="8.7733635"><ele>342.0</ele><time>2026-04-22T09:27:37.999Z</time></trkpt><trkpt lat="40.1424152" lon="8.7732761"><ele>342.0</ele><time>2026-04-22T09:27:40.999Z</time></trkpt><trkpt lat="40.1423883" lon="8.7731519"><ele>342.0</ele><time>2026-04-22T09:27:42.991Z</time></trkpt><trkpt lat="40.1423768" lon="8.7730541"><ele>342.0</ele><time>2026-04-22T09:27:46.106Z</time></trkpt><trkpt lat="40.1423224" lon="8.7728344"><ele>341.8333333333333</ele><time>2026-04-22T09:27:48.992Z</time></trkpt><trkpt lat="40.1422896" lon="8.7727379"><ele>341.6666666666667</ele><time>2026-04-22T09:27:49.984Z</time></trkpt><trkpt lat="40.142257" lon="8.7726589"><ele>341.5</ele><time>2026-04-22T09:27:50.992Z</time></trkpt><trkpt lat="40.1422215" lon="8.7725866"><ele>341.33333333333337</ele><time>2026-04-22T09:27:51.999Z</time></trkpt><trkpt lat="40.142188" lon="8.7725148"><ele>341.1666666666667</ele><time>2026-04-22T09:27:52.998Z</time></trkpt><trkpt lat="40.142127" lon="8.7723682"><ele>341.0</ele><time>2026-04-22T09:27:54.994Z</time></trkpt><trkpt lat="40.142093" lon="8.7722903"><ele>340.85714285714283</ele><time>2026-04-22T09:27:55.997Z</time></trkpt><trkpt lat="40.1420581" lon="8.7722093"><ele>340.7142857142857</ele><time>2026-04-22T09:27:56.997Z</time></trkpt><trkpt lat="40.1420238" lon="8.772126"><ele>340.57142857142856</ele><time>2026-04-22T09:27:58Z</time></trkpt><trkpt lat="40.1419873" lon="8.772048"><ele>340.42857142857144</ele><time>2026-04-22T09:27:59Z</time></trkpt><trkpt lat="40.1419474" lon="8.7719718"><ele>340.2857142857143</ele><time>2026-04-22T09:28:00Z</time></trkpt><trkpt lat="40.1419051" lon="8.7718953"><ele>340.14285714285717</ele><time>2026-04-22T09:28:00.999Z</time></trkpt><trkpt lat="40.1418536" lon="8.7718228"><ele>340.0</ele><time>2026-04-22T09:28:01.999Z</time></trkpt><trkpt lat="40.1418099" lon="8.7717505"><ele>339.8</ele><time>2026-04-22T09:28:02.993Z</time></trkpt><trkpt lat="40.1417632" lon="8.7716939"><ele>339.6</ele><time>2026-04-22T09:28:03.996Z</time></trkpt><trkpt lat="40.1416798" lon="8.771586"><ele>339.4</ele><time>2026-04-22T09:28:05.999Z</time></trkpt><trkpt lat="40.1416199" lon="8.7714664"><ele>339.2</ele><time>2026-04-22T09:28:08Z</time></trkpt><trkpt lat="40.141584" lon="8.7713508"><ele>339.0</ele><time>2026-04-22T09:28:09.999Z</time></trkpt><trkpt lat="40.141543" lon="8.7712527"><ele>339.0</ele><time>2026-04-22T09:28:11.999Z</time></trkpt><trkpt lat="40.1415003" lon="8.7711838"><ele>339.0</ele><time>2026-04-22T09:28:14Z</time></trkpt><trkpt lat="40.1414345" lon="8.7711993"><ele>339.0</ele><time>2026-04-22T09:28:16.999Z</time></trkpt><trkpt lat="40.141347" lon="8.7712668"><ele>339.0</ele><time>2026-04-22T09:28:20.056Z</time></trkpt><trkpt lat="40.1412826" lon="8.7712942"><ele>339.0</ele><time>2026-04-22T09:28:21.151Z</time></trkpt><trkpt lat="40.1411625" lon="8.7713415"><ele>339.0</ele><time>2026-04-22T09:28:22.662Z</time></trkpt><trkpt lat="40.1409601" lon="8.7714173"><ele>339.0</ele><time>2026-04-22T09:28:23.987Z</time></trkpt><trkpt lat="40.1408836" lon="8.7714487"><ele>339.0</ele><time>2026-04-22T09:28:24.995Z</time></trkpt><trkpt lat="40.1408165" lon="8.7714745"><ele>339.0</ele><time>2026-04-22T09:28:25.999Z</time></trkpt><trkpt lat="40.1407327" lon="8.7714775"><ele>339.0</ele><time>2026-04-22T09:28:28Z</time></trkpt><trkpt lat="40.1406807" lon="8.7713902"><ele>339.0</ele><time>2026-04-22T09:28:30.538Z</time></trkpt><trkpt lat="40.1406344" lon="8.7713241"><ele>339.0</ele><time>2026-04-22T09:28:32.591Z</time></trkpt><trkpt lat="40.1405601" lon="8.771285"><ele>338.6666666666667</ele><time>2026-04-22T09:28:36.62Z</time></trkpt><trkpt lat="40.1404762" lon="8.7712874"><ele>338.3333333333333</ele><time>2026-04-22T09:28:37.627Z</time></trkpt><trkpt lat="40.1403627" lon="8.7712945"><ele>338.0</ele><time>2026-04-22T09:28:39.741Z</time></trkpt><trkpt lat="40.1402931" lon="8.7712806"><ele>337.66666666666663</ele><time>2026-04-22T09:28:41.776Z</time></trkpt><trkpt lat="40.1402105" lon="8.7712387"><ele>337.3333333333333</ele><time>2026-04-22T09:28:43.79Z</time></trkpt><trkpt lat="40.1401468" lon="8.7711625"><ele>337.0</ele><time>2026-04-22T09:28:48.845Z</time></trkpt><trkpt lat="40.1400795" lon="8.7710755"><ele>337.0</ele><time>2026-04-22T09:28:49.849Z</time></trkpt><trkpt lat="40.1400072" lon="8.7709878"><ele>337.0</ele><time>2026-04-22T09:28:50.862Z</time></trkpt><trkpt lat="40.1399527" lon="8.7709185"><ele>337.0</ele><time>2026-04-22T09:28:52.874Z</time></trkpt><trkpt lat="40.1398933" lon="8.7709517"><ele>337.0</ele><time>2026-04-22T09:29:02.994Z</time></trkpt><trkpt lat="40.139828" lon="8.7709896"><ele>337.0</ele><time>2026-04-22T09:29:05.101Z</time></trkpt><trkpt lat="40.1397586" lon="8.7710073"><ele>337.0</ele><time>2026-04-22T09:29:09.129Z</time></trkpt><trkpt lat="40.1396728" lon="8.7709626"><ele>336.66666666666663</ele><time>2026-04-22T09:29:11.142Z</time></trkpt><trkpt lat="40.1396082" lon="8.7709233"><ele>336.3333333333333</ele><time>2026-04-22T09:29:12.15Z</time></trkpt><trkpt lat="40.1395649" lon="8.7708248"><ele>336.0</ele><time>2026-04-22T09:29:19.702Z</time></trkpt><trkpt lat="40.1396068" lon="8.7706962"><ele>335.6666666666667</ele><time>2026-04-22T09:29:21.716Z</time></trkpt><trkpt lat="40.1396429" lon="8.7705745"><ele>335.33333333333337</ele><time>2026-04-22T09:29:22.996Z</time></trkpt><trkpt lat="40.1396754" lon="8.7704773"><ele>335.0</ele><time>2026-04-22T09:29:23.998Z</time></trkpt><trkpt lat="40.1396991" lon="8.770384"><ele>335.0</ele><time>2026-04-22T09:29:24.996Z</time></trkpt><trkpt lat="40.1397203" lon="8.7702846"><ele>335.0</ele><time>2026-04-22T09:29:25.999Z</time></trkpt><trkpt lat="40.1397429" lon="8.7701842"><ele>335.0</ele><time>2026-04-22T09:29:26.999Z</time></trkpt><trkpt lat="40.1397737" lon="8.770083"><ele>335.0</ele><time>2026-04-22T09:29:27.999Z</time></trkpt><trkpt lat="40.1397971" lon="8.769974"><ele>335.0</ele><time>2026-04-22T09:29:28.999Z</time></trkpt><trkpt lat="40.1398156" lon="8.7698644"><ele>335.0</ele><time>2026-04-22T09:29:30Z</time></trkpt><trkpt lat="40.139836" lon="8.7697483"><ele>335.0</ele><time>2026-04-22T09:29:31Z</time></trkpt><trkpt lat="40.1398627" lon="8.7696312"><ele>335.0</ele><time>2026-04-22T09:29:31.999Z</time></trkpt><trkpt lat="40.1398846" lon="8.7695122"><ele>335.0</ele><time>2026-04-22T09:29:32.999Z</time></trkpt><trkpt lat="40.139908" lon="8.7694"><ele>335.0</ele><time>2026-04-22T09:29:34Z</time></trkpt><trkpt lat="40.1399337" lon="8.7692859"><ele>335.0</ele><time>2026-04-22T09:29:34.992Z</time></trkpt><trkpt lat="40.1399561" lon="8.7691594"><ele>335.0</ele><time>2026-04-22T09:29:35.999Z</time></trkpt><trkpt lat="40.1399808" lon="8.7690323"><ele>335.0</ele><time>2026-04-22T09:29:36.995Z</time></trkpt><trkpt lat="40.1400139" lon="8.7689029"><ele>335.0</ele><time>2026-04-22T09:29:37.998Z</time></trkpt><trkpt lat="40.1400453" lon="8.7687524"><ele>335.0</ele><time>2026-04-22T09:29:39Z</time></trkpt><trkpt lat="40.1400767" lon="8.7686017"><ele>335.0</ele><time>2026-04-22T09:29:40Z</time></trkpt><trkpt lat="40.1401054" lon="8.7684523"><ele>334.75</ele><time>2026-04-22T09:29:40.999Z</time></trkpt><trkpt lat="40.1401366" lon="8.768302"><ele>334.5</ele><time>2026-04-22T09:29:41.992Z</time></trkpt><trkpt lat="40.1401682" lon="8.7681499"><ele>334.25</ele><time>2026-04-22T09:29:42.999Z</time></trkpt><trkpt lat="40.1401978" lon="8.7679968"><ele>334.0</ele><time>2026-04-22T09:29:44Z</time></trkpt><trkpt lat="40.1402293" lon="8.7678434"><ele>334.0</ele><time>2026-04-22T09:29:44.994Z</time></trkpt><trkpt lat="40.1402591" lon="8.7676847"><ele>334.0</ele><time>2026-04-22T09:29:45.999Z</time></trkpt><trkpt lat="40.1402877" lon="8.7675285"><ele>334.0</ele><time>2026-04-22T09:29:46.999Z</time></trkpt><trkpt lat="40.1403244" lon="8.7673752"><ele>334.0</ele><time>2026-04-22T09:29:47.999Z</time></trkpt><trkpt lat="40.1403567" lon="8.7672237"><ele>334.0</ele><time>2026-04-22T09:29:48.99Z</time></trkpt><trkpt lat="40.1403784" lon="8.7670657"><ele>334.0</ele><time>2026-04-22T09:29:49.999Z</time></trkpt><trkpt lat="40.1403935" lon="8.7669058"><ele>334.0</ele><time>2026-04-22T09:29:50.999Z</time></trkpt><trkpt lat="40.1404071" lon="8.7667489"><ele>334.0</ele><time>2026-04-22T09:29:51.992Z</time></trkpt><trkpt lat="40.1404031" lon="8.7665853"><ele>334.25</ele><time>2026-04-22T09:29:52.999Z</time></trkpt><trkpt lat="40.1403913" lon="8.7664255"><ele>334.5</ele><time>2026-04-22T09:29:53.999Z</time></trkpt><trkpt lat="40.14038" lon="8.766267"><ele>334.75</ele><time>2026-04-22T09:29:54.994Z</time></trkpt><trkpt lat="40.1403595" lon="8.7661059"><ele>335.0</ele><time>2026-04-22T09:29:55.999Z</time></trkpt><trkpt lat="40.1403397" lon="8.7659507"><ele>335.0</ele><time>2026-04-22T09:29:56.996Z</time></trkpt><trkpt lat="40.1403243" lon="8.7657912"><ele>335.0</ele><time>2026-04-22T09:29:57.999Z</time></trkpt><trkpt lat="40.1403116" lon="8.7656337"><ele>335.0</ele><time>2026-04-22T09:29:59Z</time></trkpt><trkpt lat="40.1403012" lon="8.765481"><ele>335.0</ele><time>2026-04-22T09:29:59.999Z</time></trkpt><trkpt lat="40.1402903" lon="8.7653304"><ele>335.0</ele><time>2026-04-22T09:30:00.999Z</time></trkpt><trkpt lat="40.1402795" lon="8.7651929"><ele>335.0</ele><time>2026-04-22T09:30:01.999Z</time></trkpt><trkpt lat="40.1402707" lon="8.7650614"><ele>335.0</ele><time>2026-04-22T09:30:03Z</time></trkpt><trkpt lat="40.1402634" lon="8.7649409"><ele>335.0</ele><time>2026-04-22T09:30:04Z</time></trkpt><trkpt lat="40.1402562" lon="8.7648366"><ele>335.0</ele><time>2026-04-22T09:30:04.999Z</time></trkpt><trkpt lat="40.140252" lon="8.7647467"><ele>335.0</ele><time>2026-04-22T09:30:06Z</time></trkpt><trkpt lat="40.1402671" lon="8.7645898"><ele>335.0</ele><time>2026-04-22T09:30:08Z</time></trkpt><trkpt lat="40.14033" lon="8.7644529"><ele>335.0</ele><time>2026-04-22T09:30:10Z</time></trkpt><trkpt lat="40.1403754" lon="8.764391"><ele>335.0</ele><time>2026-04-22T09:30:10.995Z</time></trkpt><trkpt lat="40.140436" lon="8.7643296"><ele>335.0</ele><time>2026-04-22T09:30:11.999Z</time></trkpt><trkpt lat="40.1405057" lon="8.7642611"><ele>335.0</ele><time>2026-04-22T09:30:12.999Z</time></trkpt><trkpt lat="40.1405677" lon="8.7641864"><ele>335.0</ele><time>2026-04-22T09:30:13.999Z</time></trkpt><trkpt lat="40.1406326" lon="8.7641142"><ele>334.6666666666667</ele><time>2026-04-22T09:30:15Z</time></trkpt><trkpt lat="40.1406862" lon="8.7640356"><ele>334.33333333333337</ele><time>2026-04-22T09:30:15.999Z</time></trkpt><trkpt lat="40.1407413" lon="8.7639591"><ele>334.0</ele><time>2026-04-22T09:30:16.993Z</time></trkpt><trkpt lat="40.1408013" lon="8.7638775"><ele>333.6666666666667</ele><time>2026-04-22T09:30:17.999Z</time></trkpt><trkpt lat="40.1408576" lon="8.7638104"><ele>333.3333333333333</ele><time>2026-04-22T09:30:18.999Z</time></trkpt><trkpt lat="40.1409149" lon="8.7637465"><ele>333.0</ele><time>2026-04-22T09:30:19.999Z</time></trkpt><trkpt lat="40.1409713" lon="8.7636757"><ele>333.6666666666667</ele><time>2026-04-22T09:30:20.999Z</time></trkpt><trkpt lat="40.1410253" lon="8.7636014"><ele>334.3333333333333</ele><time>2026-04-22T09:30:21.999Z</time></trkpt><trkpt lat="40.1410825" lon="8.7635266"><ele>335.0</ele><time>2026-04-22T09:30:22.991Z</time></trkpt><trkpt lat="40.1411371" lon="8.7634483"><ele>335.66666666666663</ele><time>2026-04-22T09:30:23.996Z</time></trkpt><trkpt lat="40.1411936" lon="8.7633706"><ele>336.3333333333333</ele><time>2026-04-22T09:30:24.999Z</time></trkpt><trkpt lat="40.1412555" lon="8.7632932"><ele>337.0</ele><time>2026-04-22T09:30:26Z</time></trkpt><trkpt lat="40.1413081" lon="8.7632165"><ele>337.16666666666663</ele><time>2026-04-22T09:30:26.999Z</time></trkpt><trkpt lat="40.1413617" lon="8.7631393"><ele>337.3333333333333</ele><time>2026-04-22T09:30:28Z</time></trkpt><trkpt lat="40.1414235" lon="8.763062"><ele>337.5</ele><time>2026-04-22T09:30:29Z</time></trkpt><trkpt lat="40.1414897" lon="8.7629918"><ele>337.6666666666667</ele><time>2026-04-22T09:30:30Z</time></trkpt><trkpt lat="40.1415566" lon="8.7629337"><ele>337.83333333333337</ele><time>2026-04-22T09:30:30.999Z</time></trkpt><trkpt lat="40.1416308" lon="8.7628804"><ele>338.0</ele><time>2026-04-22T09:30:31.999Z</time></trkpt><trkpt lat="40.1417139" lon="8.762828"><ele>338.0</ele><time>2026-04-22T09:30:32.999Z</time></trkpt><trkpt lat="40.1417902" lon="8.7627807"><ele>338.0</ele><time>2026-04-22T09:30:33.999Z</time></trkpt><trkpt lat="40.1418719" lon="8.7627466"><ele>338.0</ele><time>2026-04-22T09:30:34.999Z</time></trkpt><trkpt lat="40.141957" lon="8.7627218"><ele>338.0</ele><time>2026-04-22T09:30:35.991Z</time></trkpt><trkpt lat="40.1420562" lon="8.7627019"><ele>338.0</ele><time>2026-04-22T09:30:36.996Z</time></trkpt><trkpt lat="40.1421592" lon="8.7626918"><ele>338.4</ele><time>2026-04-22T09:30:37.995Z</time></trkpt><trkpt lat="40.1422537" lon="8.7626915"><ele>338.79999999999995</ele><time>2026-04-22T09:30:38.999Z</time></trkpt><trkpt lat="40.1423551" lon="8.7626927"><ele>339.2</ele><time>2026-04-22T09:30:40Z</time></trkpt><trkpt lat="40.142475" lon="8.7626918"><ele>339.6</ele><time>2026-04-22T09:30:40.999Z</time></trkpt><trkpt lat="40.1425965" lon="8.7626989"><ele>340.0</ele><time>2026-04-22T09:30:41.999Z</time></trkpt><trkpt lat="40.1427128" lon="8.7626996"><ele>340.0</ele><time>2026-04-22T09:30:43Z</time></trkpt><trkpt lat="40.1428262" lon="8.762698"><ele>340.0</ele><time>2026-04-22T09:30:43.999Z</time></trkpt><trkpt lat="40.1429356" lon="8.7627047"><ele>340.0</ele><time>2026-04-22T09:30:45Z</time></trkpt><trkpt lat="40.1430382" lon="8.7627086"><ele>340.0</ele><time>2026-04-22T09:30:45.999Z</time></trkpt><trkpt lat="40.1431409" lon="8.7627059"><ele>340.0</ele><time>2026-04-22T09:30:46.999Z</time></trkpt><trkpt lat="40.1432397" lon="8.7627056"><ele>340.6</ele><time>2026-04-22T09:30:47.999Z</time></trkpt><trkpt lat="40.1433448" lon="8.7627109"><ele>341.2</ele><time>2026-04-22T09:30:48.999Z</time></trkpt><trkpt lat="40.1434446" lon="8.762713"><ele>341.79999999999995</ele><time>2026-04-22T09:30:49.999Z</time></trkpt><trkpt lat="40.1435483" lon="8.7627112"><ele>342.4</ele><time>2026-04-22T09:30:50.999Z</time></trkpt><trkpt lat="40.1436621" lon="8.7627116"><ele>343.0</ele><time>2026-04-22T09:30:52Z</time></trkpt><trkpt lat="40.1437675" lon="8.7627105"><ele>343.0</ele><time>2026-04-22T09:30:53Z</time></trkpt><trkpt lat="40.1438715" lon="8.7627056"><ele>343.0</ele><time>2026-04-22T09:30:54Z</time></trkpt><trkpt lat="40.1439828" lon="8.762699"><ele>343.0</ele><time>2026-04-22T09:30:55Z</time></trkpt><trkpt lat="40.1440875" lon="8.7626937"><ele>343.0</ele><time>2026-04-22T09:30:56Z</time></trkpt><trkpt lat="40.1441984" lon="8.7627024"><ele>343.0</ele><time>2026-04-22T09:30:57Z</time></trkpt><trkpt lat="40.1443086" lon="8.7626999"><ele>343.59999999999997</ele><time>2026-04-22T09:30:57.999Z</time></trkpt><trkpt lat="40.1444159" lon="8.7626977"><ele>344.2</ele><time>2026-04-22T09:30:58.988Z</time></trkpt><trkpt lat="40.1445139" lon="8.7626973"><ele>344.8</ele><time>2026-04-22T09:30:59.999Z</time></trkpt><trkpt lat="40.1446203" lon="8.7627043"><ele>345.4</ele><time>2026-04-22T09:31:00.999Z</time></trkpt><trkpt lat="40.1447299" lon="8.7627095"><ele>346.0</ele><time>2026-04-22T09:31:01.999Z</time></trkpt><trkpt lat="40.1448368" lon="8.7627119"><ele>346.6</ele><time>2026-04-22T09:31:03Z</time></trkpt><trkpt lat="40.1449393" lon="8.7627133"><ele>347.20000000000005</ele><time>2026-04-22T09:31:03.999Z</time></trkpt><trkpt lat="40.145041" lon="8.762711"><ele>347.79999999999995</ele><time>2026-04-22T09:31:05Z</time></trkpt><trkpt lat="40.1451384" lon="8.7627094"><ele>348.4</ele><time>2026-04-22T09:31:05.992Z</time></trkpt><trkpt lat="40.1452294" lon="8.7627087"><ele>349.0</ele><time>2026-04-22T09:31:06.999Z</time></trkpt><trkpt lat="40.1453146" lon="8.7626932"><ele>349.2</ele><time>2026-04-22T09:31:07.999Z</time></trkpt><trkpt lat="40.145408" lon="8.7626607"><ele>349.4</ele><time>2026-04-22T09:31:08.999Z</time></trkpt><trkpt lat="40.1454924" lon="8.7626195"><ele>349.6</ele><time>2026-04-22T09:31:09.993Z</time></trkpt><trkpt lat="40.1455754" lon="8.7625622"><ele>349.8</ele><time>2026-04-22T09:31:10.999Z</time></trkpt><trkpt lat="40.1456565" lon="8.7624935"><ele>350.0</ele><time>2026-04-22T09:31:12Z</time></trkpt><trkpt lat="40.1457357" lon="8.7624246"><ele>350.6</ele><time>2026-04-22T09:31:12.993Z</time></trkpt><trkpt lat="40.1458158" lon="8.7623553"><ele>351.2</ele><time>2026-04-22T09:31:14Z</time></trkpt><trkpt lat="40.1458909" lon="8.7622917"><ele>351.79999999999995</ele><time>2026-04-22T09:31:14.999Z</time></trkpt><trkpt lat="40.1459635" lon="8.7622227"><ele>352.4</ele><time>2026-04-22T09:31:15.99Z</time></trkpt><trkpt lat="40.1460352" lon="8.7621446"><ele>353.0</ele><time>2026-04-22T09:31:16.999Z</time></trkpt><trkpt lat="40.1461045" lon="8.7620641"><ele>353.0</ele><time>2026-04-22T09:31:18Z</time></trkpt><trkpt lat="40.1461724" lon="8.7619907"><ele>353.0</ele><time>2026-04-22T09:31:18.989Z</time></trkpt><trkpt lat="40.1462342" lon="8.7619213"><ele>353.0</ele><time>2026-04-22T09:31:19.999Z</time></trkpt><trkpt lat="40.1463002" lon="8.7618519"><ele>353.0</ele><time>2026-04-22T09:31:20.994Z</time></trkpt><trkpt lat="40.1463647" lon="8.7617786"><ele>353.0</ele><time>2026-04-22T09:31:21.997Z</time></trkpt><trkpt lat="40.1464429" lon="8.7617076"><ele>353.0</ele><time>2026-04-22T09:31:22.999Z</time></trkpt><trkpt lat="40.1465265" lon="8.7616415"><ele>354.0</ele><time>2026-04-22T09:31:23.999Z</time></trkpt><trkpt lat="40.1466061" lon="8.7615689"><ele>355.0</ele><time>2026-04-22T09:31:24.992Z</time></trkpt><trkpt lat="40.14668" lon="8.7614876"><ele>356.0</ele><time>2026-04-22T09:31:25.991Z</time></trkpt><trkpt lat="40.1467509" lon="8.7613951"><ele>357.0</ele><time>2026-04-22T09:31:26.999Z</time></trkpt><trkpt lat="40.1468129" lon="8.7612917"><ele>358.0</ele><time>2026-04-22T09:31:27.999Z</time></trkpt><trkpt lat="40.1468747" lon="8.7611854"><ele>358.0</ele><time>2026-04-22T09:31:28.99Z</time></trkpt><trkpt lat="40.146937" lon="8.7610775"><ele>358.0</ele><time>2026-04-22T09:31:29.999Z</time></trkpt><trkpt lat="40.1469923" lon="8.7609583"><ele>358.0</ele><time>2026-04-22T09:31:31Z</time></trkpt><trkpt lat="40.1470537" lon="8.7608305"><ele>358.0</ele><time>2026-04-22T09:31:32Z</time></trkpt><trkpt lat="40.1471075" lon="8.7607039"><ele>358.0</ele><time>2026-04-22T09:31:32.999Z</time></trkpt><trkpt lat="40.1471579" lon="8.760576"><ele>358.59999999999997</ele><time>2026-04-22T09:31:34Z</time></trkpt><trkpt lat="40.147201" lon="8.7604528"><ele>359.2</ele><time>2026-04-22T09:31:34.999Z</time></trkpt><trkpt lat="40.1472446" lon="8.7603384"><ele>359.8</ele><time>2026-04-22T09:31:35.999Z</time></trkpt><trkpt lat="40.1472927" lon="8.7602329"><ele>360.4</ele><time>2026-04-22T09:31:36.999Z</time></trkpt><trkpt lat="40.1473537" lon="8.7601275"><ele>361.0</ele><time>2026-04-22T09:31:37.999Z</time></trkpt><trkpt lat="40.1474184" lon="8.7600305"><ele>363.8333333333333</ele><time>2026-04-22T09:31:39Z</time></trkpt><trkpt lat="40.1474857" lon="8.7599351"><ele>366.66666666666663</ele><time>2026-04-22T09:31:40Z</time></trkpt><trkpt lat="40.1475492" lon="8.7598607"><ele>369.5</ele><time>2026-04-22T09:31:40.999Z</time></trkpt><trkpt lat="40.1476164" lon="8.7597994"><ele>372.3333333333333</ele><time>2026-04-22T09:31:41.999Z</time></trkpt><trkpt lat="40.1476898" lon="8.7597437"><ele>375.1666666666667</ele><time>2026-04-22T09:31:42.999Z</time></trkpt><trkpt lat="40.1477601" lon="8.7596836"><ele>378.0</ele><time>2026-04-22T09:31:44Z</time></trkpt><trkpt lat="40.1478442" lon="8.7596277"><ele>378.0</ele><time>2026-04-22T09:31:45Z</time></trkpt><trkpt lat="40.147937" lon="8.7595745"><ele>378.0</ele><time>2026-04-22T09:31:45.991Z</time></trkpt><trkpt lat="40.1480385" lon="8.7595266"><ele>378.0</ele><time>2026-04-22T09:31:46.996Z</time></trkpt><trkpt lat="40.1481371" lon="8.7594743"><ele>378.0</ele><time>2026-04-22T09:31:47.999Z</time></trkpt><trkpt lat="40.1482337" lon="8.7594126"><ele>378.0</ele><time>2026-04-22T09:31:48.991Z</time></trkpt><trkpt lat="40.1483211" lon="8.759358"><ele>379.1666666666667</ele><time>2026-04-22T09:31:50Z</time></trkpt><trkpt lat="40.1484052" lon="8.7593123"><ele>380.33333333333337</ele><time>2026-04-22T09:31:51Z</time></trkpt><trkpt lat="40.1484906" lon="8.7592643"><ele>381.5</ele><time>2026-04-22T09:31:51.989Z</time></trkpt><trkpt lat="40.1485639" lon="8.7592127"><ele>382.6666666666667</ele><time>2026-04-22T09:31:52.993Z</time></trkpt><trkpt lat="40.1486402" lon="8.759167"><ele>383.83333333333337</ele><time>2026-04-22T09:31:53.999Z</time></trkpt><trkpt lat="40.1487327" lon="8.7591323"><ele>385.0</ele><time>2026-04-22T09:31:55Z</time></trkpt><trkpt lat="40.1488033" lon="8.7591112"><ele>385.0</ele><time>2026-04-22T09:31:55.999Z</time></trkpt><trkpt lat="40.1488826" lon="8.7590705"><ele>385.0</ele><time>2026-04-22T09:31:57.997Z</time></trkpt><trkpt lat="40.1489227" lon="8.7589479"><ele>385.0</ele><time>2026-04-22T09:32:01Z</time></trkpt><trkpt lat="40.148986" lon="8.7588032"><ele>385.0</ele><time>2026-04-22T09:32:03Z</time></trkpt><trkpt lat="40.1490441" lon="8.7586777"><ele>385.0</ele><time>2026-04-22T09:32:04.991Z</time></trkpt><trkpt lat="40.1490901" lon="8.7585338"><ele>385.00000000000006</ele><time>2026-04-22T09:32:07Z</time></trkpt><trkpt lat="40.1491246" lon="8.7584547"><ele>385.0</ele><time>2026-04-22T09:32:07.999Z</time></trkpt><trkpt lat="40.1491579" lon="8.7583669"><ele>385.0</ele><time>2026-04-22T09:32:08.999Z</time></trkpt><trkpt lat="40.1491961" lon="8.7582633"><ele>385.0</ele><time>2026-04-22T09:32:09.999Z</time></trkpt><trkpt lat="40.1492354" lon="8.7581579"><ele>385.00000000000006</ele><time>2026-04-22T09:32:10.999Z</time></trkpt><trkpt lat="40.1492632" lon="8.7580504"><ele>385.0</ele><time>2026-04-22T09:32:12Z</time></trkpt><trkpt lat="40.1492873" lon="8.7579492"><ele>385.0</ele><time>2026-04-22T09:32:12.999Z</time></trkpt><trkpt lat="40.1493093" lon="8.7578583"><ele>385.0</ele><time>2026-04-22T09:32:13.999Z</time></trkpt><trkpt lat="40.1493309" lon="8.757772"><ele>385.0</ele><time>2026-04-22T09:32:14.999Z</time></trkpt><trkpt lat="40.1493583" lon="8.7576849"><ele>385.0</ele><time>2026-04-22T09:32:16Z</time></trkpt><trkpt lat="40.1493848" lon="8.7575929"><ele>385.0</ele><time>2026-04-22T09:32:16.999Z</time></trkpt><trkpt lat="40.1494144" lon="8.757504"><ele>385.0</ele><time>2026-04-22T09:32:18Z</time></trkpt><trkpt lat="40.1494576" lon="8.7574284"><ele>385.0</ele><time>2026-04-22T09:32:19Z</time></trkpt><trkpt lat="40.1495034" lon="8.7573468"><ele>385.42857142857144</ele><time>2026-04-22T09:32:20Z</time></trkpt><trkpt lat="40.1495625" lon="8.7572745"><ele>385.8571428571429</ele><time>2026-04-22T09:32:21Z</time></trkpt><trkpt lat="40.1496116" lon="8.7572028"><ele>386.2857142857143</ele><time>2026-04-22T09:32:21.999Z</time></trkpt><trkpt lat="40.1496606" lon="8.7571348"><ele>386.7142857142857</ele><time>2026-04-22T09:32:22.999Z</time></trkpt><trkpt lat="40.1497097" lon="8.7570657"><ele>387.14285714285717</ele><time>2026-04-22T09:32:24Z</time></trkpt><trkpt lat="40.14976" lon="8.7569964"><ele>387.57142857142856</ele><time>2026-04-22T09:32:24.998Z</time></trkpt><trkpt lat="40.1498053" lon="8.7569269"><ele>388.0</ele><time>2026-04-22T09:32:25.985Z</time></trkpt><trkpt lat="40.149858" lon="8.7568668"><ele>388.33333333333337</ele><time>2026-04-22T09:32:27Z</time></trkpt><trkpt lat="40.149909" lon="8.7568093"><ele>388.6666666666667</ele><time>2026-04-22T09:32:27.999Z</time></trkpt><trkpt lat="40.1499588" lon="8.7567479"><ele>389.0</ele><time>2026-04-22T09:32:28.992Z</time></trkpt><trkpt lat="40.1499891" lon="8.7566661"><ele>389.33333333333337</ele><time>2026-04-22T09:32:29.995Z</time></trkpt><trkpt lat="40.1500227" lon="8.7565652"><ele>389.6666666666667</ele><time>2026-04-22T09:32:31Z</time></trkpt><trkpt lat="40.150049" lon="8.7564572"><ele>390.0</ele><time>2026-04-22T09:32:31.999Z</time></trkpt><trkpt lat="40.1500809" lon="8.7563527"><ele>390.0</ele><time>2026-04-22T09:32:32.993Z</time></trkpt><trkpt lat="40.1501174" lon="8.7562672"><ele>390.0</ele><time>2026-04-22T09:32:34Z</time></trkpt><trkpt lat="40.1501459" lon="8.7561842"><ele>390.0</ele><time>2026-04-22T09:32:34.999Z</time></trkpt><trkpt lat="40.1501789" lon="8.7561013"><ele>390.0</ele><time>2026-04-22T09:32:35.998Z</time></trkpt><trkpt lat="40.1502111" lon="8.7560234"><ele>390.0</ele><time>2026-04-22T09:32:36.988Z</time></trkpt><trkpt lat="40.1502411" lon="8.7559423"><ele>390.0</ele><time>2026-04-22T09:32:37.999Z</time></trkpt><trkpt lat="40.1502825" lon="8.755858"><ele>390.0</ele><time>2026-04-22T09:32:39Z</time></trkpt><trkpt lat="40.1503242" lon="8.7557745"><ele>390.1666666666667</ele><time>2026-04-22T09:32:39.992Z</time></trkpt><trkpt lat="40.1503752" lon="8.7556797"><ele>390.33333333333337</ele><time>2026-04-22T09:32:41Z</time></trkpt><trkpt lat="40.1504349" lon="8.7555852"><ele>390.5</ele><time>2026-04-22T09:32:41.999Z</time></trkpt><trkpt lat="40.1504942" lon="8.7554979"><ele>390.6666666666667</ele><time>2026-04-22T09:32:42.991Z</time></trkpt><trkpt lat="40.1505474" lon="8.7554071"><ele>390.83333333333337</ele><time>2026-04-22T09:32:43.999Z</time></trkpt><trkpt lat="40.1505952" lon="8.7553232"><ele>391.0</ele><time>2026-04-22T09:32:45Z</time></trkpt><trkpt lat="40.1506505" lon="8.7552345"><ele>391.20000000000005</ele><time>2026-04-22T09:32:46Z</time></trkpt><trkpt lat="40.1507087" lon="8.7551335"><ele>391.40000000000003</ele><time>2026-04-22T09:32:46.999Z</time></trkpt><trkpt lat="40.1507686" lon="8.7550329"><ele>391.6</ele><time>2026-04-22T09:32:47.992Z</time></trkpt><trkpt lat="40.150823" lon="8.7549362"><ele>391.8</ele><time>2026-04-22T09:32:48.999Z</time></trkpt><trkpt lat="40.1508795" lon="8.7548376"><ele>392.0</ele><time>2026-04-22T09:32:49.999Z</time></trkpt><trkpt lat="40.1509377" lon="8.7547359"><ele>391.99999999999994</ele><time>2026-04-22T09:32:51Z</time></trkpt><trkpt lat="40.1509859" lon="8.7546303"><ele>392.0</ele><time>2026-04-22T09:32:52Z</time></trkpt><trkpt lat="40.1510387" lon="8.7545312"><ele>392.0</ele><time>2026-04-22T09:32:52.99Z</time></trkpt><trkpt lat="40.1510948" lon="8.7544382"><ele>392.0</ele><time>2026-04-22T09:32:53.999Z</time></trkpt><trkpt lat="40.1511455" lon="8.7543598"><ele>391.99999999999994</ele><time>2026-04-22T09:32:54.999Z</time></trkpt><trkpt lat="40.1512028" lon="8.7542844"><ele>392.0</ele><time>2026-04-22T09:32:55.99Z</time></trkpt><trkpt lat="40.1512722" lon="8.7542193"><ele>391.99999999999994</ele><time>2026-04-22T09:32:56.999Z</time></trkpt><trkpt lat="40.1513363" lon="8.7541478"><ele>392.0</ele><time>2026-04-22T09:32:57.993Z</time></trkpt><trkpt lat="40.1513976" lon="8.7540728"><ele>392.0</ele><time>2026-04-22T09:32:58.999Z</time></trkpt><trkpt lat="40.1514585" lon="8.7539923"><ele>392.0</ele><time>2026-04-22T09:32:59.999Z</time></trkpt><trkpt lat="40.1515167" lon="8.7539151"><ele>391.99999999999994</ele><time>2026-04-22T09:33:00.99Z</time></trkpt><trkpt lat="40.151572" lon="8.7538401"><ele>392.0</ele><time>2026-04-22T09:33:01.999Z</time></trkpt><trkpt lat="40.1516206" lon="8.7537776"><ele>392.0</ele><time>2026-04-22T09:33:02.999Z</time></trkpt><trkpt lat="40.1516688" lon="8.7537181"><ele>392.0</ele><time>2026-04-22T09:33:03.999Z</time></trkpt><trkpt lat="40.1517603" lon="8.7536147"><ele>392.0</ele><time>2026-04-22T09:33:05.999Z</time></trkpt><trkpt lat="40.1518419" lon="8.7535012"><ele>392.0</ele><time>2026-04-22T09:33:08Z</time></trkpt><trkpt lat="40.1518806" lon="8.7534352"><ele>392.0</ele><time>2026-04-22T09:33:08.995Z</time></trkpt><trkpt lat="40.1519603" lon="8.7533216"><ele>391.8333333333333</ele><time>2026-04-22T09:33:10.999Z</time></trkpt><trkpt lat="40.1520338" lon="8.7532044"><ele>391.66666666666663</ele><time>2026-04-22T09:33:12.999Z</time></trkpt><trkpt lat="40.1521046" lon="8.7530768"><ele>391.5</ele><time>2026-04-22T09:33:14.999Z</time></trkpt><trkpt lat="40.1521559" lon="8.7530065"><ele>391.33333333333337</ele><time>2026-04-22T09:33:16Z</time></trkpt><trkpt lat="40.1522034" lon="8.7529377"><ele>391.1666666666667</ele><time>2026-04-22T09:33:16.991Z</time></trkpt><trkpt lat="40.1522529" lon="8.7528787"><ele>391.0</ele><time>2026-04-22T09:33:17.996Z</time></trkpt><trkpt lat="40.1523001" lon="8.7528242"><ele>391.20000000000005</ele><time>2026-04-22T09:33:19Z</time></trkpt><trkpt lat="40.1523775" lon="8.7527202"><ele>391.40000000000003</ele><time>2026-04-22T09:33:20.999Z</time></trkpt><trkpt lat="40.1524544" lon="8.752609"><ele>391.6</ele><time>2026-04-22T09:33:22.989Z</time></trkpt><trkpt lat="40.1525425" lon="8.7525107"><ele>391.8</ele><time>2026-04-22T09:33:24.999Z</time></trkpt><trkpt lat="40.1525918" lon="8.7524567"><ele>392.0</ele><time>2026-04-22T09:33:25.992Z</time></trkpt><trkpt lat="40.1526779" lon="8.7523541"><ele>391.40000000000003</ele><time>2026-04-22T09:33:28Z</time></trkpt><trkpt lat="40.1527491" lon="8.7522493"><ele>390.8</ele><time>2026-04-22T09:33:29.996Z</time></trkpt><trkpt lat="40.152799" lon="8.7521315"><ele>390.2</ele><time>2026-04-22T09:33:31.999Z</time></trkpt><trkpt lat="40.1528442" lon="8.7520269"><ele>389.6</ele><time>2026-04-22T09:33:33.997Z</time></trkpt><trkpt lat="40.1529045" lon="8.7519496"><ele>389.0</ele><time>2026-04-22T09:33:36Z</time></trkpt><trkpt lat="40.1529852" lon="8.7518804"><ele>388.66666666666663</ele><time>2026-04-22T09:33:38.999Z</time></trkpt><trkpt lat="40.1530455" lon="8.7518482"><ele>388.3333333333333</ele><time>2026-04-22T09:33:40.999Z</time></trkpt><trkpt lat="40.1531115" lon="8.7518011"><ele>388.0</ele><time>2026-04-22T09:33:42.998Z</time></trkpt><trkpt lat="40.1531736" lon="8.7517598"><ele>387.66666666666663</ele><time>2026-04-22T09:33:45.209Z</time></trkpt><trkpt lat="40.1532626" lon="8.7517123"><ele>387.3333333333333</ele><time>2026-04-22T09:33:47.747Z</time></trkpt><trkpt lat="40.1533477" lon="8.7516442"><ele>387.0</ele><time>2026-04-22T09:33:50.769Z</time></trkpt><trkpt lat="40.1534085" lon="8.7515646"><ele>387.0</ele><time>2026-04-22T09:33:53.79Z</time></trkpt><trkpt lat="40.1534461" lon="8.7514939"><ele>387.0</ele><time>2026-04-22T09:33:58.865Z</time></trkpt><trkpt lat="40.1534848" lon="8.7514079"><ele>387.0</ele><time>2026-04-22T09:34:01.907Z</time></trkpt><trkpt lat="40.1535257" lon="8.751326"><ele>387.0</ele><time>2026-04-22T09:34:03.999Z</time></trkpt><trkpt lat="40.1535864" lon="8.7512439"><ele>387.0</ele><time>2026-04-22T09:34:06.057Z</time></trkpt><trkpt lat="40.1536464" lon="8.75117"><ele>387.0</ele><time>2026-04-22T09:34:08.072Z</time></trkpt><trkpt lat="40.1537095" lon="8.7510881"><ele>386.8571428571429</ele><time>2026-04-22T09:34:10.084Z</time></trkpt><trkpt lat="40.1537587" lon="8.751023"><ele>386.7142857142857</ele><time>2026-04-22T09:34:11.092Z</time></trkpt><trkpt lat="40.1538133" lon="8.7509632"><ele>386.57142857142856</ele><time>2026-04-22T09:34:12.602Z</time></trkpt><trkpt lat="40.1538726" lon="8.75091"><ele>386.42857142857144</ele><time>2026-04-22T09:34:14.617Z</time></trkpt><trkpt lat="40.1539155" lon="8.7508308"><ele>386.2857142857143</ele><time>2026-04-22T09:34:16.639Z</time></trkpt><trkpt lat="40.1539606" lon="8.7507685"><ele>386.14285714285717</ele><time>2026-04-22T09:34:20.72Z</time></trkpt><trkpt lat="40.1539955" lon="8.7506845"><ele>386.0</ele><time>2026-04-22T09:34:23.76Z</time></trkpt><trkpt lat="40.1540456" lon="8.7505604"><ele>385.99999999999994</ele><time>2026-04-22T09:34:25.795Z</time></trkpt><trkpt lat="40.1540857" lon="8.7504231"><ele>386.0</ele><time>2026-04-22T09:34:27.809Z</time></trkpt><trkpt lat="40.1541029" lon="8.7503123"><ele>386.0</ele><time>2026-04-22T09:34:29.914Z</time></trkpt><trkpt lat="40.1541127" lon="8.7502235"><ele>386.0</ele><time>2026-04-22T09:34:31.998Z</time></trkpt><trkpt lat="40.1541175" lon="8.7501391"><ele>385.99999999999994</ele><time>2026-04-22T09:34:35.617Z</time></trkpt><trkpt lat="40.1541689" lon="8.7500458"><ele>386.0</ele><time>2026-04-22T09:34:39.702Z</time></trkpt><trkpt lat="40.1542264" lon="8.7499878"><ele>384.8333333333333</ele><time>2026-04-22T09:34:42.734Z</time></trkpt><trkpt lat="40.1542724" lon="8.7499284"><ele>383.66666666666663</ele><time>2026-04-22T09:34:44.747Z</time></trkpt><trkpt lat="40.1543178" lon="8.7498623"><ele>382.5</ele><time>2026-04-22T09:34:53.892Z</time></trkpt><trkpt lat="40.154376" lon="8.7497837"><ele>381.3333333333333</ele><time>2026-04-22T09:34:56.933Z</time></trkpt><trkpt lat="40.1543977" lon="8.7496798"><ele>380.16666666666663</ele><time>2026-04-22T09:35:00.056Z</time></trkpt><trkpt lat="40.1543725" lon="8.7495949"><ele>379.0</ele><time>2026-04-22T09:35:03.993Z</time></trkpt><trkpt lat="40.1543636" lon="8.7494783"><ele>380.16666666666663</ele><time>2026-04-22T09:35:08.995Z</time></trkpt><trkpt lat="40.1543695" lon="8.7493732"><ele>381.3333333333333</ele><time>2026-04-22T09:35:10.995Z</time></trkpt><trkpt lat="40.1543748" lon="8.7492695"><ele>382.5</ele><time>2026-04-22T09:35:12.994Z</time></trkpt><trkpt lat="40.1543686" lon="8.7491843"><ele>383.66666666666663</ele><time>2026-04-22T09:35:14.994Z</time></trkpt><trkpt lat="40.1543563" lon="8.74909"><ele>384.8333333333333</ele><time>2026-04-22T09:35:16.996Z</time></trkpt><trkpt lat="40.1543402" lon="8.7489972"><ele>386.0</ele><time>2026-04-22T09:35:19Z</time></trkpt><trkpt lat="40.154316" lon="8.748889"><ele>385.99999999999994</ele><time>2026-04-22T09:35:20.999Z</time></trkpt><trkpt lat="40.1542951" lon="8.7487971"><ele>386.0</ele><time>2026-04-22T09:35:22.999Z</time></trkpt><trkpt lat="40.154289" lon="8.7487024"><ele>386.0</ele><time>2026-04-22T09:35:25Z</time></trkpt><trkpt lat="40.1542824" lon="8.748602"><ele>386.0</ele><time>2026-04-22T09:35:28Z</time></trkpt><trkpt lat="40.1542722" lon="8.7484936"><ele>385.99999999999994</ele><time>2026-04-22T09:35:31.999Z</time></trkpt><trkpt lat="40.154277" lon="8.7484001"><ele>386.0</ele><time>2026-04-22T09:35:35.997Z</time></trkpt><trkpt lat="40.1542918" lon="8.7483025"><ele>386.5714285714286</ele><time>2026-04-22T09:35:42.997Z</time></trkpt><trkpt lat="40.1542822" lon="8.7482089"><ele>387.14285714285717</ele><time>2026-04-22T09:35:46.997Z</time></trkpt><trkpt lat="40.1542899" lon="8.7481262"><ele>387.7142857142857</ele><time>2026-04-22T09:35:53.999Z</time></trkpt><trkpt lat="40.1542942" lon="8.7480434"><ele>388.28571428571433</ele><time>2026-04-22T09:35:57.997Z</time></trkpt><trkpt lat="40.1542892" lon="8.7481376"><ele>388.85714285714283</ele><time>2026-04-22T09:36:19Z</time></trkpt><trkpt lat="40.1542782" lon="8.7482257"><ele>389.42857142857144</ele><time>2026-04-22T09:36:21.999Z</time></trkpt><trkpt lat="40.1542637" lon="8.7483281"><ele>390.0</ele><time>2026-04-22T09:36:25.999Z</time></trkpt><trkpt lat="40.1542637" lon="8.7484173"><ele>390.0</ele><time>2026-04-22T09:36:29.999Z</time></trkpt><trkpt lat="40.1542659" lon="8.7485123"><ele>390.0</ele><time>2026-04-22T09:36:32.999Z</time></trkpt><trkpt lat="40.1542675" lon="8.7486331"><ele>390.0</ele><time>2026-04-22T09:36:36Z</time></trkpt><trkpt lat="40.1542664" lon="8.7487214"><ele>390.0</ele><time>2026-04-22T09:36:37.998Z</time></trkpt><trkpt lat="40.1542613" lon="8.7488193"><ele>390.0</ele><time>2026-04-22T09:36:40.999Z</time></trkpt><trkpt lat="40.1542584" lon="8.7489213"><ele>390.0</ele><time>2026-04-22T09:36:43.999Z</time></trkpt><trkpt lat="40.1542751" lon="8.7490135"><ele>389.42857142857144</ele><time>2026-04-22T09:36:46.999Z</time></trkpt><trkpt lat="40.1543043" lon="8.7491164"><ele>388.85714285714283</ele><time>2026-04-22T09:36:50.997Z</time></trkpt><trkpt lat="40.1543333" lon="8.7492094"><ele>388.28571428571433</ele><time>2026-04-22T09:36:53.999Z</time></trkpt><trkpt lat="40.1543469" lon="8.7492925"><ele>387.7142857142857</ele><time>2026-04-22T09:36:56.996Z</time></trkpt><trkpt lat="40.1543459" lon="8.7493822"><ele>387.14285714285717</ele><time>2026-04-22T09:36:59.998Z</time></trkpt><trkpt lat="40.1543511" lon="8.7494732"><ele>386.5714285714286</ele><time>2026-04-22T09:37:02.999Z</time></trkpt><trkpt lat="40.1543626" lon="8.7495621"><ele>386.0</ele><time>2026-04-22T09:37:04.998Z</time></trkpt><trkpt lat="40.1543797" lon="8.7496474"><ele>384.6</ele><time>2026-04-22T09:37:07Z</time></trkpt><trkpt lat="40.1543633" lon="8.7497375"><ele>383.20000000000005</ele><time>2026-04-22T09:37:09.999Z</time></trkpt><trkpt lat="40.1542998" lon="8.7498138"><ele>381.79999999999995</ele><time>2026-04-22T09:37:12.997Z</time></trkpt><trkpt lat="40.1542147" lon="8.749914"><ele>380.4</ele><time>2026-04-22T09:37:14.99Z</time></trkpt><trkpt lat="40.1541322" lon="8.750032"><ele>379.0</ele><time>2026-04-22T09:37:15.986Z</time></trkpt><trkpt lat="40.1540996" lon="8.7501217"><ele>379.16666666666663</ele><time>2026-04-22T09:37:16.993Z</time></trkpt><trkpt lat="40.1540854" lon="8.7502215"><ele>379.3333333333333</ele><time>2026-04-22T09:37:17.999Z</time></trkpt><trkpt lat="40.1540772" lon="8.7503126"><ele>379.5</ele><time>2026-04-22T09:37:19Z</time></trkpt><trkpt lat="40.1540683" lon="8.7503958"><ele>379.6666666666667</ele><time>2026-04-22T09:37:19.996Z</time></trkpt><trkpt lat="40.1540347" lon="8.7505363"><ele>379.83333333333337</ele><time>2026-04-22T09:37:21.999Z</time></trkpt><trkpt lat="40.1539919" lon="8.7506571"><ele>380.0</ele><time>2026-04-22T09:37:23.999Z</time></trkpt><trkpt lat="40.1539487" lon="8.7507609"><ele>380.0</ele><time>2026-04-22T09:37:26Z</time></trkpt><trkpt lat="40.1538642" lon="8.7508622"><ele>380.0</ele><time>2026-04-22T09:37:27.999Z</time></trkpt><trkpt lat="40.1537808" lon="8.7509566"><ele>380.0</ele><time>2026-04-22T09:37:29.997Z</time></trkpt><trkpt lat="40.1536967" lon="8.7510388"><ele>380.0</ele><time>2026-04-22T09:37:31.999Z</time></trkpt><trkpt lat="40.1536037" lon="8.7511503"><ele>381.1666666666667</ele><time>2026-04-22T09:37:34Z</time></trkpt><trkpt lat="40.1535573" lon="8.7512196"><ele>382.33333333333337</ele><time>2026-04-22T09:37:34.999Z</time></trkpt><trkpt lat="40.1535177" lon="8.7512912"><ele>383.5</ele><time>2026-04-22T09:37:35.994Z</time></trkpt><trkpt lat="40.1534773" lon="8.7513676"><ele>384.6666666666667</ele><time>2026-04-22T09:37:36.998Z</time></trkpt><trkpt lat="40.1534355" lon="8.7514338"><ele>385.8333333333333</ele><time>2026-04-22T09:37:37.997Z</time></trkpt><trkpt lat="40.1533695" lon="8.7515413"><ele>387.0</ele><time>2026-04-22T09:37:39.997Z</time></trkpt><trkpt lat="40.1533093" lon="8.7516261"><ele>387.0</ele><time>2026-04-22T09:37:41.996Z</time></trkpt><trkpt lat="40.1532242" lon="8.7516936"><ele>387.0</ele><time>2026-04-22T09:37:43.999Z</time></trkpt><trkpt lat="40.1531101" lon="8.7517652"><ele>387.0</ele><time>2026-04-22T09:37:46Z</time></trkpt><trkpt lat="40.1530498" lon="8.7517957"><ele>387.0</ele><time>2026-04-22T09:37:46.999Z</time></trkpt><trkpt lat="40.1529376" lon="8.7518417"><ele>387.0</ele><time>2026-04-22T09:37:48.999Z</time></trkpt><trkpt lat="40.1528547" lon="8.7519127"><ele>387.40000000000003</ele><time>2026-04-22T09:37:50.997Z</time></trkpt><trkpt lat="40.1527896" lon="8.7520125"><ele>387.8</ele><time>2026-04-22T09:37:52.999Z</time></trkpt><trkpt lat="40.1527398" lon="8.7521447"><ele>388.2</ele><time>2026-04-22T09:37:54.999Z</time></trkpt><trkpt lat="40.1526772" lon="8.7522708"><ele>388.6</ele><time>2026-04-22T09:37:57Z</time></trkpt><trkpt lat="40.1526049" lon="8.7523744"><ele>389.0</ele><time>2026-04-22T09:37:58.998Z</time></trkpt><trkpt lat="40.1525162" lon="8.7524544"><ele>388.99999999999994</ele><time>2026-04-22T09:38:01Z</time></trkpt><trkpt lat="40.152443" lon="8.7525337"><ele>389.0</ele><time>2026-04-22T09:38:02.997Z</time></trkpt><trkpt lat="40.1523793" lon="8.7526067"><ele>389.0</ele><time>2026-04-22T09:38:04.999Z</time></trkpt><trkpt lat="40.1523222" lon="8.7527002"><ele>389.0</ele><time>2026-04-22T09:38:06.989Z</time></trkpt><trkpt lat="40.1522602" lon="8.7528169"><ele>388.99999999999994</ele><time>2026-04-22T09:38:09Z</time></trkpt><trkpt lat="40.152218" lon="8.7528783"><ele>389.0</ele><time>2026-04-22T09:38:09.999Z</time></trkpt><trkpt lat="40.1521446" lon="8.7529936"><ele>389.4</ele><time>2026-04-22T09:38:11.994Z</time></trkpt><trkpt lat="40.1520742" lon="8.7531082"><ele>389.79999999999995</ele><time>2026-04-22T09:38:14Z</time></trkpt><trkpt lat="40.1520162" lon="8.7532201"><ele>390.20000000000005</ele><time>2026-04-22T09:38:15.998Z</time></trkpt><trkpt lat="40.1519607" lon="8.7533249"><ele>390.6</ele><time>2026-04-22T09:38:17.999Z</time></trkpt><trkpt lat="40.1519027" lon="8.7534337"><ele>391.0</ele><time>2026-04-22T09:38:19.999Z</time></trkpt><trkpt lat="40.1518314" lon="8.753544"><ele>391.1666666666667</ele><time>2026-04-22T09:38:22Z</time></trkpt><trkpt lat="40.1517362" lon="8.7536501"><ele>391.33333333333337</ele><time>2026-04-22T09:38:23.995Z</time></trkpt><trkpt lat="40.1516823" lon="8.7537054"><ele>391.5</ele><time>2026-04-22T09:38:24.999Z</time></trkpt><trkpt lat="40.151631" lon="8.753756"><ele>391.66666666666663</ele><time>2026-04-22T09:38:25.999Z</time></trkpt><trkpt lat="40.1515826" lon="8.7538135"><ele>391.8333333333333</ele><time>2026-04-22T09:38:26.989Z</time></trkpt><trkpt lat="40.1515377" lon="8.753889"><ele>392.0</ele><time>2026-04-22T09:38:27.999Z</time></trkpt><trkpt lat="40.1514957" lon="8.7539543"><ele>391.99999999999994</ele><time>2026-04-22T09:38:29Z</time></trkpt><trkpt lat="40.1514405" lon="8.7540366"><ele>392.0</ele><time>2026-04-22T09:38:29.999Z</time></trkpt><trkpt lat="40.1513916" lon="8.754108"><ele>392.0</ele><time>2026-04-22T09:38:31Z</time></trkpt><trkpt lat="40.1513391" lon="8.7541742"><ele>392.0</ele><time>2026-04-22T09:38:31.999Z</time></trkpt><trkpt lat="40.151286" lon="8.7542363"><ele>391.99999999999994</ele><time>2026-04-22T09:38:33Z</time></trkpt><trkpt lat="40.1512367" lon="8.7542915"><ele>392.0</ele><time>2026-04-22T09:38:34Z</time></trkpt><trkpt lat="40.1511466" lon="8.754394"><ele>392.0</ele><time>2026-04-22T09:38:36Z</time></trkpt><trkpt lat="40.1510899" lon="8.7544655"><ele>392.0</ele><time>2026-04-22T09:38:37.99Z</time></trkpt><trkpt lat="40.1509532" lon="8.7546866"><ele>392.0</ele><time>2026-04-22T09:38:50.999Z</time></trkpt><trkpt lat="40.150901" lon="8.7548055"><ele>392.0</ele><time>2026-04-22T09:38:51.998Z</time></trkpt><trkpt lat="40.1508467" lon="8.7549052"><ele>392.0</ele><time>2026-04-22T09:38:52.991Z</time></trkpt><trkpt lat="40.1507888" lon="8.7550213"><ele>392.0</ele><time>2026-04-22T09:38:53.998Z</time></trkpt><trkpt lat="40.1507316" lon="8.7551176"><ele>392.0</ele><time>2026-04-22T09:38:54.999Z</time></trkpt><trkpt lat="40.1506736" lon="8.7552133"><ele>392.0</ele><time>2026-04-22T09:38:55.999Z</time></trkpt><trkpt lat="40.1506118" lon="8.7553205"><ele>392.0</ele><time>2026-04-22T09:38:56.999Z</time></trkpt><trkpt lat="40.1505534" lon="8.7554188"><ele>391.8333333333333</ele><time>2026-04-22T09:38:57.99Z</time></trkpt><trkpt lat="40.1504886" lon="8.7555004"><ele>391.66666666666663</ele><time>2026-04-22T09:38:58.999Z</time></trkpt><trkpt lat="40.1504213" lon="8.7555848"><ele>391.5</ele><time>2026-04-22T09:39:00Z</time></trkpt><trkpt lat="40.15036" lon="8.7556645"><ele>391.33333333333337</ele><time>2026-04-22T09:39:01Z</time></trkpt><trkpt lat="40.1503091" lon="8.7557404"><ele>391.1666666666667</ele><time>2026-04-22T09:39:02Z</time></trkpt><trkpt lat="40.1502579" lon="8.7558166"><ele>391.0</ele><time>2026-04-22T09:39:02.99Z</time></trkpt><trkpt lat="40.1502105" lon="8.7559232"><ele>390.83333333333337</ele><time>2026-04-22T09:39:03.996Z</time></trkpt><trkpt lat="40.1501689" lon="8.7560371"><ele>390.6666666666667</ele><time>2026-04-22T09:39:04.999Z</time></trkpt><trkpt lat="40.1501325" lon="8.7561438"><ele>390.5</ele><time>2026-04-22T09:39:05.999Z</time></trkpt><trkpt lat="40.1500944" lon="8.7562438"><ele>390.33333333333337</ele><time>2026-04-22T09:39:06.991Z</time></trkpt><trkpt lat="40.1500682" lon="8.7563291"><ele>390.1666666666667</ele><time>2026-04-22T09:39:07.999Z</time></trkpt><trkpt lat="40.1500424" lon="8.756415"><ele>390.0</ele><time>2026-04-22T09:39:08.999Z</time></trkpt><trkpt lat="40.1500065" lon="8.7565185"><ele>390.0</ele><time>2026-04-22T09:39:10Z</time></trkpt><trkpt lat="40.1499657" lon="8.7566141"><ele>390.0</ele><time>2026-04-22T09:39:11Z</time></trkpt><trkpt lat="40.1499252" lon="8.7566948"><ele>390.0</ele><time>2026-04-22T09:39:11.999Z</time></trkpt><trkpt lat="40.1498708" lon="8.7567782"><ele>390.0</ele><time>2026-04-22T09:39:12.998Z</time></trkpt><trkpt lat="40.1498098" lon="8.756868"><ele>390.0</ele><time>2026-04-22T09:39:13.99Z</time></trkpt><trkpt lat="40.1497328" lon="8.7569559"><ele>390.0</ele><time>2026-04-22T09:39:14.998Z</time></trkpt><trkpt lat="40.149662" lon="8.757046"><ele>389.6</ele><time>2026-04-22T09:39:15.992Z</time></trkpt><trkpt lat="40.1495939" lon="8.7571435"><ele>389.2</ele><time>2026-04-22T09:39:16.999Z</time></trkpt><trkpt lat="40.1495272" lon="8.7572368"><ele>388.79999999999995</ele><time>2026-04-22T09:39:17.994Z</time></trkpt><trkpt lat="40.1494687" lon="8.7573135"><ele>388.4</ele><time>2026-04-22T09:39:18.996Z</time></trkpt><trkpt lat="40.149416" lon="8.7574015"><ele>388.0</ele><time>2026-04-22T09:39:20Z</time></trkpt><trkpt lat="40.1493595" lon="8.7574952"><ele>388.0</ele><time>2026-04-22T09:39:20.994Z</time></trkpt><trkpt lat="40.1493305" lon="8.7575935"><ele>388.0</ele><time>2026-04-22T09:39:21.999Z</time></trkpt><trkpt lat="40.1492992" lon="8.7577113"><ele>388.0</ele><time>2026-04-22T09:39:22.999Z</time></trkpt><trkpt lat="40.1492739" lon="8.7578262"><ele>388.0</ele><time>2026-04-22T09:39:23.99Z</time></trkpt><trkpt lat="40.1492491" lon="8.7579411"><ele>388.0</ele><time>2026-04-22T09:39:24.998Z</time></trkpt><trkpt lat="40.1492267" lon="8.7580603"><ele>387.4</ele><time>2026-04-22T09:39:25.999Z</time></trkpt><trkpt lat="40.1491902" lon="8.7581872"><ele>386.79999999999995</ele><time>2026-04-22T09:39:27Z</time></trkpt><trkpt lat="40.1491437" lon="8.7583092"><ele>386.2</ele><time>2026-04-22T09:39:27.999Z</time></trkpt><trkpt lat="40.1490969" lon="8.7584195"><ele>385.6</ele><time>2026-04-22T09:39:29Z</time></trkpt><trkpt lat="40.1490568" lon="8.7585216"><ele>385.0</ele><time>2026-04-22T09:39:29.996Z</time></trkpt><trkpt lat="40.14902" lon="8.7586159"><ele>385.00000000000006</ele><time>2026-04-22T09:39:30.99Z</time></trkpt><trkpt lat="40.1489841" lon="8.7587065"><ele>385.0</ele><time>2026-04-22T09:39:31.988Z</time></trkpt><trkpt lat="40.148938" lon="8.7588116"><ele>385.0</ele><time>2026-04-22T09:39:32.999Z</time></trkpt><trkpt lat="40.1488985" lon="8.7588965"><ele>385.0</ele><time>2026-04-22T09:39:34Z</time></trkpt><trkpt lat="40.1488508" lon="8.7590245"><ele>385.00000000000006</ele><time>2026-04-22T09:39:36Z</time></trkpt><trkpt lat="40.148799" lon="8.7590871"><ele>385.0</ele><time>2026-04-22T09:39:37.995Z</time></trkpt><trkpt lat="40.1486942" lon="8.7591211"><ele>385.00000000000006</ele><time>2026-04-22T09:39:39.999Z</time></trkpt><trkpt lat="40.1486276" lon="8.7591546"><ele>385.0</ele><time>2026-04-22T09:39:40.999Z</time></trkpt><trkpt lat="40.1485551" lon="8.759186"><ele>385.0</ele><time>2026-04-22T09:39:42Z</time></trkpt><trkpt lat="40.1484819" lon="8.7592279"><ele>385.0</ele><time>2026-04-22T09:39:43Z</time></trkpt><trkpt lat="40.1484048" lon="8.7592669"><ele>385.00000000000006</ele><time>2026-04-22T09:39:43.999Z</time></trkpt><trkpt lat="40.1483244" lon="8.7592971"><ele>385.0</ele><time>2026-04-22T09:39:44.999Z</time></trkpt><trkpt lat="40.1482387" lon="8.7593413"><ele>383.25</ele><time>2026-04-22T09:39:45.999Z</time></trkpt><trkpt lat="40.1481436" lon="8.759397"><ele>381.5</ele><time>2026-04-22T09:39:46.99Z</time></trkpt><trkpt lat="40.1480366" lon="8.7594628"><ele>379.75</ele><time>2026-04-22T09:39:47.995Z</time></trkpt><trkpt lat="40.1479261" lon="8.7595325"><ele>378.0</ele><time>2026-04-22T09:39:48.999Z</time></trkpt><trkpt lat="40.1478177" lon="8.7595984"><ele>378.0</ele><time>2026-04-22T09:39:49.999Z</time></trkpt><trkpt lat="40.1477106" lon="8.7596596"><ele>378.0</ele><time>2026-04-22T09:39:51Z</time></trkpt><trkpt lat="40.1476096" lon="8.7597209"><ele>378.0</ele><time>2026-04-22T09:39:51.999Z</time></trkpt><trkpt lat="40.1475126" lon="8.7597887"><ele>378.0</ele><time>2026-04-22T09:39:52.989Z</time></trkpt><trkpt lat="40.1474278" lon="8.7598828"><ele>378.0</ele><time>2026-04-22T09:39:53.999Z</time></trkpt><trkpt lat="40.1473454" lon="8.7599808"><ele>375.5</ele><time>2026-04-22T09:39:54.993Z</time></trkpt><trkpt lat="40.1472783" lon="8.7601028"><ele>373.0</ele><time>2026-04-22T09:39:55.997Z</time></trkpt><trkpt lat="40.1472193" lon="8.7602391"><ele>370.5</ele><time>2026-04-22T09:39:56.999Z</time></trkpt><trkpt lat="40.147164" lon="8.7603835"><ele>368.0</ele><time>2026-04-22T09:39:57.999Z</time></trkpt><trkpt lat="40.1471161" lon="8.7605249"><ele>366.25</ele><time>2026-04-22T09:39:58.993Z</time></trkpt><trkpt lat="40.1470678" lon="8.7606636"><ele>364.5</ele><time>2026-04-22T09:39:59.991Z</time></trkpt><trkpt lat="40.1470106" lon="8.7608046"><ele>362.75</ele><time>2026-04-22T09:40:00.993Z</time></trkpt><trkpt lat="40.1469499" lon="8.7609448"><ele>361.0</ele><time>2026-04-22T09:40:01.992Z</time></trkpt><trkpt lat="40.1468701" lon="8.7610944"><ele>360.25</ele><time>2026-04-22T09:40:02.997Z</time></trkpt><trkpt lat="40.1467954" lon="8.7612391"><ele>359.5</ele><time>2026-04-22T09:40:03.997Z</time></trkpt><trkpt lat="40.1467023" lon="8.7613652"><ele>358.75</ele><time>2026-04-22T09:40:04.999Z</time></trkpt><trkpt lat="40.1466064" lon="8.7614887"><ele>358.0</ele><time>2026-04-22T09:40:05.999Z</time></trkpt><trkpt lat="40.1464989" lon="8.7616021"><ele>356.75</ele><time>2026-04-22T09:40:06.999Z</time></trkpt><trkpt lat="40.1463836" lon="8.761709"><ele>355.5</ele><time>2026-04-22T09:40:07.999Z</time></trkpt><trkpt lat="40.1462676" lon="8.7618172"><ele>354.25</ele><time>2026-04-22T09:40:08.999Z</time></trkpt><trkpt lat="40.1461579" lon="8.7619224"><ele>353.0</ele><time>2026-04-22T09:40:10Z</time></trkpt><trkpt lat="40.1460455" lon="8.7620256"><ele>353.0</ele><time>2026-04-22T09:40:10.999Z</time></trkpt><trkpt lat="40.1459418" lon="8.7621306"><ele>353.0</ele><time>2026-04-22T09:40:11.999Z</time></trkpt><trkpt lat="40.1458421" lon="8.7622324"><ele>353.0</ele><time>2026-04-22T09:40:13Z</time></trkpt><trkpt lat="40.1457421" lon="8.7623318"><ele>353.0</ele><time>2026-04-22T09:40:14Z</time></trkpt><trkpt lat="40.1456427" lon="8.7624267"><ele>352.25</ele><time>2026-04-22T09:40:15Z</time></trkpt><trkpt lat="40.1455413" lon="8.7625108"><ele>351.5</ele><time>2026-04-22T09:40:15.999Z</time></trkpt><trkpt lat="40.1454408" lon="8.7625809"><ele>350.75</ele><time>2026-04-22T09:40:16.996Z</time></trkpt><trkpt lat="40.145336" lon="8.7626298"><ele>350.0</ele><time>2026-04-22T09:40:17.999Z</time></trkpt><trkpt lat="40.1452261" lon="8.7626619"><ele>350.0</ele><time>2026-04-22T09:40:18.997Z</time></trkpt><trkpt lat="40.1451099" lon="8.762676"><ele>350.0</ele><time>2026-04-22T09:40:19.998Z</time></trkpt><trkpt lat="40.1449902" lon="8.7626739"><ele>350.0</ele><time>2026-04-22T09:40:21Z</time></trkpt><trkpt lat="40.1448706" lon="8.762674"><ele>350.0</ele><time>2026-04-22T09:40:21.999Z</time></trkpt><trkpt lat="40.1447484" lon="8.7626796"><ele>349.0</ele><time>2026-04-22T09:40:23Z</time></trkpt><trkpt lat="40.1446301" lon="8.7626808"><ele>348.0</ele><time>2026-04-22T09:40:24Z</time></trkpt><trkpt lat="40.1445163" lon="8.7626764"><ele>347.0</ele><time>2026-04-22T09:40:25Z</time></trkpt><trkpt lat="40.1444043" lon="8.7626761"><ele>346.0</ele><time>2026-04-22T09:40:25.999Z</time></trkpt><trkpt lat="40.1442949" lon="8.7626736"><ele>346.0</ele><time>2026-04-22T09:40:26.988Z</time></trkpt><trkpt lat="40.1441968" lon="8.7626824"><ele>346.0</ele><time>2026-04-22T09:40:27.997Z</time></trkpt><trkpt lat="40.1440944" lon="8.7626878"><ele>346.0</ele><time>2026-04-22T09:40:28.991Z</time></trkpt><trkpt lat="40.1439964" lon="8.7626953"><ele>346.0</ele><time>2026-04-22T09:40:29.997Z</time></trkpt><trkpt lat="40.1438992" lon="8.7627003"><ele>346.0</ele><time>2026-04-22T09:40:30.999Z</time></trkpt><trkpt lat="40.1438017" lon="8.7627037"><ele>345.5</ele><time>2026-04-22T09:40:31.999Z</time></trkpt><trkpt lat="40.1436867" lon="8.762704"><ele>345.0</ele><time>2026-04-22T09:40:32.999Z</time></trkpt><trkpt lat="40.1435675" lon="8.7627028"><ele>344.5</ele><time>2026-04-22T09:40:33.99Z</time></trkpt><trkpt lat="40.1434504" lon="8.7626968"><ele>344.0</ele><time>2026-04-22T09:40:34.996Z</time></trkpt><trkpt lat="40.1433324" lon="8.7626938"><ele>344.0</ele><time>2026-04-22T09:40:35.992Z</time></trkpt><trkpt lat="40.1432253" lon="8.7626921"><ele>344.0</ele><time>2026-04-22T09:40:36.996Z</time></trkpt><trkpt lat="40.143113" lon="8.7626937"><ele>344.0</ele><time>2026-04-22T09:40:37.994Z</time></trkpt><trkpt lat="40.1429924" lon="8.7626892"><ele>344.0</ele><time>2026-04-22T09:40:38.995Z</time></trkpt><trkpt lat="40.1428746" lon="8.762681"><ele>343.6</ele><time>2026-04-22T09:40:40Z</time></trkpt><trkpt lat="40.1427645" lon="8.7626873"><ele>343.2</ele><time>2026-04-22T09:40:40.999Z</time></trkpt><trkpt lat="40.1426549" lon="8.7626762"><ele>342.8</ele><time>2026-04-22T09:40:42Z</time></trkpt><trkpt lat="40.142544" lon="8.7626731"><ele>342.40000000000003</ele><time>2026-04-22T09:40:43Z</time></trkpt><trkpt lat="40.1424346" lon="8.7626715"><ele>342.0</ele><time>2026-04-22T09:40:43.989Z</time></trkpt><trkpt lat="40.1423281" lon="8.7626746"><ele>341.8</ele><time>2026-04-22T09:40:44.994Z</time></trkpt><trkpt lat="40.1422267" lon="8.7626772"><ele>341.6</ele><time>2026-04-22T09:40:45.997Z</time></trkpt><trkpt lat="40.1421247" lon="8.7626845"><ele>341.40000000000003</ele><time>2026-04-22T09:40:46.998Z</time></trkpt><trkpt lat="40.142022" lon="8.7626897"><ele>341.20000000000005</ele><time>2026-04-22T09:40:47.999Z</time></trkpt><trkpt lat="40.1419138" lon="8.7627074"><ele>341.0</ele><time>2026-04-22T09:40:48.999Z</time></trkpt><trkpt lat="40.1418095" lon="8.7627418"><ele>341.0</ele><time>2026-04-22T09:40:49.999Z</time></trkpt><trkpt lat="40.1417155" lon="8.76278"><ele>341.0</ele><time>2026-04-22T09:40:50.989Z</time></trkpt><trkpt lat="40.1416515" lon="8.7628134"><ele>341.0</ele><time>2026-04-22T09:40:51.996Z</time></trkpt><trkpt lat="40.1415909" lon="8.7628622"><ele>341.0</ele><time>2026-04-22T09:40:53.999Z</time></trkpt><trkpt lat="40.1415689" lon="8.7627609"><ele>341.0</ele><time>2026-04-22T09:40:57.999Z</time></trkpt><trkpt lat="40.1415934" lon="8.7626639"><ele>341.0</ele><time>2026-04-22T09:41:00.991Z</time></trkpt><trkpt lat="40.1416401" lon="8.7625862"><ele>341.0</ele><time>2026-04-22T09:41:06.632Z</time></trkpt><trkpt lat="40.1417062" lon="8.7625197"><ele>341.0</ele><time>2026-04-22T09:41:21.902Z</time></trkpt><trkpt lat="40.1417446" lon="8.7624435"><ele>341.0</ele><time>2026-04-22T09:41:24.941Z</time></trkpt><trkpt lat="40.1417716" lon="8.7623516"><ele>341.0</ele><time>2026-04-22T09:41:28.105Z</time></trkpt><trkpt lat="40.1417905" lon="8.7622658"><ele>341.0</ele><time>2026-04-22T09:41:31.245Z</time></trkpt><trkpt lat="40.1418085" lon="8.7621679"><ele>341.0</ele><time>2026-04-22T09:41:34.267Z</time></trkpt><trkpt lat="40.141825" lon="8.7620756"><ele>341.0</ele><time>2026-04-22T09:41:37.288Z</time></trkpt><trkpt lat="40.1418462" lon="8.7619787"><ele>341.0</ele><time>2026-04-22T09:41:40.309Z</time></trkpt><trkpt lat="40.141875" lon="8.7618813"><ele>341.0</ele><time>2026-04-22T09:41:42.997Z</time></trkpt><trkpt lat="40.1419031" lon="8.7617874"><ele>341.0</ele><time>2026-04-22T09:41:44.999Z</time></trkpt><trkpt lat="40.1419274" lon="8.7616952"><ele>341.0</ele><time>2026-04-22T09:41:46.999Z</time></trkpt><trkpt lat="40.1419472" lon="8.7615938"><ele>341.0</ele><time>2026-04-22T09:41:52.999Z</time></trkpt><trkpt lat="40.1419739" lon="8.7615059"><ele>341.0</ele><time>2026-04-22T09:41:55.314Z</time></trkpt><trkpt lat="40.1420135" lon="8.7614255"><ele>341.5</ele><time>2026-04-22T09:41:58.337Z</time></trkpt><trkpt lat="40.1420443" lon="8.7613503"><ele>342.0</ele><time>2026-04-22T09:42:00.854Z</time></trkpt><trkpt lat="40.1420987" lon="8.761246"><ele>342.5</ele><time>2026-04-22T09:42:02.868Z</time></trkpt><trkpt lat="40.1421628" lon="8.7611542"><ele>343.0</ele><time>2026-04-22T09:42:04.893Z</time></trkpt><trkpt lat="40.142235" lon="8.7610639"><ele>343.5</ele><time>2026-04-22T09:42:06.907Z</time></trkpt><trkpt lat="40.1422964" lon="8.7609922"><ele>344.0</ele><time>2026-04-22T09:42:08.921Z</time></trkpt><trkpt lat="40.1423607" lon="8.7609452"><ele>344.5</ele><time>2026-04-22T09:42:10.936Z</time></trkpt><trkpt lat="40.1424415" lon="8.7609038"><ele>345.0</ele><time>2026-04-22T09:42:13.051Z</time></trkpt><trkpt lat="40.1425238" lon="8.760864"><ele>345.5</ele><time>2026-04-22T09:42:15.587Z</time></trkpt><trkpt lat="40.1426201" lon="8.7608152"><ele>346.0</ele><time>2026-04-22T09:42:18.709Z</time></trkpt><trkpt lat="40.1426874" lon="8.7607762"><ele>346.5</ele><time>2026-04-22T09:42:20.744Z</time></trkpt><trkpt lat="40.1427474" lon="8.7607484"><ele>347.0</ele><time>2026-04-22T09:42:22.757Z</time></trkpt><trkpt lat="40.1428202" lon="8.7606904"><ele>347.0</ele><time>2026-04-22T09:42:25.881Z</time></trkpt><trkpt lat="40.1429074" lon="8.7606256"><ele>347.0</ele><time>2026-04-22T09:42:29.505Z</time></trkpt><trkpt lat="40.1429651" lon="8.7605748"><ele>347.0</ele><time>2026-04-22T09:42:31.52Z</time></trkpt><trkpt lat="40.1430223" lon="8.7605196"><ele>347.0</ele><time>2026-04-22T09:42:34.641Z</time></trkpt><trkpt lat="40.1430672" lon="8.7604594"><ele>347.0</ele><time>2026-04-22T09:42:36.655Z</time></trkpt><trkpt lat="40.1431142" lon="8.7603924"><ele>347.0</ele><time>2026-04-22T09:42:38.77Z</time></trkpt><trkpt lat="40.1431607" lon="8.7603229"><ele>347.0</ele><time>2026-04-22T09:42:42.355Z</time></trkpt><trkpt lat="40.1432092" lon="8.7602301"><ele>347.5714285714286</ele><time>2026-04-22T09:42:45.88Z</time></trkpt><trkpt lat="40.1432725" lon="8.7601805"><ele>348.1428571428571</ele><time>2026-04-22T09:42:47.895Z</time></trkpt><trkpt lat="40.1433191" lon="8.760122"><ele>348.7142857142857</ele><time>2026-04-22T09:42:49.909Z</time></trkpt><trkpt lat="40.1433708" lon="8.7600422"><ele>349.28571428571433</ele><time>2026-04-22T09:42:53.957Z</time></trkpt><trkpt lat="40.143412" lon="8.7599765"><ele>349.8571428571429</ele><time>2026-04-22T09:42:56.978Z</time></trkpt><trkpt lat="40.143449" lon="8.7599019"><ele>350.42857142857144</ele><time>2026-04-22T09:42:59.998Z</time></trkpt><trkpt lat="40.1434601" lon="8.7598068"><ele>351.0</ele><time>2026-04-22T09:43:03.042Z</time></trkpt><trkpt lat="40.1434558" lon="8.7597017"><ele>351.0</ele><time>2026-04-22T09:43:06.082Z</time></trkpt><trkpt lat="40.1434361" lon="8.7596072"><ele>351.0</ele><time>2026-04-22T09:43:08.097Z</time></trkpt><trkpt lat="40.1434214" lon="8.759525"><ele>351.0</ele><time>2026-04-22T09:43:09.607Z</time></trkpt><trkpt lat="40.1434184" lon="8.7594371"><ele>351.0</ele><time>2026-04-22T09:43:11.621Z</time></trkpt><trkpt lat="40.1434007" lon="8.7593404"><ele>351.0</ele><time>2026-04-22T09:43:15.67Z</time></trkpt><trkpt lat="40.143378" lon="8.7592618"><ele>351.0</ele><time>2026-04-22T09:43:18.692Z</time></trkpt><trkpt lat="40.1433329" lon="8.7591357"><ele>350.8333333333333</ele><time>2026-04-22T09:43:20.705Z</time></trkpt><trkpt lat="40.1432952" lon="8.7590329"><ele>350.6666666666667</ele><time>2026-04-22T09:43:22.721Z</time></trkpt><trkpt lat="40.143309" lon="8.7589162"><ele>350.5</ele><time>2026-04-22T09:43:25.74Z</time></trkpt><trkpt lat="40.1433303" lon="8.758825"><ele>350.33333333333337</ele><time>2026-04-22T09:43:28.762Z</time></trkpt><trkpt lat="40.1433231" lon="8.7587221"><ele>350.1666666666667</ele><time>2026-04-22T09:43:32.893Z</time></trkpt><trkpt lat="40.1433055" lon="8.7586283"><ele>350.0</ele><time>2026-04-22T09:43:34.965Z</time></trkpt><trkpt lat="40.1432867" lon="8.7585354"><ele>349.7142857142857</ele><time>2026-04-22T09:43:36.979Z</time></trkpt><trkpt lat="40.143308" lon="8.7584533"><ele>349.42857142857144</ele><time>2026-04-22T09:43:37.996Z</time></trkpt><trkpt lat="40.1433073" lon="8.7583262"><ele>349.1428571428571</ele><time>2026-04-22T09:43:40.515Z</time></trkpt><trkpt lat="40.1432809" lon="8.7582385"><ele>348.8571428571429</ele><time>2026-04-22T09:43:42.639Z</time></trkpt><trkpt lat="40.1432877" lon="8.7581363"><ele>348.57142857142856</ele><time>2026-04-22T09:43:45.691Z</time></trkpt><trkpt lat="40.1433116" lon="8.7580484"><ele>348.2857142857143</ele><time>2026-04-22T09:43:49.739Z</time></trkpt><trkpt lat="40.1433095" lon="8.7579654"><ele>348.0</ele><time>2026-04-22T09:43:52.78Z</time></trkpt><trkpt lat="40.1432629" lon="8.7579066"><ele>348.0</ele><time>2026-04-22T09:43:55.903Z</time></trkpt><trkpt lat="40.1432171" lon="8.7578402"><ele>348.0</ele><time>2026-04-22T09:43:59.932Z</time></trkpt><trkpt lat="40.1432681" lon="8.7579238"><ele>348.0</ele><time>2026-04-22T09:44:13.658Z</time></trkpt><trkpt lat="40.1432979" lon="8.7580022"><ele>348.0</ele><time>2026-04-22T09:44:15.713Z</time></trkpt><trkpt lat="40.1432975" lon="8.7580977"><ele>348.0</ele><time>2026-04-22T09:44:18.833Z</time></trkpt><trkpt lat="40.1432867" lon="8.7581854"><ele>348.0</ele><time>2026-04-22T09:44:21.856Z</time></trkpt><trkpt lat="40.143288" lon="8.7582765"><ele>348.0</ele><time>2026-04-22T09:44:22.863Z</time></trkpt><trkpt lat="40.1432857" lon="8.7583656"><ele>348.0</ele><time>2026-04-22T09:44:23.87Z</time></trkpt><trkpt lat="40.1432753" lon="8.7584924"><ele>348.0</ele><time>2026-04-22T09:44:25.884Z</time></trkpt><trkpt lat="40.143277" lon="8.7586022"><ele>348.0</ele><time>2026-04-22T09:44:27.917Z</time></trkpt><trkpt lat="40.1433047" lon="8.7586951"><ele>348.0</ele><time>2026-04-22T09:44:29.932Z</time></trkpt><trkpt lat="40.1433105" lon="8.7587997"><ele>348.0</ele><time>2026-04-22T09:44:33.961Z</time></trkpt><trkpt lat="40.1432996" lon="8.7589058"><ele>348.0</ele><time>2026-04-22T09:44:36.996Z</time></trkpt><trkpt lat="40.1432962" lon="8.7589983"><ele>348.3333333333333</ele><time>2026-04-22T09:44:39.123Z</time></trkpt><trkpt lat="40.143315" lon="8.7590912"><ele>348.6666666666667</ele><time>2026-04-22T09:44:41.212Z</time></trkpt><trkpt lat="40.1433462" lon="8.7591795"><ele>349.0</ele><time>2026-04-22T09:44:43.729Z</time></trkpt><trkpt lat="40.1433806" lon="8.7592955"><ele>349.33333333333337</ele><time>2026-04-22T09:44:45.845Z</time></trkpt><trkpt lat="40.1434016" lon="8.7593974"><ele>349.6666666666667</ele><time>2026-04-22T09:44:47.857Z</time></trkpt><trkpt lat="40.1434123" lon="8.7594995"><ele>350.0</ele><time>2026-04-22T09:44:49.872Z</time></trkpt><trkpt lat="40.1434248" lon="8.7595923"><ele>350.1666666666667</ele><time>2026-04-22T09:44:51.907Z</time></trkpt><trkpt lat="40.1434495" lon="8.7596759"><ele>350.33333333333337</ele><time>2026-04-22T09:44:53.946Z</time></trkpt><trkpt lat="40.1434615" lon="8.7597893"><ele>350.5</ele><time>2026-04-22T09:44:56.056Z</time></trkpt><trkpt lat="40.143446" lon="8.7599212"><ele>350.6666666666667</ele><time>2026-04-22T09:44:58.573Z</time></trkpt><trkpt lat="40.1433934" lon="8.7600028"><ele>350.8333333333333</ele><time>2026-04-22T09:45:01.595Z</time></trkpt><trkpt lat="40.1433499" lon="8.7600837"><ele>351.0</ele><time>2026-04-22T09:45:04.617Z</time></trkpt><trkpt lat="40.1432974" lon="8.7601527"><ele>350.8333333333333</ele><time>2026-04-22T09:45:07.638Z</time></trkpt><trkpt lat="40.1432176" lon="8.7602109"><ele>350.6666666666667</ele><time>2026-04-22T09:45:10.658Z</time></trkpt><trkpt lat="40.1431674" lon="8.7602716"><ele>350.5</ele><time>2026-04-22T09:45:12.672Z</time></trkpt><trkpt lat="40.1431185" lon="8.7603536"><ele>350.33333333333337</ele><time>2026-04-22T09:45:15.715Z</time></trkpt><trkpt lat="40.1430661" lon="8.7604318"><ele>350.1666666666667</ele><time>2026-04-22T09:45:19.742Z</time></trkpt><trkpt lat="40.1430153" lon="8.7604939"><ele>350.0</ele><time>2026-04-22T09:45:22.763Z</time></trkpt><trkpt lat="40.1429421" lon="8.7605617"><ele>349.5</ele><time>2026-04-22T09:45:25.784Z</time></trkpt><trkpt lat="40.1428719" lon="8.7606202"><ele>349.0</ele><time>2026-04-22T09:45:27.798Z</time></trkpt><trkpt lat="40.1428139" lon="8.7606783"><ele>348.5</ele><time>2026-04-22T09:45:29.815Z</time></trkpt><trkpt lat="40.1427437" lon="8.7607295"><ele>348.0</ele><time>2026-04-22T09:45:31.847Z</time></trkpt><trkpt lat="40.142662" lon="8.7607818"><ele>347.5</ele><time>2026-04-22T09:45:33.862Z</time></trkpt><trkpt lat="40.1425774" lon="8.7608271"><ele>347.0</ele><time>2026-04-22T09:45:35.876Z</time></trkpt><trkpt lat="40.1424871" lon="8.760873"><ele>347.0</ele><time>2026-04-22T09:45:37.889Z</time></trkpt><trkpt lat="40.1424054" lon="8.7609065"><ele>347.0</ele><time>2026-04-22T09:45:39.903Z</time></trkpt><trkpt lat="40.1422901" lon="8.7609649"><ele>347.0</ele><time>2026-04-22T09:45:41.918Z</time></trkpt><trkpt lat="40.1422057" lon="8.7610279"><ele>347.0</ele><time>2026-04-22T09:45:43.933Z</time></trkpt><trkpt lat="40.1421517" lon="8.7611049"><ele>347.0</ele><time>2026-04-22T09:45:46.954Z</time></trkpt><trkpt lat="40.1421107" lon="8.7611906"><ele>346.40000000000003</ele><time>2026-04-22T09:45:49.975Z</time></trkpt><trkpt lat="40.1420761" lon="8.7612659"><ele>345.8</ele><time>2026-04-22T09:45:52.002Z</time></trkpt><trkpt lat="40.1420258" lon="8.7613771"><ele>345.2</ele><time>2026-04-22T09:45:54.104Z</time></trkpt><trkpt lat="40.1419776" lon="8.7615022"><ele>344.6</ele><time>2026-04-22T09:45:56.118Z</time></trkpt><trkpt lat="40.1419296" lon="8.7616575"><ele>344.0</ele><time>2026-04-22T09:45:58.655Z</time></trkpt><trkpt lat="40.1419058" lon="8.7617374"><ele>343.4</ele><time>2026-04-22T09:45:59.662Z</time></trkpt><trkpt lat="40.1418653" lon="8.7618757"><ele>342.79999999999995</ele><time>2026-04-22T09:46:01.698Z</time></trkpt><trkpt lat="40.1418378" lon="8.7619801"><ele>342.20000000000005</ele><time>2026-04-22T09:46:03.724Z</time></trkpt><trkpt lat="40.1418178" lon="8.7620965"><ele>341.6</ele><time>2026-04-22T09:46:05.846Z</time></trkpt><trkpt lat="40.1417927" lon="8.7622187"><ele>341.0</ele><time>2026-04-22T09:46:08.87Z</time></trkpt><trkpt lat="40.1417745" lon="8.7623046"><ele>341.0</ele><time>2026-04-22T09:46:10.882Z</time></trkpt><trkpt lat="40.1417405" lon="8.7624093"><ele>341.0</ele><time>2026-04-22T09:46:12.895Z</time></trkpt><trkpt lat="40.1416956" lon="8.7624999"><ele>341.0</ele><time>2026-04-22T09:46:13.988Z</time></trkpt><trkpt lat="40.1416505" lon="8.7625771"><ele>341.0</ele><time>2026-04-22T09:46:14.982Z</time></trkpt><trkpt lat="40.1416078" lon="8.7626429"><ele>341.0</ele><time>2026-04-22T09:46:15.993Z</time></trkpt><trkpt lat="40.1415451" lon="8.7627723"><ele>341.0</ele><time>2026-04-22T09:46:17.999Z</time></trkpt><trkpt lat="40.141535" lon="8.7628961"><ele>340.4</ele><time>2026-04-22T09:46:21.083Z</time></trkpt><trkpt lat="40.1414497" lon="8.7630155"><ele>339.8</ele><time>2026-04-22T09:46:22.999Z</time></trkpt><trkpt lat="40.1413842" lon="8.7630863"><ele>339.2</ele><time>2026-04-22T09:46:23.999Z</time></trkpt><trkpt lat="40.1413211" lon="8.7631623"><ele>338.59999999999997</ele><time>2026-04-22T09:46:24.999Z</time></trkpt><trkpt lat="40.1412556" lon="8.7632544"><ele>338.0</ele><time>2026-04-22T09:46:25.999Z</time></trkpt><trkpt lat="40.1411862" lon="8.7633516"><ele>338.0</ele><time>2026-04-22T09:46:26.996Z</time></trkpt><trkpt lat="40.141116" lon="8.7634499"><ele>338.0</ele><time>2026-04-22T09:46:27.993Z</time></trkpt><trkpt lat="40.1410474" lon="8.7635478"><ele>338.0</ele><time>2026-04-22T09:46:28.995Z</time></trkpt><trkpt lat="40.1409761" lon="8.7636416"><ele>338.0</ele><time>2026-04-22T09:46:29.999Z</time></trkpt><trkpt lat="40.1409028" lon="8.7637368"><ele>338.0</ele><time>2026-04-22T09:46:30.994Z</time></trkpt><trkpt lat="40.1408276" lon="8.7638294"><ele>337.83333333333337</ele><time>2026-04-22T09:46:32Z</time></trkpt><trkpt lat="40.1407549" lon="8.7639141"><ele>337.6666666666667</ele><time>2026-04-22T09:46:33Z</time></trkpt><trkpt lat="40.1406875" lon="8.7640011"><ele>337.5</ele><time>2026-04-22T09:46:33.999Z</time></trkpt><trkpt lat="40.1406261" lon="8.7640831"><ele>337.3333333333333</ele><time>2026-04-22T09:46:35Z</time></trkpt><trkpt lat="40.1405634" lon="8.7641589"><ele>337.16666666666663</ele><time>2026-04-22T09:46:36Z</time></trkpt><trkpt lat="40.1405023" lon="8.764234"><ele>337.0</ele><time>2026-04-22T09:46:36.99Z</time></trkpt><trkpt lat="40.1404457" lon="8.7643052"><ele>336.6</ele><time>2026-04-22T09:46:37.997Z</time></trkpt><trkpt lat="40.1403946" lon="8.7643564"><ele>336.20000000000005</ele><time>2026-04-22T09:46:38.999Z</time></trkpt><trkpt lat="40.1403036" lon="8.764379"><ele>335.8</ele><time>2026-04-22T09:46:40.983Z</time></trkpt><trkpt lat="40.1402295" lon="8.7643059"><ele>335.4</ele><time>2026-04-22T09:46:43Z</time></trkpt><trkpt lat="40.1401794" lon="8.7641925"><ele>335.0</ele><time>2026-04-22T09:46:44.999Z</time></trkpt><trkpt lat="40.1401467" lon="8.7640134"><ele>335.1666666666667</ele><time>2026-04-22T09:46:46.996Z</time></trkpt><trkpt lat="40.1401331" lon="8.763907"><ele>335.33333333333337</ele><time>2026-04-22T09:46:47.993Z</time></trkpt><trkpt lat="40.1401169" lon="8.7637993"><ele>335.5</ele><time>2026-04-22T09:46:48.995Z</time></trkpt><trkpt lat="40.1401015" lon="8.7636804"><ele>335.6666666666667</ele><time>2026-04-22T09:46:50Z</time></trkpt><trkpt lat="40.1400838" lon="8.763564"><ele>335.8333333333333</ele><time>2026-04-22T09:46:50.999Z</time></trkpt><trkpt lat="40.1400665" lon="8.7634483"><ele>336.0</ele><time>2026-04-22T09:46:51.989Z</time></trkpt><trkpt lat="40.1400374" lon="8.7633185"><ele>336.0</ele><time>2026-04-22T09:46:52.994Z</time></trkpt><trkpt lat="40.1400063" lon="8.7631798"><ele>336.0</ele><time>2026-04-22T09:46:54Z</time></trkpt><trkpt lat="40.1399756" lon="8.7630417"><ele>336.0</ele><time>2026-04-22T09:46:54.999Z</time></trkpt><trkpt lat="40.1399487" lon="8.7629039"><ele>336.0</ele><time>2026-04-22T09:46:55.999Z</time></trkpt><trkpt lat="40.1399238" lon="8.7627665"><ele>336.0</ele><time>2026-04-22T09:46:56.989Z</time></trkpt><trkpt lat="40.1398872" lon="8.7626174"><ele>336.25</ele><time>2026-04-22T09:46:57.998Z</time></trkpt><trkpt lat="40.1398509" lon="8.7624625"><ele>336.5</ele><time>2026-04-22T09:46:58.999Z</time></trkpt><trkpt lat="40.1398191" lon="8.7622966"><ele>336.75</ele><time>2026-04-22T09:47:00Z</time></trkpt><trkpt lat="40.139787" lon="8.7621227"><ele>337.0</ele><time>2026-04-22T09:47:01.001Z</time></trkpt><trkpt lat="40.1397508" lon="8.761947"><ele>337.0</ele><time>2026-04-22T09:47:02Z</time></trkpt><trkpt lat="40.139716" lon="8.7617786"><ele>337.0</ele><time>2026-04-22T09:47:03Z</time></trkpt><trkpt lat="40.1396785" lon="8.761609"><ele>337.0</ele><time>2026-04-22T09:47:04Z</time></trkpt><trkpt lat="40.1396492" lon="8.7614384"><ele>337.0</ele><time>2026-04-22T09:47:05Z</time></trkpt><trkpt lat="40.1396153" lon="8.7612674"><ele>337.0</ele><time>2026-04-22T09:47:05.998Z</time></trkpt><trkpt lat="40.1395809" lon="8.7610971"><ele>337.0</ele><time>2026-04-22T09:47:06.991Z</time></trkpt><trkpt lat="40.1395492" lon="8.7609226"><ele>337.0</ele><time>2026-04-22T09:47:07.998Z</time></trkpt><trkpt lat="40.1395194" lon="8.7607518"><ele>337.0</ele><time>2026-04-22T09:47:08.999Z</time></trkpt><trkpt lat="40.139487" lon="8.7605805"><ele>337.0</ele><time>2026-04-22T09:47:09.989Z</time></trkpt><trkpt lat="40.1394563" lon="8.7604047"><ele>337.0</ele><time>2026-04-22T09:47:10.998Z</time></trkpt><trkpt lat="40.1394255" lon="8.7602294"><ele>337.0</ele><time>2026-04-22T09:47:12Z</time></trkpt><trkpt lat="40.1393955" lon="8.7600549"><ele>337.0</ele><time>2026-04-22T09:47:12.999Z</time></trkpt><trkpt lat="40.1393621" lon="8.7598801"><ele>337.0</ele><time>2026-04-22T09:47:14Z</time></trkpt><trkpt lat="40.1393252" lon="8.7597106"><ele>337.0</ele><time>2026-04-22T09:47:14.998Z</time></trkpt><trkpt lat="40.1392895" lon="8.7595456"><ele>337.0</ele><time>2026-04-22T09:47:15.989Z</time></trkpt><trkpt lat="40.1392572" lon="8.7593787"><ele>337.0</ele><time>2026-04-22T09:47:16.999Z</time></trkpt><trkpt lat="40.1392264" lon="8.7592234"><ele>337.0</ele><time>2026-04-22T09:47:17.991Z</time></trkpt><trkpt lat="40.1392074" lon="8.7591029"><ele>337.0</ele><time>2026-04-22T09:47:18.997Z</time></trkpt><trkpt lat="40.1391894" lon="8.7590153"><ele>337.0</ele><time>2026-04-22T09:47:19.999Z</time></trkpt><trkpt lat="40.1391775" lon="8.7589338"><ele>337.0</ele><time>2026-04-22T09:47:21Z</time></trkpt><trkpt lat="40.1391757" lon="8.7588264"><ele>337.0</ele><time>2026-04-22T09:47:22.999Z</time></trkpt><trkpt lat="40.1392452" lon="8.7587786"><ele>337.0</ele><time>2026-04-22T09:47:25.993Z</time></trkpt><trkpt lat="40.1393126" lon="8.758783"><ele>337.0</ele><time>2026-04-22T09:47:27.995Z</time></trkpt><trkpt lat="40.1393923" lon="8.7587459"><ele>337.0</ele><time>2026-04-22T09:47:31.992Z</time></trkpt><trkpt lat="40.1394865" lon="8.7586939"><ele>337.0</ele><time>2026-04-22T09:47:34.993Z</time></trkpt><trkpt lat="40.1396291" lon="8.7585979"><ele>337.0</ele><time>2026-04-22T09:47:35.99Z</time></trkpt><trkpt lat="40.1397678" lon="8.7585022"><ele>337.5</ele><time>2026-04-22T09:47:36.985Z</time></trkpt><trkpt lat="40.1398868" lon="8.7584164"><ele>338.0</ele><time>2026-04-22T09:47:37.984Z</time></trkpt><trkpt lat="40.1399892" lon="8.7583389"><ele>338.5</ele><time>2026-04-22T09:47:38.995Z</time></trkpt><trkpt lat="40.1400804" lon="8.7582647"><ele>339.0</ele><time>2026-04-22T09:47:39.994Z</time></trkpt><trkpt lat="40.1401643" lon="8.7581857"><ele>339.0</ele><time>2026-04-22T09:47:40.995Z</time></trkpt><trkpt lat="40.1402339" lon="8.7581042"><ele>339.0</ele><time>2026-04-22T09:47:42Z</time></trkpt><trkpt lat="40.1402931" lon="8.758017"><ele>339.0</ele><time>2026-04-22T09:47:42.998Z</time></trkpt><trkpt lat="40.1403488" lon="8.7579076"><ele>339.0</ele><time>2026-04-22T09:47:43.997Z</time></trkpt><trkpt lat="40.1404039" lon="8.7577925"><ele>339.0</ele><time>2026-04-22T09:47:44.999Z</time></trkpt><trkpt lat="40.1404519" lon="8.757669"><ele>340.0</ele><time>2026-04-22T09:47:46Z</time></trkpt><trkpt lat="40.1404928" lon="8.7575375"><ele>341.0</ele><time>2026-04-22T09:47:46.999Z</time></trkpt><trkpt lat="40.1405294" lon="8.7573986"><ele>342.0</ele><time>2026-04-22T09:47:48Z</time></trkpt><trkpt lat="40.1405588" lon="8.7572481"><ele>343.0</ele><time>2026-04-22T09:47:48.997Z</time></trkpt><trkpt lat="40.1405839" lon="8.7570948"><ele>343.0</ele><time>2026-04-22T09:47:49.984Z</time></trkpt><trkpt lat="40.1405945" lon="8.7569336"><ele>343.0</ele><time>2026-04-22T09:47:50.995Z</time></trkpt><trkpt lat="40.1406013" lon="8.756778"><ele>343.0</ele><time>2026-04-22T09:47:52Z</time></trkpt><trkpt lat="40.1406053" lon="8.7566282"><ele>343.0</ele><time>2026-04-22T09:47:52.998Z</time></trkpt><trkpt lat="40.1406056" lon="8.7564788"><ele>343.79999999999995</ele><time>2026-04-22T09:47:53.989Z</time></trkpt><trkpt lat="40.140626" lon="8.7563421"><ele>344.6</ele><time>2026-04-22T09:47:54.993Z</time></trkpt><trkpt lat="40.1406482" lon="8.7562098"><ele>345.4</ele><time>2026-04-22T09:47:56Z</time></trkpt><trkpt lat="40.1406792" lon="8.7560771"><ele>346.20000000000005</ele><time>2026-04-22T09:47:56.999Z</time></trkpt><trkpt lat="40.1407142" lon="8.7559465"><ele>347.0</ele><time>2026-04-22T09:47:57.989Z</time></trkpt><trkpt lat="40.1407728" lon="8.7558076"><ele>347.75</ele><time>2026-04-22T09:47:58.996Z</time></trkpt><trkpt lat="40.1408302" lon="8.7556693"><ele>348.5</ele><time>2026-04-22T09:47:59.99Z</time></trkpt><trkpt lat="40.1409064" lon="8.7555379"><ele>349.25</ele><time>2026-04-22T09:48:00.997Z</time></trkpt><trkpt lat="40.140984" lon="8.7554112"><ele>350.0</ele><time>2026-04-22T09:48:02Z</time></trkpt><trkpt lat="40.1410663" lon="8.7552813"><ele>350.25</ele><time>2026-04-22T09:48:02.999Z</time></trkpt><trkpt lat="40.141146" lon="8.7551493"><ele>350.5</ele><time>2026-04-22T09:48:03.988Z</time></trkpt><trkpt lat="40.1412286" lon="8.7550187"><ele>350.75</ele><time>2026-04-22T09:48:05Z</time></trkpt><trkpt lat="40.1413092" lon="8.7548841"><ele>351.0</ele><time>2026-04-22T09:48:06Z</time></trkpt><trkpt lat="40.1413884" lon="8.7547467"><ele>351.0</ele><time>2026-04-22T09:48:07Z</time></trkpt><trkpt lat="40.1414681" lon="8.7546089"><ele>351.0</ele><time>2026-04-22T09:48:07.989Z</time></trkpt><trkpt lat="40.1415435" lon="8.7544646"><ele>351.0</ele><time>2026-04-22T09:48:08.995Z</time></trkpt><trkpt lat="40.141616" lon="8.7543224"><ele>351.0</ele><time>2026-04-22T09:48:09.999Z</time></trkpt><trkpt lat="40.1416825" lon="8.754195"><ele>351.25</ele><time>2026-04-22T09:48:10.999Z</time></trkpt><trkpt lat="40.1417537" lon="8.7540737"><ele>351.5</ele><time>2026-04-22T09:48:11.989Z</time></trkpt><trkpt lat="40.141819" lon="8.7539575"><ele>351.75</ele><time>2026-04-22T09:48:12.998Z</time></trkpt><trkpt lat="40.1418886" lon="8.7538456"><ele>352.0</ele><time>2026-04-22T09:48:13.999Z</time></trkpt><trkpt lat="40.141957" lon="8.7537219"><ele>352.0</ele><time>2026-04-22T09:48:14.999Z</time></trkpt><trkpt lat="40.1420212" lon="8.7535982"><ele>352.0</ele><time>2026-04-22T09:48:15.999Z</time></trkpt><trkpt lat="40.1420869" lon="8.7534679"><ele>352.0</ele><time>2026-04-22T09:48:16.999Z</time></trkpt><trkpt lat="40.1421525" lon="8.753347"><ele>352.0</ele><time>2026-04-22T09:48:17.999Z</time></trkpt><trkpt lat="40.1422122" lon="8.7532214"><ele>352.75</ele><time>2026-04-22T09:48:18.999Z</time></trkpt><trkpt lat="40.1422598" lon="8.7530823"><ele>353.5</ele><time>2026-04-22T09:48:19.999Z</time></trkpt><trkpt lat="40.1423112" lon="8.7529362"><ele>354.25</ele><time>2026-04-22T09:48:21Z</time></trkpt><trkpt lat="40.1423493" lon="8.75279"><ele>355.0</ele><time>2026-04-22T09:48:21.999Z</time></trkpt><trkpt lat="40.1423902" lon="8.7526482"><ele>355.25</ele><time>2026-04-22T09:48:22.999Z</time></trkpt><trkpt lat="40.1424324" lon="8.7525109"><ele>355.5</ele><time>2026-04-22T09:48:23.999Z</time></trkpt><trkpt lat="40.1424723" lon="8.7523756"><ele>355.75</ele><time>2026-04-22T09:48:24.989Z</time></trkpt><trkpt lat="40.1425234" lon="8.752232"><ele>356.0</ele><time>2026-04-22T09:48:25.995Z</time></trkpt><trkpt lat="40.1425697" lon="8.7520954"><ele>356.0</ele><time>2026-04-22T09:48:26.999Z</time></trkpt><trkpt lat="40.1426145" lon="8.7519652"><ele>356.0</ele><time>2026-04-22T09:48:27.99Z</time></trkpt><trkpt lat="40.1426689" lon="8.7518553"><ele>356.0</ele><time>2026-04-22T09:48:28.993Z</time></trkpt><trkpt lat="40.1427216" lon="8.7517282"><ele>356.0</ele><time>2026-04-22T09:48:29.99Z</time></trkpt><trkpt lat="40.142797" lon="8.7515987"><ele>356.0</ele><time>2026-04-22T09:48:30.995Z</time></trkpt><trkpt lat="40.1428847" lon="8.751474"><ele>355.75</ele><time>2026-04-22T09:48:31.999Z</time></trkpt><trkpt lat="40.1429715" lon="8.7513575"><ele>355.5</ele><time>2026-04-22T09:48:32.999Z</time></trkpt><trkpt lat="40.143056" lon="8.7512466"><ele>355.25</ele><time>2026-04-22T09:48:33.988Z</time></trkpt><trkpt lat="40.143151" lon="8.7511478"><ele>355.0</ele><time>2026-04-22T09:48:34.999Z</time></trkpt><trkpt lat="40.143236" lon="8.751059"><ele>356.4</ele><time>2026-04-22T09:48:35.992Z</time></trkpt><trkpt lat="40.1433236" lon="8.7509898"><ele>357.8</ele><time>2026-04-22T09:48:36.999Z</time></trkpt><trkpt lat="40.1434187" lon="8.7509294"><ele>359.20000000000005</ele><time>2026-04-22T09:48:37.999Z</time></trkpt><trkpt lat="40.1435108" lon="8.7508787"><ele>360.6</ele><time>2026-04-22T09:48:38.999Z</time></trkpt><trkpt lat="40.1435995" lon="8.7508349"><ele>362.0</ele><time>2026-04-22T09:48:39.991Z</time></trkpt><trkpt lat="40.143695" lon="8.7508196"><ele>362.0</ele><time>2026-04-22T09:48:40.991Z</time></trkpt><trkpt lat="40.14381" lon="8.7508273"><ele>362.0</ele><time>2026-04-22T09:48:41.998Z</time></trkpt><trkpt lat="40.1439197" lon="8.750839"><ele>362.0</ele><time>2026-04-22T09:48:42.999Z</time></trkpt><trkpt lat="40.1440165" lon="8.7508468"><ele>362.0</ele><time>2026-04-22T09:48:43.992Z</time></trkpt><trkpt lat="40.1441074" lon="8.7508497"><ele>362.0</ele><time>2026-04-22T09:48:44.995Z</time></trkpt><trkpt lat="40.144196" lon="8.7508479"><ele>363.40000000000003</ele><time>2026-04-22T09:48:45.989Z</time></trkpt><trkpt lat="40.1442803" lon="8.75082"><ele>364.8</ele><time>2026-04-22T09:48:46.997Z</time></trkpt><trkpt lat="40.1443457" lon="8.7507593"><ele>366.2</ele><time>2026-04-22T09:48:47.998Z</time></trkpt><trkpt lat="40.1444151" lon="8.7506904"><ele>367.6</ele><time>2026-04-22T09:48:48.994Z</time></trkpt><trkpt lat="40.1444818" lon="8.7505877"><ele>369.0</ele><time>2026-04-22T09:48:49.999Z</time></trkpt><trkpt lat="40.1445471" lon="8.7504631"><ele>369.0</ele><time>2026-04-22T09:48:50.997Z</time></trkpt><trkpt lat="40.1446255" lon="8.750341"><ele>369.0</ele><time>2026-04-22T09:48:51.997Z</time></trkpt><trkpt lat="40.1447069" lon="8.7502126"><ele>369.0</ele><time>2026-04-22T09:48:52.998Z</time></trkpt><trkpt lat="40.1447799" lon="8.7500832"><ele>369.0</ele><time>2026-04-22T09:48:53.999Z</time></trkpt><trkpt lat="40.1448544" lon="8.7499541"><ele>369.25</ele><time>2026-04-22T09:48:54.998Z</time></trkpt><trkpt lat="40.1449411" lon="8.7498342"><ele>369.5</ele><time>2026-04-22T09:48:56Z</time></trkpt><trkpt lat="40.145023" lon="8.7497229"><ele>369.75</ele><time>2026-04-22T09:48:56.999Z</time></trkpt><trkpt lat="40.1451024" lon="8.7496022"><ele>370.0</ele><time>2026-04-22T09:48:57.999Z</time></trkpt><trkpt lat="40.1451811" lon="8.7494723"><ele>371.0</ele><time>2026-04-22T09:48:59Z</time></trkpt><trkpt lat="40.1452716" lon="8.7493568"><ele>372.0</ele><time>2026-04-22T09:48:59.999Z</time></trkpt><trkpt lat="40.1453577" lon="8.7492376"><ele>373.0</ele><time>2026-04-22T09:49:00.997Z</time></trkpt><trkpt lat="40.1454498" lon="8.7491175"><ele>374.0</ele><time>2026-04-22T09:49:01.999Z</time></trkpt><trkpt lat="40.1455382" lon="8.748995"><ele>374.0</ele><time>2026-04-22T09:49:02.987Z</time></trkpt><trkpt lat="40.1456176" lon="8.7488722"><ele>374.0</ele><time>2026-04-22T09:49:03.997Z</time></trkpt><trkpt lat="40.1456954" lon="8.748744"><ele>374.0</ele><time>2026-04-22T09:49:05Z</time></trkpt><trkpt lat="40.1457659" lon="8.7486087"><ele>374.0</ele><time>2026-04-22T09:49:05.999Z</time></trkpt><trkpt lat="40.1458343" lon="8.7484685"><ele>374.5</ele><time>2026-04-22T09:49:06.992Z</time></trkpt><trkpt lat="40.145894" lon="8.7483295"><ele>375.0</ele><time>2026-04-22T09:49:07.998Z</time></trkpt><trkpt lat="40.1459447" lon="8.7481926"><ele>375.5</ele><time>2026-04-22T09:49:08.999Z</time></trkpt><trkpt lat="40.1459936" lon="8.7480622"><ele>376.0</ele><time>2026-04-22T09:49:09.986Z</time></trkpt><trkpt lat="40.1460344" lon="8.7479408"><ele>376.0</ele><time>2026-04-22T09:49:10.992Z</time></trkpt><trkpt lat="40.1460822" lon="8.7478302"><ele>376.0</ele><time>2026-04-22T09:49:11.998Z</time></trkpt><trkpt lat="40.1461377" lon="8.7477237"><ele>376.0</ele><time>2026-04-22T09:49:12.998Z</time></trkpt><trkpt lat="40.1461982" lon="8.7476291"><ele>376.0</ele><time>2026-04-22T09:49:13.999Z</time></trkpt><trkpt lat="40.1462644" lon="8.7475514"><ele>376.0</ele><time>2026-04-22T09:49:14.998Z</time></trkpt><trkpt lat="40.1463306" lon="8.7474905"><ele>376.5</ele><time>2026-04-22T09:49:15.999Z</time></trkpt><trkpt lat="40.1463972" lon="8.7474316"><ele>377.0</ele><time>2026-04-22T09:49:16.999Z</time></trkpt><trkpt lat="40.1464661" lon="8.7473876"><ele>377.5</ele><time>2026-04-22T09:49:17.999Z</time></trkpt><trkpt lat="40.1465273" lon="8.7473519"><ele>378.0</ele><time>2026-04-22T09:49:18.994Z</time></trkpt><trkpt lat="40.1465918" lon="8.7473143"><ele>378.5</ele><time>2026-04-22T09:49:20Z</time></trkpt><trkpt lat="40.1466598" lon="8.7472779"><ele>379.0</ele><time>2026-04-22T09:49:20.991Z</time></trkpt><trkpt lat="40.1467387" lon="8.7472211"><ele>379.16666666666663</ele><time>2026-04-22T09:49:21.998Z</time></trkpt><trkpt lat="40.1468" lon="8.7471516"><ele>379.3333333333333</ele><time>2026-04-22T09:49:23Z</time></trkpt><trkpt lat="40.1468556" lon="8.7470679"><ele>379.5</ele><time>2026-04-22T09:49:23.999Z</time></trkpt><trkpt lat="40.1469073" lon="8.7469914"><ele>379.6666666666667</ele><time>2026-04-22T09:49:25Z</time></trkpt><trkpt lat="40.1469496" lon="8.7469144"><ele>379.83333333333337</ele><time>2026-04-22T09:49:25.999Z</time></trkpt><trkpt lat="40.1470119" lon="8.7467782"><ele>380.0</ele><time>2026-04-22T09:49:27.988Z</time></trkpt><trkpt lat="40.1470686" lon="8.7466553"><ele>380.0</ele><time>2026-04-22T09:49:29.99Z</time></trkpt><trkpt lat="40.1470643" lon="8.7465669"><ele>380.0</ele><time>2026-04-22T09:49:34.999Z</time></trkpt><trkpt lat="40.1469881" lon="8.7467289"><ele>380.0</ele><time>2026-04-22T09:56:38.01Z</time></trkpt><trkpt lat="40.146941" lon="8.7468251"><ele>380.0</ele><time>2026-04-22T09:56:40.125Z</time></trkpt><trkpt lat="40.1468267" lon="8.7469838"><ele>380.0</ele><time>2026-04-22T09:56:42.999Z</time></trkpt><trkpt lat="40.1467456" lon="8.7470845"><ele>380.0</ele><time>2026-04-22T09:56:44.999Z</time></trkpt><trkpt lat="40.1466806" lon="8.7471619"><ele>380.0</ele><time>2026-04-22T09:56:46.999Z</time></trkpt><trkpt lat="40.1466215" lon="8.7472047"><ele>380.0</ele><time>2026-04-22T09:56:49.048Z</time></trkpt><trkpt lat="40.1465464" lon="8.7472561"><ele>380.0</ele><time>2026-04-22T09:56:51.063Z</time></trkpt><trkpt lat="40.1464656" lon="8.7472981"><ele>380.0</ele><time>2026-04-22T09:56:53.097Z</time></trkpt><trkpt lat="40.1463799" lon="8.7473352"><ele>380.0</ele><time>2026-04-22T09:56:55.629Z</time></trkpt><trkpt lat="40.1464719" lon="8.7473624"><ele>380.0</ele><time>2026-04-22T09:57:15.996Z</time></trkpt><trkpt lat="40.1466198" lon="8.7472633"><ele>380.0</ele><time>2026-04-22T09:57:19.999Z</time></trkpt><trkpt lat="40.1467114" lon="8.7471931"><ele>380.0</ele><time>2026-04-22T09:57:22Z</time></trkpt><trkpt lat="40.1468396" lon="8.74719"><ele>380.0</ele><time>2026-04-22T09:57:25.052Z</time></trkpt><trkpt lat="40.1469055" lon="8.7471777"><ele>380.0</ele><time>2026-04-22T09:57:28.092Z</time></trkpt><trkpt lat="40.1471717" lon="8.7471669"><ele>380.0</ele><time>2026-04-22T09:57:33.632Z</time></trkpt><trkpt lat="40.1472374" lon="8.7471732"><ele>380.0</ele><time>2026-04-22T09:57:34.638Z</time></trkpt><trkpt lat="40.1473227" lon="8.7471764"><ele>380.33333333333337</ele><time>2026-04-22T09:57:35.999Z</time></trkpt><trkpt lat="40.1473972" lon="8.7471793"><ele>380.6666666666667</ele><time>2026-04-22T09:57:38.08Z</time></trkpt><trkpt lat="40.1477427" lon="8.7471487"><ele>381.0</ele><time>2026-04-22T09:57:44.984Z</time></trkpt><trkpt lat="40.1478158" lon="8.7471414"><ele>381.0</ele><time>2026-04-22T09:57:45.999Z</time></trkpt><trkpt lat="40.1479146" lon="8.7471266"><ele>381.0</ele><time>2026-04-22T09:57:47.998Z</time></trkpt><trkpt lat="40.1480292" lon="8.7471293"><ele>381.0</ele><time>2026-04-22T09:57:51.595Z</time></trkpt><trkpt lat="40.1481372" lon="8.7471666"><ele>381.0</ele><time>2026-04-22T09:57:54.641Z</time></trkpt><trkpt lat="40.1482627" lon="8.7472061"><ele>381.0</ele><time>2026-04-22T09:57:57.701Z</time></trkpt><trkpt lat="40.1483524" lon="8.7471742"><ele>381.0</ele><time>2026-04-22T09:57:59.715Z</time></trkpt><trkpt lat="40.1483933" lon="8.747091"><ele>381.0</ele><time>2026-04-22T09:58:01.73Z</time></trkpt><trkpt lat="40.1484312" lon="8.7469986"><ele>381.0</ele><time>2026-04-22T09:58:05.777Z</time></trkpt><trkpt lat="40.1484614" lon="8.7468924"><ele>381.0</ele><time>2026-04-22T09:58:08.8Z</time></trkpt><trkpt lat="40.148501" lon="8.7468246"><ele>381.0</ele><time>2026-04-22T09:58:10.833Z</time></trkpt><trkpt lat="40.148566" lon="8.7467643"><ele>381.25</ele><time>2026-04-22T09:58:12.887Z</time></trkpt><trkpt lat="40.1486323" lon="8.7467238"><ele>381.5</ele><time>2026-04-22T09:58:14.922Z</time></trkpt><trkpt lat="40.1487104" lon="8.7467006"><ele>381.75</ele><time>2026-04-22T09:58:16.937Z</time></trkpt><trkpt lat="40.1489251" lon="8.7466855"><ele>382.0</ele><time>2026-04-22T09:58:22.998Z</time></trkpt><trkpt lat="40.1490238" lon="8.7466251"><ele>382.16666666666663</ele><time>2026-04-22T09:58:25.013Z</time></trkpt><trkpt lat="40.1491008" lon="8.7465636"><ele>382.3333333333333</ele><time>2026-04-22T09:58:26.019Z</time></trkpt><trkpt lat="40.1491721" lon="8.7465036"><ele>382.5</ele><time>2026-04-22T09:58:28.104Z</time></trkpt><trkpt lat="40.149267" lon="8.7464424"><ele>382.6666666666667</ele><time>2026-04-22T09:58:30.642Z</time></trkpt><trkpt lat="40.1493095" lon="8.7463591"><ele>382.83333333333337</ele><time>2026-04-22T09:58:32.657Z</time></trkpt><trkpt lat="40.1493191" lon="8.7462551"><ele>383.0</ele><time>2026-04-22T09:58:35.7Z</time></trkpt><trkpt lat="40.1492957" lon="8.7463335"><ele>383.0</ele><time>2026-04-22T09:58:37.712Z</time></trkpt><trkpt lat="40.1492267" lon="8.7463706"><ele>383.0</ele><time>2026-04-22T09:58:39.747Z</time></trkpt><trkpt lat="40.1491616" lon="8.7464274"><ele>383.0</ele><time>2026-04-22T09:58:43.775Z</time></trkpt><trkpt lat="40.1491094" lon="8.7465033"><ele>383.0</ele><time>2026-04-22T09:58:46.818Z</time></trkpt><trkpt lat="40.1490424" lon="8.7465581"><ele>383.0</ele><time>2026-04-22T09:58:49.877Z</time></trkpt><trkpt lat="40.1489749" lon="8.7465957"><ele>383.0</ele><time>2026-04-22T09:58:52.919Z</time></trkpt><trkpt lat="40.148877" lon="8.7466246"><ele>382.83333333333337</ele><time>2026-04-22T09:58:56.545Z</time></trkpt><trkpt lat="40.1488105" lon="8.7466067"><ele>382.6666666666667</ele><time>2026-04-22T09:58:58.575Z</time></trkpt><trkpt lat="40.1487362" lon="8.7465898"><ele>382.5</ele><time>2026-04-22T09:59:00.593Z</time></trkpt><trkpt lat="40.1486528" lon="8.7465855"><ele>382.3333333333333</ele><time>2026-04-22T09:59:02.61Z</time></trkpt><trkpt lat="40.1485616" lon="8.7466109"><ele>382.16666666666663</ele><time>2026-04-22T09:59:04.622Z</time></trkpt><trkpt lat="40.1484871" lon="8.7466915"><ele>382.0</ele><time>2026-04-22T09:59:06.635Z</time></trkpt><trkpt lat="40.1484576" lon="8.7467934"><ele>381.8333333333333</ele><time>2026-04-22T09:59:08.649Z</time></trkpt><trkpt lat="40.1484434" lon="8.7468893"><ele>381.66666666666663</ele><time>2026-04-22T09:59:10.663Z</time></trkpt><trkpt lat="40.1484221" lon="8.7469784"><ele>381.5</ele><time>2026-04-22T09:59:12.879Z</time></trkpt><trkpt lat="40.1483992" lon="8.7470657"><ele>381.3333333333333</ele><time>2026-04-22T09:59:14.974Z</time></trkpt><trkpt lat="40.14834" lon="8.7471349"><ele>381.1666666666667</ele><time>2026-04-22T09:59:17.029Z</time></trkpt><trkpt lat="40.1482633" lon="8.7471317"><ele>381.0</ele><time>2026-04-22T09:59:19.043Z</time></trkpt><trkpt lat="40.1481558" lon="8.7471006"><ele>381.0</ele><time>2026-04-22T09:59:22.184Z</time></trkpt><trkpt lat="40.1480311" lon="8.7470927"><ele>381.0</ele><time>2026-04-22T09:59:24.702Z</time></trkpt><trkpt lat="40.1479282" lon="8.747107"><ele>381.0</ele><time>2026-04-22T09:59:25.99Z</time></trkpt><trkpt lat="40.1478309" lon="8.7471189"><ele>381.0</ele><time>2026-04-22T09:59:28.077Z</time></trkpt><trkpt lat="40.1477513" lon="8.7471319"><ele>381.0</ele><time>2026-04-22T09:59:30.094Z</time></trkpt><trkpt lat="40.1476754" lon="8.7471389"><ele>381.0</ele><time>2026-04-22T09:59:33.736Z</time></trkpt><trkpt lat="40.1475918" lon="8.7471388"><ele>381.0</ele><time>2026-04-22T09:59:35.771Z</time></trkpt><trkpt lat="40.147507" lon="8.7471381"><ele>381.0</ele><time>2026-04-22T09:59:36.778Z</time></trkpt><trkpt lat="40.1474245" lon="8.7471301"><ele>381.0</ele><time>2026-04-22T09:59:37.785Z</time></trkpt><trkpt lat="40.1473318" lon="8.7471431"><ele>381.0</ele><time>2026-04-22T09:59:39Z</time></trkpt><trkpt lat="40.1472204" lon="8.7471545"><ele>380.8333333333333</ele><time>2026-04-22T09:59:41Z</time></trkpt><trkpt lat="40.1471231" lon="8.7471633"><ele>380.6666666666667</ele><time>2026-04-22T09:59:42.997Z</time></trkpt><trkpt lat="40.1470381" lon="8.7471831"><ele>380.5</ele><time>2026-04-22T09:59:46.999Z</time></trkpt><trkpt lat="40.1469538" lon="8.7471972"><ele>380.33333333333337</ele><time>2026-04-22T09:59:47.999Z</time></trkpt><trkpt lat="40.1468724" lon="8.7472076"><ele>380.1666666666667</ele><time>2026-04-22T09:59:48.998Z</time></trkpt><trkpt lat="40.1467877" lon="8.7472358"><ele>380.0</ele><time>2026-04-22T09:59:50.998Z</time></trkpt><trkpt lat="40.1467314" lon="8.7471746"><ele>380.0</ele><time>2026-04-22T09:59:54.019Z</time></trkpt><trkpt lat="40.1467711" lon="8.7470996"><ele>380.0</ele><time>2026-04-22T09:59:57.563Z</time></trkpt><trkpt lat="40.1468813" lon="8.7469374"><ele>380.0</ele><time>2026-04-22T09:59:59Z</time></trkpt><trkpt lat="40.1469577" lon="8.7468024"><ele>380.0</ele><time>2026-04-22T09:59:59.996Z</time></trkpt><trkpt lat="40.1470362" lon="8.7466565"><ele>380.25</ele><time>2026-04-22T10:00:00.996Z</time></trkpt><trkpt lat="40.1471086" lon="8.7465228"><ele>380.5</ele><time>2026-04-22T10:00:01.978Z</time></trkpt><trkpt lat="40.1471808" lon="8.7463988"><ele>380.75</ele><time>2026-04-22T10:00:02.985Z</time></trkpt><trkpt lat="40.147254" lon="8.746271"><ele>381.0</ele><time>2026-04-22T10:00:03.999Z</time></trkpt><trkpt lat="40.1473229" lon="8.7461388"><ele>381.75</ele><time>2026-04-22T10:00:05Z</time></trkpt><trkpt lat="40.1473842" lon="8.746011"><ele>382.5</ele><time>2026-04-22T10:00:06.001Z</time></trkpt><trkpt lat="40.1474375" lon="8.745879"><ele>383.25</ele><time>2026-04-22T10:00:06.995Z</time></trkpt><trkpt lat="40.1474822" lon="8.7457442"><ele>384.0</ele><time>2026-04-22T10:00:07.999Z</time></trkpt><trkpt lat="40.1475201" lon="8.7456087"><ele>384.0</ele><time>2026-04-22T10:00:08.999Z</time></trkpt><trkpt lat="40.147558" lon="8.7454786"><ele>384.0</ele><time>2026-04-22T10:00:09.996Z</time></trkpt><trkpt lat="40.1475989" lon="8.7453554"><ele>384.0</ele><time>2026-04-22T10:00:10.993Z</time></trkpt><trkpt lat="40.1476429" lon="8.7452453"><ele>384.0</ele><time>2026-04-22T10:00:11.997Z</time></trkpt><trkpt lat="40.1476919" lon="8.7451486"><ele>384.0</ele><time>2026-04-22T10:00:13.004Z</time></trkpt><trkpt lat="40.1477477" lon="8.7450724"><ele>384.4</ele><time>2026-04-22T10:00:14Z</time></trkpt><trkpt lat="40.1478151" lon="8.7450123"><ele>384.79999999999995</ele><time>2026-04-22T10:00:15Z</time></trkpt><trkpt lat="40.1478969" lon="8.7449682"><ele>385.20000000000005</ele><time>2026-04-22T10:00:15.998Z</time></trkpt><trkpt lat="40.1479873" lon="8.744936"><ele>385.6</ele><time>2026-04-22T10:00:16.999Z</time></trkpt><trkpt lat="40.1480859" lon="8.7448943"><ele>386.0</ele><time>2026-04-22T10:00:18Z</time></trkpt><trkpt lat="40.1481844" lon="8.7448409"><ele>386.5</ele><time>2026-04-22T10:00:18.999Z</time></trkpt><trkpt lat="40.1482819" lon="8.7447683"><ele>387.0</ele><time>2026-04-22T10:00:20Z</time></trkpt><trkpt lat="40.1483784" lon="8.7446815"><ele>387.5</ele><time>2026-04-22T10:00:20.988Z</time></trkpt><trkpt lat="40.1484727" lon="8.744592"><ele>388.0</ele><time>2026-04-22T10:00:21.993Z</time></trkpt><trkpt lat="40.1485661" lon="8.7444823"><ele>388.25</ele><time>2026-04-22T10:00:22.999Z</time></trkpt><trkpt lat="40.1486612" lon="8.7443633"><ele>388.5</ele><time>2026-04-22T10:00:23.999Z</time></trkpt><trkpt lat="40.1487504" lon="8.7442605"><ele>388.75</ele><time>2026-04-22T10:00:24.999Z</time></trkpt><trkpt lat="40.1488306" lon="8.7441471"><ele>389.0</ele><time>2026-04-22T10:00:25.999Z</time></trkpt><trkpt lat="40.1489159" lon="8.7440275"><ele>389.0</ele><time>2026-04-22T10:00:26.999Z</time></trkpt><trkpt lat="40.1489957" lon="8.7438988"><ele>389.0</ele><time>2026-04-22T10:00:28.003Z</time></trkpt><trkpt lat="40.1490764" lon="8.7437694"><ele>389.0</ele><time>2026-04-22T10:00:28.997Z</time></trkpt><trkpt lat="40.1491577" lon="8.7436365"><ele>389.0</ele><time>2026-04-22T10:00:29.999Z</time></trkpt><trkpt lat="40.1492357" lon="8.7434933"><ele>390.5</ele><time>2026-04-22T10:00:30.997Z</time></trkpt><trkpt lat="40.1493124" lon="8.743349"><ele>392.0</ele><time>2026-04-22T10:00:31.999Z</time></trkpt><trkpt lat="40.1493885" lon="8.7432102"><ele>393.5</ele><time>2026-04-22T10:00:32.993Z</time></trkpt><trkpt lat="40.1494722" lon="8.7430787"><ele>395.0</ele><time>2026-04-22T10:00:33.999Z</time></trkpt><trkpt lat="40.1495458" lon="8.7429621"><ele>395.0</ele><time>2026-04-22T10:00:35Z</time></trkpt><trkpt lat="40.1496066" lon="8.742854"><ele>395.0</ele><time>2026-04-22T10:00:35.999Z</time></trkpt><trkpt lat="40.1496676" lon="8.7427446"><ele>395.0</ele><time>2026-04-22T10:00:36.998Z</time></trkpt><trkpt lat="40.1497293" lon="8.7426501"><ele>395.0</ele><time>2026-04-22T10:00:37.999Z</time></trkpt><trkpt lat="40.1497895" lon="8.7425641"><ele>395.0</ele><time>2026-04-22T10:00:38.998Z</time></trkpt><trkpt lat="40.1498453" lon="8.7424834"><ele>395.2</ele><time>2026-04-22T10:00:39.999Z</time></trkpt><trkpt lat="40.1499106" lon="8.742412"><ele>395.4</ele><time>2026-04-22T10:00:40.997Z</time></trkpt><trkpt lat="40.1499933" lon="8.7423497"><ele>395.6</ele><time>2026-04-22T10:00:42Z</time></trkpt><trkpt lat="40.1500781" lon="8.7423067"><ele>395.8</ele><time>2026-04-22T10:00:42.998Z</time></trkpt><trkpt lat="40.1501617" lon="8.7422759"><ele>396.0</ele><time>2026-04-22T10:00:43.999Z</time></trkpt><trkpt lat="40.1502587" lon="8.7422577"><ele>396.0</ele><time>2026-04-22T10:00:45.001Z</time></trkpt><trkpt lat="40.1503638" lon="8.742242"><ele>396.0</ele><time>2026-04-22T10:00:46Z</time></trkpt><trkpt lat="40.1504755" lon="8.7422234"><ele>396.0</ele><time>2026-04-22T10:00:47Z</time></trkpt><trkpt lat="40.150586" lon="8.7422078"><ele>396.0</ele><time>2026-04-22T10:00:47.999Z</time></trkpt><trkpt lat="40.1506993" lon="8.7421906"><ele>396.0</ele><time>2026-04-22T10:00:48.999Z</time></trkpt><trkpt lat="40.1508169" lon="8.7421677"><ele>395.75</ele><time>2026-04-22T10:00:50Z</time></trkpt><trkpt lat="40.150934" lon="8.742144"><ele>395.5</ele><time>2026-04-22T10:00:50.996Z</time></trkpt><trkpt lat="40.1510502" lon="8.7421234"><ele>395.25</ele><time>2026-04-22T10:00:51.999Z</time></trkpt><trkpt lat="40.1511696" lon="8.7421135"><ele>395.0</ele><time>2026-04-22T10:00:52.999Z</time></trkpt><trkpt lat="40.1512951" lon="8.7420934"><ele>395.0</ele><time>2026-04-22T10:00:54Z</time></trkpt><trkpt lat="40.151422" lon="8.7420707"><ele>395.0</ele><time>2026-04-22T10:00:54.995Z</time></trkpt><trkpt lat="40.1515494" lon="8.7420468"><ele>395.0</ele><time>2026-04-22T10:00:55.983Z</time></trkpt><trkpt lat="40.1516829" lon="8.7420277"><ele>395.0</ele><time>2026-04-22T10:00:56.994Z</time></trkpt><trkpt lat="40.151815" lon="8.7420051"><ele>395.0</ele><time>2026-04-22T10:00:58.004Z</time></trkpt><trkpt lat="40.1519419" lon="8.7419817"><ele>395.0</ele><time>2026-04-22T10:00:58.999Z</time></trkpt><trkpt lat="40.1520665" lon="8.7419632"><ele>395.0</ele><time>2026-04-22T10:00:59.999Z</time></trkpt><trkpt lat="40.152191" lon="8.7419434"><ele>395.0</ele><time>2026-04-22T10:01:00.999Z</time></trkpt><trkpt lat="40.1523094" lon="8.7419201"><ele>394.75</ele><time>2026-04-22T10:01:01.999Z</time></trkpt><trkpt lat="40.1524215" lon="8.7418946"><ele>394.5</ele><time>2026-04-22T10:01:02.986Z</time></trkpt><trkpt lat="40.1525292" lon="8.7418655"><ele>394.25</ele><time>2026-04-22T10:01:03.996Z</time></trkpt><trkpt lat="40.1526401" lon="8.7418283"><ele>394.0</ele><time>2026-04-22T10:01:04.999Z</time></trkpt><trkpt lat="40.1527533" lon="8.7417844"><ele>394.75</ele><time>2026-04-22T10:01:05.999Z</time></trkpt><trkpt lat="40.1528671" lon="8.7417363"><ele>395.5</ele><time>2026-04-22T10:01:06.999Z</time></trkpt><trkpt lat="40.1529787" lon="8.7416825"><ele>396.25</ele><time>2026-04-22T10:01:07.999Z</time></trkpt><trkpt lat="40.1530882" lon="8.7416237"><ele>397.0</ele><time>2026-04-22T10:01:09.002Z</time></trkpt><trkpt lat="40.1531971" lon="8.7415717"><ele>397.0</ele><time>2026-04-22T10:01:09.999Z</time></trkpt><trkpt lat="40.1533072" lon="8.7415281"><ele>397.0</ele><time>2026-04-22T10:01:10.999Z</time></trkpt><trkpt lat="40.153416" lon="8.7414996"><ele>397.0</ele><time>2026-04-22T10:01:12Z</time></trkpt><trkpt lat="40.1535142" lon="8.741479"><ele>397.0</ele><time>2026-04-22T10:01:12.999Z</time></trkpt><trkpt lat="40.153609" lon="8.7414708"><ele>397.0</ele><time>2026-04-22T10:01:14Z</time></trkpt><trkpt lat="40.1537075" lon="8.7414848"><ele>397.0</ele><time>2026-04-22T10:01:14.999Z</time></trkpt><trkpt lat="40.1538016" lon="8.741514"><ele>397.0</ele><time>2026-04-22T10:01:15.999Z</time></trkpt><trkpt lat="40.1538939" lon="8.7415606"><ele>397.0</ele><time>2026-04-22T10:01:16.997Z</time></trkpt><trkpt lat="40.1539922" lon="8.7416155"><ele>397.0</ele><time>2026-04-22T10:01:17.999Z</time></trkpt><trkpt lat="40.1540879" lon="8.7416828"><ele>397.0</ele><time>2026-04-22T10:01:19.002Z</time></trkpt><trkpt lat="40.1541803" lon="8.7417503"><ele>397.0</ele><time>2026-04-22T10:01:20Z</time></trkpt><trkpt lat="40.1542669" lon="8.7418163"><ele>397.0</ele><time>2026-04-22T10:01:20.999Z</time></trkpt><trkpt lat="40.1543556" lon="8.7418741"><ele>397.0</ele><time>2026-04-22T10:01:21.999Z</time></trkpt><trkpt lat="40.1544392" lon="8.7419221"><ele>397.0</ele><time>2026-04-22T10:01:22.988Z</time></trkpt><trkpt lat="40.1545209" lon="8.7419423"><ele>397.0</ele><time>2026-04-22T10:01:23.999Z</time></trkpt><trkpt lat="40.1545978" lon="8.7419425"><ele>397.00000000000006</ele><time>2026-04-22T10:01:25Z</time></trkpt><trkpt lat="40.1546725" lon="8.7419283"><ele>397.0</ele><time>2026-04-22T10:01:26Z</time></trkpt><trkpt lat="40.1547473" lon="8.7419085"><ele>397.0</ele><time>2026-04-22T10:01:26.984Z</time></trkpt><trkpt lat="40.1548297" lon="8.7418781"><ele>397.0</ele><time>2026-04-22T10:01:27.999Z</time></trkpt><trkpt lat="40.1549013" lon="8.7418315"><ele>397.00000000000006</ele><time>2026-04-22T10:01:28.999Z</time></trkpt><trkpt lat="40.1549724" lon="8.7417728"><ele>397.0</ele><time>2026-04-22T10:01:29.999Z</time></trkpt><trkpt lat="40.1550449" lon="8.7417107"><ele>397.1666666666667</ele><time>2026-04-22T10:01:31Z</time></trkpt><trkpt lat="40.1551124" lon="8.7416482"><ele>397.33333333333337</ele><time>2026-04-22T10:01:31.999Z</time></trkpt><trkpt lat="40.1551736" lon="8.7415889"><ele>397.5</ele><time>2026-04-22T10:01:32.999Z</time></trkpt><trkpt lat="40.155233" lon="8.7415315"><ele>397.66666666666663</ele><time>2026-04-22T10:01:34.003Z</time></trkpt><trkpt lat="40.1552833" lon="8.7414819"><ele>397.8333333333333</ele><time>2026-04-22T10:01:34.999Z</time></trkpt><trkpt lat="40.1553613" lon="8.7413868"><ele>398.0</ele><time>2026-04-22T10:01:37Z</time></trkpt><trkpt lat="40.1554295" lon="8.7412805"><ele>397.99999999999994</ele><time>2026-04-22T10:01:38.999Z</time></trkpt><trkpt lat="40.155465" lon="8.7412096"><ele>398.0</ele><time>2026-04-22T10:01:39.999Z</time></trkpt><trkpt lat="40.1555043" lon="8.7411275"><ele>398.0</ele><time>2026-04-22T10:01:40.988Z</time></trkpt><trkpt lat="40.1555358" lon="8.741037"><ele>398.0</ele><time>2026-04-22T10:01:41.999Z</time></trkpt><trkpt lat="40.1555614" lon="8.7409364"><ele>397.99999999999994</ele><time>2026-04-22T10:01:43Z</time></trkpt><trkpt lat="40.1555794" lon="8.740822"><ele>398.0</ele><time>2026-04-22T10:01:43.998Z</time></trkpt><trkpt lat="40.1555973" lon="8.7406802"><ele>398.5</ele><time>2026-04-22T10:01:44.999Z</time></trkpt><trkpt lat="40.1556085" lon="8.7405286"><ele>399.0</ele><time>2026-04-22T10:01:46Z</time></trkpt><trkpt lat="40.155619" lon="8.7403722"><ele>399.5</ele><time>2026-04-22T10:01:46.999Z</time></trkpt><trkpt lat="40.1556332" lon="8.7402101"><ele>400.0</ele><time>2026-04-22T10:01:47.996Z</time></trkpt><trkpt lat="40.1556543" lon="8.7400382"><ele>400.0</ele><time>2026-04-22T10:01:49Z</time></trkpt><trkpt lat="40.155676" lon="8.739865"><ele>400.0</ele><time>2026-04-22T10:01:50Z</time></trkpt><trkpt lat="40.1556905" lon="8.7396843"><ele>400.0</ele><time>2026-04-22T10:01:50.999Z</time></trkpt><trkpt lat="40.1557034" lon="8.7395016"><ele>400.0</ele><time>2026-04-22T10:01:51.999Z</time></trkpt><trkpt lat="40.155716" lon="8.7393194"><ele>400.75</ele><time>2026-04-22T10:01:52.999Z</time></trkpt><trkpt lat="40.1557307" lon="8.7391383"><ele>401.5</ele><time>2026-04-22T10:01:53.996Z</time></trkpt><trkpt lat="40.1557479" lon="8.7389638"><ele>402.25</ele><time>2026-04-22T10:01:54.999Z</time></trkpt><trkpt lat="40.1557674" lon="8.7387943"><ele>403.0</ele><time>2026-04-22T10:01:55.998Z</time></trkpt><trkpt lat="40.1557732" lon="8.7386364"><ele>403.5</ele><time>2026-04-22T10:01:57Z</time></trkpt><trkpt lat="40.1557807" lon="8.7384816"><ele>404.0</ele><time>2026-04-22T10:01:57.997Z</time></trkpt><trkpt lat="40.1557894" lon="8.7383171"><ele>404.5</ele><time>2026-04-22T10:01:58.996Z</time></trkpt><trkpt lat="40.1558022" lon="8.7381536"><ele>405.0</ele><time>2026-04-22T10:01:59.981Z</time></trkpt><trkpt lat="40.1558158" lon="8.7379871"><ele>405.0</ele><time>2026-04-22T10:02:00.994Z</time></trkpt><trkpt lat="40.1558233" lon="8.7378315"><ele>405.0</ele><time>2026-04-22T10:02:01.999Z</time></trkpt><trkpt lat="40.1558335" lon="8.737675"><ele>405.0</ele><time>2026-04-22T10:02:02.986Z</time></trkpt><trkpt lat="40.1558495" lon="8.7375201"><ele>405.0</ele><time>2026-04-22T10:02:03.998Z</time></trkpt><trkpt lat="40.1558627" lon="8.7373583"><ele>406.0</ele><time>2026-04-22T10:02:04.999Z</time></trkpt><trkpt lat="40.1558768" lon="8.7371987"><ele>407.0</ele><time>2026-04-22T10:02:06.001Z</time></trkpt><trkpt lat="40.1558925" lon="8.7370453"><ele>408.0</ele><time>2026-04-22T10:02:06.999Z</time></trkpt><trkpt lat="40.1559191" lon="8.7369028"><ele>409.0</ele><time>2026-04-22T10:02:07.999Z</time></trkpt><trkpt lat="40.1559546" lon="8.7367627"><ele>409.4</ele><time>2026-04-22T10:02:08.997Z</time></trkpt><trkpt lat="40.1560017" lon="8.736633"><ele>409.79999999999995</ele><time>2026-04-22T10:02:09.997Z</time></trkpt><trkpt lat="40.1560616" lon="8.7365113"><ele>410.20000000000005</ele><time>2026-04-22T10:02:10.999Z</time></trkpt><trkpt lat="40.1561286" lon="8.7363895"><ele>410.6</ele><time>2026-04-22T10:02:11.999Z</time></trkpt><trkpt lat="40.1561993" lon="8.7362828"><ele>411.0</ele><time>2026-04-22T10:02:13Z</time></trkpt><trkpt lat="40.1562718" lon="8.7361841"><ele>411.0</ele><time>2026-04-22T10:02:13.999Z</time></trkpt><trkpt lat="40.1563579" lon="8.7361024"><ele>411.0</ele><time>2026-04-22T10:02:14.998Z</time></trkpt><trkpt lat="40.1564531" lon="8.7360242"><ele>411.0</ele><time>2026-04-22T10:02:15.999Z</time></trkpt><trkpt lat="40.15655" lon="8.7359512"><ele>411.0</ele><time>2026-04-22T10:02:16.987Z</time></trkpt><trkpt lat="40.1566658" lon="8.7358949"><ele>411.5</ele><time>2026-04-22T10:02:18Z</time></trkpt><trkpt lat="40.1567952" lon="8.7358445"><ele>412.0</ele><time>2026-04-22T10:02:19Z</time></trkpt><trkpt lat="40.1569334" lon="8.7357964"><ele>412.5</ele><time>2026-04-22T10:02:20Z</time></trkpt><trkpt lat="40.1570705" lon="8.7357519"><ele>413.0</ele><time>2026-04-22T10:02:20.986Z</time></trkpt><trkpt lat="40.1571986" lon="8.7357116"><ele>413.0</ele><time>2026-04-22T10:02:21.987Z</time></trkpt><trkpt lat="40.1573261" lon="8.7356701"><ele>413.0</ele><time>2026-04-22T10:02:22.999Z</time></trkpt><trkpt lat="40.1574537" lon="8.7356232"><ele>413.0</ele><time>2026-04-22T10:02:23.999Z</time></trkpt><trkpt lat="40.1575817" lon="8.7355739"><ele>413.0</ele><time>2026-04-22T10:02:24.999Z</time></trkpt><trkpt lat="40.1577077" lon="8.7355266"><ele>414.0</ele><time>2026-04-22T10:02:25.999Z</time></trkpt><trkpt lat="40.157836" lon="8.7354808"><ele>415.0</ele><time>2026-04-22T10:02:27Z</time></trkpt><trkpt lat="40.1579661" lon="8.7354366"><ele>416.0</ele><time>2026-04-22T10:02:27.989Z</time></trkpt><trkpt lat="40.1581021" lon="8.7353919"><ele>417.0</ele><time>2026-04-22T10:02:28.996Z</time></trkpt><trkpt lat="40.1582407" lon="8.7353466"><ele>417.5</ele><time>2026-04-22T10:02:29.999Z</time></trkpt><trkpt lat="40.1583745" lon="8.7353041"><ele>418.0</ele><time>2026-04-22T10:02:30.999Z</time></trkpt><trkpt lat="40.1585045" lon="8.7352614"><ele>418.5</ele><time>2026-04-22T10:02:31.998Z</time></trkpt><trkpt lat="40.1586306" lon="8.7352181"><ele>419.0</ele><time>2026-04-22T10:02:33Z</time></trkpt><trkpt lat="40.1587573" lon="8.7351721"><ele>419.0</ele><time>2026-04-22T10:02:34Z</time></trkpt><trkpt lat="40.1588847" lon="8.7351271"><ele>419.0</ele><time>2026-04-22T10:02:34.999Z</time></trkpt><trkpt lat="40.1590045" lon="8.7350895"><ele>419.0</ele><time>2026-04-22T10:02:35.999Z</time></trkpt><trkpt lat="40.1591175" lon="8.7350538"><ele>419.0</ele><time>2026-04-22T10:02:36.996Z</time></trkpt><trkpt lat="40.1592245" lon="8.7350094"><ele>420.0</ele><time>2026-04-22T10:02:37.998Z</time></trkpt><trkpt lat="40.1593329" lon="8.734966"><ele>421.0</ele><time>2026-04-22T10:02:38.999Z</time></trkpt><trkpt lat="40.1594463" lon="8.7349304"><ele>422.0</ele><time>2026-04-22T10:02:39.999Z</time></trkpt><trkpt lat="40.1595661" lon="8.7348993"><ele>423.0</ele><time>2026-04-22T10:02:40.997Z</time></trkpt><trkpt lat="40.1596834" lon="8.7348588"><ele>423.0</ele><time>2026-04-22T10:02:41.995Z</time></trkpt><trkpt lat="40.1598069" lon="8.7348177"><ele>423.0</ele><time>2026-04-22T10:02:43Z</time></trkpt><trkpt lat="40.1599416" lon="8.7347675"><ele>423.0</ele><time>2026-04-22T10:02:44Z</time></trkpt><trkpt lat="40.1600796" lon="8.7347259"><ele>423.0</ele><time>2026-04-22T10:02:44.999Z</time></trkpt><trkpt lat="40.1602084" lon="8.7346839"><ele>424.0</ele><time>2026-04-22T10:02:45.996Z</time></trkpt><trkpt lat="40.1603313" lon="8.7346441"><ele>425.0</ele><time>2026-04-22T10:02:46.999Z</time></trkpt><trkpt lat="40.1604547" lon="8.7345991"><ele>426.0</ele><time>2026-04-22T10:02:47.998Z</time></trkpt><trkpt lat="40.1605798" lon="8.7345546"><ele>427.0</ele><time>2026-04-22T10:02:48.999Z</time></trkpt><trkpt lat="40.1607018" lon="8.7345106"><ele>427.0</ele><time>2026-04-22T10:02:49.994Z</time></trkpt><trkpt lat="40.1608139" lon="8.7344672"><ele>427.00000000000006</ele><time>2026-04-22T10:02:51Z</time></trkpt><trkpt lat="40.1609184" lon="8.7344305"><ele>427.00000000000006</ele><time>2026-04-22T10:02:52Z</time></trkpt><trkpt lat="40.1610124" lon="8.7343981"><ele>427.0</ele><time>2026-04-22T10:02:52.994Z</time></trkpt><trkpt lat="40.1611087" lon="8.7343657"><ele>427.0</ele><time>2026-04-22T10:02:53.995Z</time></trkpt><trkpt lat="40.1611972" lon="8.7343362"><ele>427.20000000000005</ele><time>2026-04-22T10:02:55Z</time></trkpt><trkpt lat="40.1612865" lon="8.7343097"><ele>427.40000000000003</ele><time>2026-04-22T10:02:56Z</time></trkpt><trkpt lat="40.1613842" lon="8.7342884"><ele>427.59999999999997</ele><time>2026-04-22T10:02:56.998Z</time></trkpt><trkpt lat="40.1614785" lon="8.7342698"><ele>427.79999999999995</ele><time>2026-04-22T10:02:58Z</time></trkpt><trkpt lat="40.1615694" lon="8.7342577"><ele>428.0</ele><time>2026-04-22T10:02:59Z</time></trkpt><trkpt lat="40.1616585" lon="8.7342575"><ele>428.49999999999994</ele><time>2026-04-22T10:02:59.999Z</time></trkpt><trkpt lat="40.1617451" lon="8.7342575"><ele>429.0</ele><time>2026-04-22T10:03:00.994Z</time></trkpt><trkpt lat="40.161832" lon="8.7342635"><ele>429.5</ele><time>2026-04-22T10:03:01.99Z</time></trkpt><trkpt lat="40.1619197" lon="8.7342778"><ele>430.0</ele><time>2026-04-22T10:03:02.998Z</time></trkpt><trkpt lat="40.1620026" lon="8.7342993"><ele>430.49999999999994</ele><time>2026-04-22T10:03:03.994Z</time></trkpt><trkpt lat="40.1620862" lon="8.7343266"><ele>431.0</ele><time>2026-04-22T10:03:05Z</time></trkpt><trkpt lat="40.1621694" lon="8.7343496"><ele>431.0</ele><time>2026-04-22T10:03:06Z</time></trkpt><trkpt lat="40.1622531" lon="8.7343816"><ele>431.0</ele><time>2026-04-22T10:03:06.999Z</time></trkpt><trkpt lat="40.1623448" lon="8.7344225"><ele>431.0</ele><time>2026-04-22T10:03:08Z</time></trkpt><trkpt lat="40.1624395" lon="8.7344577"><ele>431.0</ele><time>2026-04-22T10:03:08.999Z</time></trkpt><trkpt lat="40.1625357" lon="8.7344963"><ele>431.0</ele><time>2026-04-22T10:03:09.985Z</time></trkpt><trkpt lat="40.1626339" lon="8.7345345"><ele>430.0</ele><time>2026-04-22T10:03:10.991Z</time></trkpt><trkpt lat="40.1627243" lon="8.7345772"><ele>429.0</ele><time>2026-04-22T10:03:11.999Z</time></trkpt><trkpt lat="40.1628133" lon="8.7346165"><ele>428.0</ele><time>2026-04-22T10:03:12.996Z</time></trkpt><trkpt lat="40.1629001" lon="8.7346506"><ele>427.0</ele><time>2026-04-22T10:03:13.996Z</time></trkpt><trkpt lat="40.1629977" lon="8.7346891"><ele>426.0</ele><time>2026-04-22T10:03:14.999Z</time></trkpt><trkpt lat="40.1630944" lon="8.734724"><ele>426.0</ele><time>2026-04-22T10:03:15.985Z</time></trkpt><trkpt lat="40.1632009" lon="8.7346996"><ele>427.0</ele><time>2026-04-22T10:03:17.989Z</time></trkpt><trkpt lat="40.1632749" lon="8.7346665"><ele>427.0</ele><time>2026-04-22T10:03:20.999Z</time></trkpt></trkseg></trk></gpx>